[[{"header":{"parameterUnit":"m.s-1","parameterCategory":1,"la1":31.0,"la2":29.5877,"lo1":-88.7671,"lo2":-86.6584,"dy":0.0162,"dx":0.0185,"nx":115,"ny":88,"refTime":"2025-03-01T06:00:00:Z","depth":0,"parameterNumber":2,"parameterNumberName":"U-component_of_WINDS"},"data":[0.0,0.0,0.0,0.0,0.0,0.0,0.0,0.0,0.0,0.0,0.0,0.0,0.0,0.0,0.0,0.0,0.0,0.0,0.0,0.0,0.0,0.0,0.0,0.0,0.0,0.0,0.0,0.0,0.0,0.0,0.0,0.0,0.0,0.0,0.0,0.0,0.0,0.0,0.0,0.0,0.0,0.0,0.0,0.0,0.0,0.0,0.0,0.0,0.0,0.0,0.0,0.0,0.0,0.0,0.0,0.0,0.0,0.0,0.0,0.0,0.0,0.0,0.0,0.0,0.0,0.0,0.0,0.0,0.0,0.0,0.0,0.0,0.0,0.0,0.0,0.0,0.0,0.0,0.0,0.0,0.0,0.0,0.0,0.0,0.0,0.0,0.0,0.0,0.0,0.0,0.0,0.0,0.0,0.0,0.0,0.0,0.0,0.0,0.0,0.0,0.0,0.0,0.0,0.0,0.0,0.0,0.0,0.0,0.0,0.0,0.0,0.0,0.0,0.0,0.0,0.0,0.0,0.0,0.0,0.0,0.0,0.0,0.0,0.0,0.0,0.0,0.0,0.0,0.0,0.0,0.0,0.0,0.0,0.0,0.0,0.0,0.0,0.0,0.0,0.0,0.0,0.0,0.0,0.0,0.0,0.0,0.0,0.0,0.0,0.0,0.0,0.0,0.0,0.0,0.0,0.0,0.0,0.0,0.0,0.0,0.0,0.0,0.0,0.0,0.0,0.0,0.0,0.0,0.0,0.0,0.0,0.0,0.0,0.0,0.0,0.0,0.0,0.0,0.0,0.0,0.0,0.0,0.0,0.0,0.0,0.0,0.0,0.0,0.0,0.0,0.0,0.0,0.0,0.0,0.0,0.0,0.0,0.0,0.0,0.0,0.0,0.0,0.0,0.0,0.0,0.0,0.0,0.0,0.0,0.0,0.0,0.0,0.0,0.0,0.0,0.0,0.0,0.0,0.0,0.0,0.0,0.0,0.0,0.0,0.0,0.0,0.0,0.0,0.0,0.0,0.0,0.0,0.0,0.0,0.0,0.0,0.0,0.0,0.0,0.0,0.0,0.0,0.0,0.0,0.0,0.0,0.0,0.0,0.0,0.0,0.0,0.0,0.0,0.0,0.0,0.0,0.0,0.0,0.0,0.0,0.0,0.0,0.0,0.0,0.0,0.0,0.0,0.0,0.0,0.0,0.0,0.0,0.0,0.0,0.0,0.0,0.0,0.0,0.0,0.0,0.0,0.0,0.0,0.0,0.0,0.0,0.0,0.0,0.0,0.0,0.0,0.0,0.0,0.0,0.0,0.0,0.0,0.0,0.0,0.0,0.0,0.0,0.0,0.0,0.0,0.0,0.0,0.0,0.0,0.0,0.0,0.0,0.0,0.0,0.0,0.0,0.0,0.0,0.0,0.0,0.0,0.0,0.0,0.0,0.0,0.0,0.0,0.0,0.0,0.0,0.0,0.0,0.0,0.0,0.0,0.0,0.0,0.0,0.0,0.0,0.0,0.0,0.0,0.0,0.0,0.0,0.0,0.0,0.0,0.0,0.0,0.0,0.0,0.0,0.0,0.0,0.0,0.0,0.0,0.0,0.0,0.0,0.0,0.0,0.0,0.0,0.0,0.0,0.0,0.0,0.0,0.0,0.0,0.0,0.0,0.0,0.0,0.0,0.0,0.0,0.0,0.0,0.0,0.0,0.0,0.0,0.0,0.0,0.0,0.0,0.0,0.0,0.0,0.0,0.0,0.0,0.0,0.0,0.0,0.0,0.0,0.0,0.0,0.0,0.0,0.0,0.0,0.0,0.0,0.0,0.0,0.0,0.0,0.0,0.0,0.0,0.0,0.0,0.0,0.0,0.0,0.0,0.0,0.0,0.0,0.0,0.0,0.0,0.0,0.0,0.0,0.0,0.0,0.0,0.0,0.0,0.0,0.0,0.0,0.0,0.0,0.0,0.0,0.0,0.0,0.0,0.0,0.0,0.0,0.0,0.0,0.0,0.0,0.0,0.0,0.0,0.0,0.0,0.0,0.0,0.0,0.0,0.0,0.0,0.0,0.0,0.0,0.0,0.0,0.0,0.0,0.0,0.0,0.0,0.0,0.0,0.0,0.0,0.0,0.0,0.0,0.0,0.0,0.0,0.0,0.0,0.0,0.0,0.0,0.0,0.0,0.0,0.0,0.0,0.0,0.0,0.0,0.0,0.0,0.0,0.0,0.0,0.0,0.0,0.0,0.0,0.0,0.0,0.0,0.0,0.0,0.0,0.0,0.0,0.0,0.0,0.0,0.0,0.0,0.0,0.0,0.0,0.0,0.0,0.0,0.0,0.0,0.0,0.0,0.0,0.0,0.0,0.0,0.0,0.0,0.0,0.0,0.0,0.0,0.0,0.0,0.0,0.0,0.0,0.0,0.0,0.0,0.0,0.0,0.0,0.0,0.0,0.0,0.0,0.0,0.0,0.0,0.0,0.0,0.0,0.0,0.0,0.0,0.0,0.0,0.0,0.0,0.0,0.0,0.0,0.0,0.0,0.0,0.0,0.0,0.0,0.0,0.0,0.0,0.0,0.0,0.0,0.0,0.0,0.0,0.0,0.0,0.0,0.0,0.0,0.0,0.0,0.0,0.0,0.0,0.0,0.0,0.0,0.0,0.0,0.0,0.0,0.0,0.0,0.0,0.0,0.0,0.0,0.0,0.0,0.0,0.0,0.0,0.0,0.0,0.0,0.0,0.0,0.0,0.0,0.0,0.0,0.0,0.0,0.0,0.0,0.0,0.0,0.0,0.0,0.0,0.0,0.0,0.0,0.0,0.0,0.0,0.0,0.0,0.0,0.0,0.0,0.0,0.0,0.0,0.0,0.0,0.0,0.0,0.0,0.0,0.0,0.0,0.0,0.0,0.0,0.0,0.0,0.0,0.0,0.0,0.0,0.0,0.0,0.0,0.0,0.0,0.0,0.0,0.0,0.0,0.0,0.0,0.0,0.0,0.0,0.0,0.0,0.0,0.0,0.0,0.0,0.0,0.0,0.0,0.0,0.0,0.0,0.0,0.0,0.0,0.0,0.0,0.0,0.0,0.0,0.0,0.0,0.0,0.0,0.0,0.0,0.0,0.0,0.0,0.0,0.0,0.0,0.0,0.0,0.0,0.0,0.0,0.0,0.0,0.0,0.0,0.0,0.0,0.0,0.0,0.0,0.0,0.0,0.0,0.0,0.0,0.0,0.0,0.0,0.0,0.0,0.0,0.0,0.0,0.0,0.0,0.0,0.0,0.0,0.0,0.0,0.0,0.0,0.0,0.0,0.0,0.0,0.0,0.0,0.0,0.0,0.0,0.0,0.0,0.0,0.0,0.0,0.0,0.0,0.0,0.0,0.0,0.0,0.0,0.0,0.0,0.0,0.0,0.0,0.0,0.0,0.0,0.0,0.0,0.0,0.0,0.0,0.0,0.0,0.0,0.0,0.0,0.0,0.0,0.0,0.0,0.0,0.0,0.0,0.0,0.0,0.0,0.0,0.0,0.0,0.0,0.0,0.0,0.0,0.0,0.0,0.0,0.0,0.0,0.0,0.0,0.0,0.0,0.0,0.0,0.0,0.0,0.0,0.0,0.0,0.0,0.0,0.0,0.0,0.0,0.0,0.0,0.0,0.0,0.0,0.0,0.0,0.0,0.0,0.0,0.0,0.0,0.0,0.0,0.0,0.0,0.0,0.0,0.0,0.0,0.0,0.0,0.0,0.0,0.0,0.0,0.0,0.0,0.0,0.0,0.0,0.0,0.0,0.0,0.0,0.0,0.0,0.0,0.0,0.0,0.0,0.0,0.0,0.0,0.0,0.0,0.0,0.0,0.0,0.0,0.0,0.0,0.0,0.0,0.0,0.0,0.0,0.0,0.0,0.0,0.0,0.0,0.0,0.0,0.0,0.0,0.0,0.0,0.0,0.0,0.0,0.0,0.0,0.0,0.0,0.0,0.0,0.0,0.0,0.0,0.0,0.0,0.0,0.0,0.0,0.0,0.0,0.0,0.0,0.0,0.0,0.0,0.0,0.0,0.0,0.0,0.0,0.0,0.0,0.0,0.0,0.0,0.0,0.0,0.0,0.0,0.0,0.0,0.0,0.0,0.0,0.0,0.0,0.0,0.0,0.0,0.0,0.0,0.0,0.0,0.0,0.0,0.0,0.0,0.0,0.0,0.0,0.0,0.0,0.0,0.0,0.0,0.0,0.0,0.0,0.0,0.0,0.0,0.0,0.0,0.0,0.0,0.0,0.0,0.0,3.1026,0.0,0.0,0.0,0.0,0.0,0.0,0.0,0.0,0.0,0.0,0.0,0.0,0.0,0.0,0.0,0.0,0.0,0.0,0.0,0.0,0.0,0.0,0.0,0.0,0.0,0.0,0.0,0.0,0.0,0.0,0.0,0.0,0.0,0.0,0.0,0.0,0.0,0.0,0.0,0.0,0.0,0.0,0.0,0.0,0.0,0.0,0.0,0.0,0.0,0.0,0.0,0.0,0.0,0.0,0.0,0.0,0.0,0.0,0.0,0.0,0.0,0.0,0.0,0.0,0.0,0.0,0.0,0.0,0.0,0.0,0.0,0.0,0.0,0.0,0.0,0.0,0.0,0.0,0.0,0.0,0.0,0.0,0.0,0.0,0.0,0.0,0.0,0.0,0.0,0.0,0.0,0.0,0.0,0.0,0.0,0.0,0.0,0.0,0.0,0.0,0.0,0.0,0.0,0.0,0.0,0.0,0.0,0.0,0.0,0.0,3.4844,3.4483,3.2346,3.119,3.1157,0.0,0.0,0.0,0.0,0.0,0.0,0.0,0.0,0.0,0.0,0.0,0.0,0.0,0.0,0.0,0.0,0.0,0.0,0.0,0.0,0.0,0.0,0.0,0.0,0.0,0.0,0.0,0.0,0.0,0.0,0.0,0.0,0.0,0.0,0.0,0.0,0.0,0.0,0.0,0.0,0.0,0.0,0.0,0.0,0.0,0.0,0.0,0.0,0.0,0.0,0.0,0.0,0.0,0.0,0.0,0.0,0.0,0.0,0.0,0.0,0.0,0.0,0.0,0.0,0.0,0.0,0.0,0.0,0.0,0.0,0.0,0.0,0.0,0.0,0.0,0.0,0.0,0.0,0.0,0.0,0.0,0.0,0.0,0.0,0.0,0.0,0.0,0.0,0.0,0.0,0.0,0.0,0.0,0.0,0.0,0.0,0.0,0.0,0.0,0.0,0.0,0.0,0.0,0.0,0.0,0.0,0.0,0.0,0.0,0.0,0.0,0.0,3.2916,3.1635,3.0958,0.0,0.0,0.0,0.0,0.0,0.0,0.0,0.0,0.0,0.0,0.0,0.0,0.0,0.0,0.0,0.0,0.0,0.0,0.0,0.0,0.0,0.0,0.0,0.0,0.0,0.0,0.0,0.0,0.0,0.0,0.0,0.0,0.0,0.0,0.0,0.0,0.0,0.0,0.0,0.0,0.0,0.0,0.0,0.0,0.0,0.0,0.0,0.0,0.0,0.0,0.0,0.0,0.0,0.0,0.0,0.0,0.0,0.0,0.0,0.0,0.0,0.0,0.0,0.0,0.0,0.0,0.0,0.0,0.0,0.0,0.0,0.0,0.0,0.0,0.0,0.0,0.0,0.0,0.0,0.0,0.0,0.0,0.0,0.0,0.0,0.0,0.0,0.0,0.0,0.0,0.0,0.0,0.0,0.0,0.0,0.0,0.0,0.0,0.0,0.0,0.0,0.0,0.0,0.0,0.0,0.0,0.0,0.0,0.0,0.0,3.4128,3.5436,3.4641,0.0,3.047,0.0,0.0,0.0,0.0,0.0,0.0,0.0,0.0,0.0,0.0,0.0,0.0,0.0,0.0,0.0,0.0,0.0,0.0,0.0,0.0,0.0,0.0,0.0,0.0,0.0,0.0,0.0,0.0,0.0,0.0,0.0,0.0,0.0,0.0,0.0,0.0,0.0,0.0,0.0,0.0,0.0,0.0,0.0,0.0,0.0,0.0,0.0,0.0,0.0,0.0,0.0,0.0,0.0,0.0,0.0,0.0,0.0,0.0,0.0,0.0,0.0,0.0,0.0,0.0,0.0,0.0,0.0,0.0,0.0,0.0,0.0,0.0,0.0,0.0,0.0,0.0,0.0,0.0,0.0,0.0,0.0,0.0,0.0,0.0,0.0,0.0,0.0,0.0,0.0,0.0,0.0,0.0,0.0,0.0,0.0,0.0,0.0,0.0,0.0,0.0,0.0,0.0,0.0,0.0,0.0,0.0,0.0,0.0,0.0,0.0,0.0,3.5566,3.4466,3.2877,0.0,0.0,0.0,0.0,0.0,0.0,0.0,0.0,0.0,0.0,0.0,0.0,0.0,0.0,0.0,0.0,0.0,0.0,0.0,0.0,0.0,0.0,0.0,0.0,0.0,0.0,0.0,0.0,0.0,0.0,0.0,0.0,0.0,0.0,0.0,0.0,0.0,0.0,0.0,0.0,0.0,0.0,0.0,0.0,0.0,0.0,0.0,0.0,0.0,0.0,0.0,0.0,0.0,0.0,0.0,0.0,0.0,0.0,0.0,0.0,0.0,0.0,0.0,0.0,0.0,0.0,0.0,0.0,0.0,0.0,0.0,0.0,0.0,0.0,0.0,0.0,0.0,0.0,0.0,0.0,0.0,0.0,0.0,0.0,0.0,0.0,0.0,0.0,0.0,0.0,0.0,0.0,0.0,0.0,0.0,0.0,0.0,0.0,0.0,0.0,0.0,0.0,0.0,0.0,0.0,0.0,0.0,0.0,0.0,0.0,3.3022,0.0,3.543,3.4359,3.2713,3.0649,0.0,0.0,0.0,0.0,0.0,0.0,0.0,0.0,0.0,0.0,0.0,0.0,0.0,0.0,0.0,0.0,0.0,0.0,0.0,0.0,0.0,0.0,0.0,0.0,0.0,0.0,0.0,0.0,0.0,0.0,0.0,0.0,0.0,0.0,0.0,0.0,0.0,0.0,0.0,0.0,0.0,0.0,0.0,0.0,0.0,0.0,0.0,0.0,0.0,0.0,0.0,0.0,0.0,0.0,0.0,0.0,0.0,0.0,0.0,0.0,0.0,0.0,0.0,0.0,0.0,0.0,0.0,0.0,0.0,0.0,0.0,0.0,0.0,0.0,0.0,0.0,0.0,0.0,0.0,0.0,0.0,0.0,0.0,0.0,0.0,0.0,0.0,0.0,0.0,0.0,0.0,0.0,0.0,0.0,0.0,0.0,0.0,0.0,0.0,0.0,0.0,0.0,0.0,0.0,0.0,0.0,0.0,0.0,0.0,3.3038,3.34,3.5532,3.4849,3.2757,0.0,0.0,0.0,0.0,0.0,0.0,0.0,0.0,0.0,0.0,0.0,0.0,0.0,0.0,0.0,0.0,0.0,0.0,0.0,0.0,0.0,0.0,0.0,0.0,0.0,0.0,0.0,0.0,0.0,0.0,0.0,0.0,0.0,0.0,0.0,0.0,0.0,0.0,0.0,0.0,0.0,0.0,0.0,0.0,0.0,0.0,0.0,0.0,0.0,0.0,0.0,0.0,0.0,0.0,0.0,0.0,0.0,0.0,0.0,0.0,0.0,0.0,0.0,0.0,0.0,0.0,0.0,0.0,0.0,0.0,0.0,0.0,0.0,0.0,0.0,0.0,0.0,0.0,0.0,0.0,0.0,0.0,0.0,0.0,0.0,0.0,0.0,0.0,0.0,0.0,0.0,0.0,0.0,0.0,0.0,0.0,0.0,0.0,0.0,0.0,0.0,0.0,0.0,0.0,0.0,0.0,0.0,0.0,0.0,3.0127,3.1099,3.3124,3.6135,3.4246,3.2694,0.0,0.0,0.0,0.0,0.0,0.0,0.0,0.0,0.0,0.0,0.0,0.0,0.0,0.0,0.0,0.0,0.0,0.0,0.0,0.0,0.0,0.0,0.0,0.0,0.0,0.0,0.0,0.0,0.0,0.0,0.0,0.0,0.0,0.0,0.0,0.0,0.0,0.0,0.0,0.0,0.0,0.0,0.0,0.0,0.0,0.0,0.0,0.0,0.0,0.0,0.0,0.0,0.0,0.0,0.0,0.0,0.0,0.0,0.0,0.0,0.0,0.0,0.0,0.0,0.0,0.0,0.0,0.0,0.0,0.0,0.0,0.0,0.0,0.0,0.0,0.0,0.0,0.0,0.0,0.0,0.0,0.0,0.0,0.0,0.0,0.0,0.0,0.0,0.0,0.0,0.0,0.0,0.0,0.0,0.0,0.0,0.0,0.0,0.0,0.0,0.0,0.0,0.0,0.0,0.0,0.0,0.0,0.0,0.0,2.9582,0.0,3.3874,0.0,3.398,3.2215,0.0,0.0,0.0,0.0,0.0,0.0,0.0,0.0,0.0,0.0,0.0,0.0,0.0,0.0,0.0,0.0,0.0,0.0,0.0,0.0,0.0,0.0,0.0,0.0,0.0,0.0,0.0,0.0,0.0,0.0,0.0,0.0,0.0,0.0,0.0,0.0,0.0,0.0,0.0,0.0,0.0,0.0,0.0,0.0,0.0,0.0,0.0,0.0,0.0,0.0,0.0,0.0,0.0,0.0,0.0,0.0,0.0,0.0,0.0,0.0,0.0,0.0,0.0,0.0,0.0,0.0,0.0,0.0,0.0,0.0,0.0,0.0,0.0,0.0,0.0,0.0,0.0,0.0,0.0,0.0,0.0,0.0,0.0,0.0,0.0,0.0,0.0,0.0,0.0,0.0,0.0,0.0,0.0,0.0,0.0,0.0,0.0,0.0,0.0,0.0,0.0,0.0,0.0,0.0,0.0,0.0,0.0,0.0,2.8933,3.3147,3.5396,3.556,3.3592,3.4066,3.1369,0.0,0.0,0.0,0.0,0.0,0.0,0.0,0.0,0.0,0.0,0.0,0.0,0.0,0.0,0.0,0.0,0.0,0.0,0.0,0.0,0.0,0.0,0.0,0.0,0.0,0.0,0.0,0.0,0.0,0.0,0.0,0.0,0.0,0.0,0.0,0.0,0.0,0.0,0.0,0.0,0.0,0.0,0.0,0.0,0.0,0.0,0.0,0.0,0.0,0.0,0.0,0.0,0.0,0.0,0.0,0.0,0.0,0.0,0.0,0.0,0.0,0.0,0.0,0.0,0.0,0.0,0.0,0.0,0.0,0.0,0.0,0.0,0.0,0.0,0.0,0.0,0.0,0.0,0.0,0.0,0.0,0.0,0.0,0.0,0.0,0.0,0.0,0.0,0.0,0.0,0.0,0.0,0.0,0.0,0.0,0.0,0.0,0.0,0.0,0.0,0.0,0.0,0.0,0.0,0.0,0.0,0.0,0.0,0.0,3.1901,3.3558,3.5109,3.6327,3.3733,3.1737,0.0,0.0,0.0,0.0,0.0,0.0,0.0,0.0,0.0,0.0,0.0,0.0,0.0,0.0,0.0,0.0,0.0,0.0,0.0,0.0,0.0,0.0,0.0,0.0,0.0,0.0,0.0,0.0,0.0,0.0,0.0,0.0,0.0,0.0,0.0,0.0,0.0,0.0,0.0,0.0,0.0,0.0,0.0,0.0,0.0,0.0,0.0,0.0,0.0,0.0,0.0,0.0,0.0,0.0,0.0,0.0,0.0,0.0,0.0,0.0,0.0,0.0,0.0,0.0,0.0,0.0,0.0,0.0,0.0,0.0,0.0,0.0,0.0,0.0,0.0,0.0,0.0,0.0,0.0,0.0,0.0,0.0,0.0,0.0,0.0,0.0,0.0,0.0,0.0,0.0,0.0,0.0,0.0,0.0,0.0,0.0,0.0,0.0,0.0,0.0,0.0,0.0,0.0,0.0,0.0,0.0,0.0,0.0,0.0,3.4684,3.5769,3.7016,3.8352,3.5131,3.3002,3.2151,0.0,0.0,0.0,0.0,0.0,0.0,0.0,0.0,0.0,0.0,0.0,0.0,0.0,0.0,0.0,0.0,0.0,0.0,0.0,0.0,0.0,0.0,0.0,0.0,0.0,0.0,0.0,0.0,0.0,0.0,0.0,0.0,0.0,0.0,0.0,0.0,0.0,0.0,0.0,0.0,0.0,0.0,0.0,0.0,0.0,0.0,0.0,0.0,0.0,0.0,0.0,0.0,0.0,0.0,0.0,0.0,0.0,0.0,0.0,0.0,0.0,0.0,0.0,0.0,0.0,0.0,0.0,0.0,0.0,0.0,0.0,0.0,0.0,0.0,0.0,0.0,0.0,0.0,0.0,0.0,0.0,0.0,0.0,0.0,0.0,0.0,0.0,0.0,0.0,0.0,0.0,0.0,0.0,0.0,0.0,0.0,0.0,0.0,0.0,0.0,0.0,0.0,0.0,0.0,0.0,0.0,0.0,0.0,4.0467,4.1309,4.0997,3.9506,3.7917,3.4993,0.0,0.0,0.0,0.0,0.0,0.0,0.0,0.0,0.0,0.0,0.0,0.0,0.0,0.0,0.0,0.0,0.0,0.0,0.0,0.0,0.0,0.0,0.0,0.0,0.0,0.0,0.0,0.0,0.0,0.0,0.0,0.0,0.0,0.0,0.0,0.0,0.0,0.0,0.0,0.0,0.0,0.0,0.0,0.0,0.0,0.0,0.0,0.0,0.0,0.0,0.0,0.0,0.0,0.0,0.0,0.0,0.0,0.0,0.0,0.0,0.0,0.0,0.0,0.0,0.0,0.0,0.0,0.0,0.0,0.0,0.0,0.0,0.0,0.0,0.0,0.0,0.0,0.0,0.0,0.0,0.0,0.0,0.0,0.0,0.0,0.0,0.0,0.0,0.0,0.0,0.0,0.0,0.0,0.0,0.0,0.0,0.0,0.0,0.0,0.0,0.0,0.0,0.0,0.0,0.0,0.0,0.0,0.0,0.0,4.284,4.4245,4.4163,4.2593,3.921,3.6447,0.0,0.0,0.0,0.0,0.0,0.0,0.0,0.0,0.0,0.0,0.0,0.0,0.0,0.0,0.0,0.0,0.0,0.0,0.0,0.0,0.0,0.0,0.0,0.0,0.0,0.0,0.0,0.0,0.0,0.0,0.0,0.0,0.0,0.0,0.0,0.0,0.0,0.0,0.0,0.0,0.0,0.0,0.0,0.0,0.0,0.0,0.0,0.0,0.0,0.0,0.0,0.0,0.0,0.0,0.0,0.0,0.0,0.0,0.0,0.0,0.0,0.0,0.0,0.0,0.0,0.0,0.0,0.0,0.0,0.0,0.0,0.0,0.0,0.0,0.0,0.0,0.0,0.0,0.0,0.0,0.0,0.0,0.0,0.0,0.0,0.0,0.0,0.0,0.0,0.0,0.0,0.0,0.0,0.0,0.0,0.0,0.0,0.0,0.0,0.0,0.0,0.0,0.0,0.0,0.0,0.0,0.0,0.0,4.2438,4.5081,4.7303,4.7484,4.5451,4.1625,3.8688,0.0,0.0,0.0,0.0,0.0,0.0,0.0,0.0,0.0,0.0,0.0,0.0,0.0,0.0,0.0,0.0,0.0,0.0,0.0,0.0,0.0,0.0,0.0,0.0,0.0,0.0,0.0,0.0,0.0,0.0,0.0,0.0,0.0,0.0,0.0,0.0,0.0,0.0,0.0,0.0,0.0,0.0,0.0,0.0,0.0,0.0,0.0,0.0,0.0,0.0,0.0,0.0,0.0,0.0,0.0,0.0,0.0,0.0,0.0,0.0,0.0,0.0,0.0,0.0,0.0,0.0,0.0,0.0,0.0,0.0,0.0,0.0,0.0,0.0,0.0,0.0,0.0,0.0,0.0,0.0,0.0,0.0,0.0,0.0,0.0,0.0,0.0,0.0,0.0,0.0,0.0,0.0,0.0,0.0,0.0,0.0,0.0,0.0,0.0,0.0,0.0,0.0,0.0,0.0,0.0,0.0,0.0,0.0,4.491,4.7015,5.0052,5.0372,4.7742,4.4452,4.1233,0.0,0.0,0.0,0.0,0.0,0.0,0.0,0.0,0.0,0.0,0.0,0.0,0.0,0.0,0.0,0.0,0.0,0.0,0.0,0.0,0.0,0.0,0.0,0.0,0.0,0.0,0.0,0.0,0.0,0.0,0.0,0.0,0.0,0.0,0.0,0.0,0.0,0.0,0.0,0.0,0.0,0.0,0.0,0.0,0.0,0.0,0.0,0.0,0.0,0.0,0.0,0.0,0.0,0.0,0.0,0.0,0.0,0.0,0.0,0.0,0.0,0.0,0.0,0.0,0.0,0.0,0.0,0.0,0.0,0.0,0.0,0.0,0.0,0.0,0.0,0.0,0.0,0.0,0.0,0.0,0.0,0.0,0.0,0.0,0.0,0.0,0.0,0.0,0.0,0.0,0.0,0.0,0.0,0.0,0.0,0.0,0.0,0.0,0.0,0.0,0.0,0.0,0.0,0.0,0.0,0.0,0.0,0.0,4.5803,4.8608,5.0295,5.0276,4.8419,4.5547,4.2393,0.0,0.0,0.0,0.0,0.0,0.0,0.0,0.0,0.0,0.0,0.0,0.0,0.0,0.0,0.0,0.0,0.0,0.0,0.0,0.0,0.0,0.0,0.0,0.0,0.0,0.0,0.0,0.0,0.0,0.0,0.0,0.0,0.0,0.0,0.0,0.0,0.0,0.0,0.0,0.0,0.0,0.0,0.0,0.0,0.0,0.0,0.0,0.0,3.0346,0.0,0.0,0.0,0.0,0.0,0.0,0.0,0.0,0.0,0.0,0.0,0.0,0.0,0.0,0.0,0.0,0.0,0.0,0.0,0.0,0.0,0.0,0.0,0.0,0.0,0.0,0.0,0.0,0.0,0.0,0.0,0.0,0.0,0.0,0.0,0.0,0.0,0.0,0.0,0.0,0.0,0.0,0.0,0.0,0.0,0.0,0.0,0.0,0.0,0.0,0.0,0.0,0.0,0.0,0.0,0.0,0.0,0.0,0.0,4.8327,5.074,5.1762,5.159,5.0179,4.7507,4.4037,0.0,0.0,0.0,0.0,0.0,0.0,0.0,0.0,0.0,0.0,0.0,0.0,0.0,0.0,0.0,0.0,0.0,0.0,0.0,0.0,0.0,0.0,0.0,0.0,0.0,0.0,0.0,0.0,0.0,0.0,0.0,0.0,0.0,0.0,0.0,0.0,0.0,0.0,0.0,0.0,0.0,0.0,0.0,0.0,0.0,0.0,0.0,0.0,0.0,0.0,0.0,0.0,0.0,0.0,0.0,0.0,0.0,0.0,0.0,0.0,0.0,0.0,0.0,0.0,0.0,0.0,0.0,0.0,0.0,0.0,0.0,0.0,0.0,0.0,0.0,0.0,0.0,0.0,0.0,0.0,0.0,0.0,0.0,0.0,0.0,0.0,0.0,0.0,0.0,0.0,0.0,0.0,0.0,0.0,0.0,0.0,0.0,0.0,0.0,0.0,0.0,0.0,0.0,0.0,0.0,0.0,0.0,4.7262,5.0602,5.2961,5.3546,5.3235,5.201,4.9474,4.5661,4.0574,0.0,0.0,0.0,0.0,0.0,0.0,0.0,0.0,0.0,0.0,0.0,0.0,0.0,0.0,0.0,0.0,0.0,0.0,0.0,0.0,0.0,0.0,0.0,0.0,0.0,0.0,0.0,0.0,0.0,0.0,0.0,0.0,0.0,0.0,0.0,0.0,0.0,0.0,3.1959,3.4824,0.0,0.0,0.0,0.0,0.0,0.0,0.0,0.0,3.2835,0.0,0.0,0.0,0.0,0.0,0.0,0.0,0.0,0.0,0.0,0.0,0.0,0.0,0.0,0.0,0.0,0.0,0.0,0.0,0.0,0.0,0.0,0.0,0.0,0.0,0.0,0.0,0.0,0.0,0.0,0.0,0.0,0.0,0.0,0.0,0.0,0.0,0.0,0.0,0.0,0.0,0.0,0.0,0.0,0.0,0.0,0.0,0.0,0.0,0.0,0.0,0.0,0.0,0.0,0.0,0.0,4.7584,4.7212,4.9462,5.4524,5.4375,5.3501,5.201,5.0083,4.6559,4.1383,0.0,0.0,0.0,0.0,0.0,0.0,0.0,0.0,0.0,0.0,0.0,0.0,0.0,0.0,0.0,0.0,0.0,0.0,0.0,0.0,0.0,0.0,0.0,0.0,0.0,0.0,0.0,0.0,0.0,0.0,0.0,0.0,0.0,0.0,0.0,0.0,0.0,0.0,0.0,3.8167,3.975,0.0,0.0,0.0,0.0,0.0,0.0,0.0,0.0,3.2754,0.0,0.0,0.0,0.0,0.0,0.0,0.0,0.0,0.0,0.0,0.0,0.0,0.0,0.0,0.0,0.0,0.0,0.0,0.0,0.0,0.0,0.0,0.0,0.0,0.0,0.0,0.0,0.0,0.0,0.0,0.0,0.0,0.0,0.0,0.0,0.0,0.0,0.0,0.0,0.0,0.0,0.0,0.0,0.0,0.0,0.0,0.0,0.0,0.0,0.0,0.0,0.0,0.0,0.0,0.0,4.715,4.9136,5.1863,5.5573,5.4895,5.4116,5.3293,4.9753,4.6062,0.0,0.0,0.0,0.0,0.0,0.0,0.0,0.0,0.0,0.0,0.0,0.0,0.0,0.0,0.0,0.0,0.0,0.0,0.0,0.0,0.0,0.0,0.0,0.0,0.0,0.0,0.0,0.0,0.0,0.0,0.0,0.0,0.0,0.0,0.0,0.0,0.0,0.0,0.0,0.0,3.9612,4.094,4.1091,0.0,0.0,0.0,0.0,0.0,0.0,3.4966,3.3641,0.0,0.0,0.0,0.0,0.0,0.0,0.0,0.0,0.0,0.0,0.0,0.0,0.0,0.0,0.0,0.0,0.0,0.0,0.0,0.0,0.0,0.0,0.0,0.0,0.0,0.0,0.0,0.0,0.0,0.0,0.0,0.0,0.0,0.0,0.0,0.0,0.0,0.0,0.0,0.0,0.0,0.0,0.0,0.0,0.0,0.0,0.0,0.0,0.0,0.0,0.0,0.0,0.0,0.0,0.0,4.6287,5.0826,5.4295,5.6519,5.56,5.4893,5.4633,4.961,4.5637,0.0,0.0,0.0,0.0,0.0,0.0,0.0,0.0,0.0,0.0,0.0,0.0,0.0,0.0,0.0,0.0,0.0,0.0,0.0,0.0,0.0,0.0,0.0,0.0,0.0,0.0,0.0,0.0,0.0,0.0,0.0,0.0,0.0,0.0,0.0,0.0,0.0,0.0,0.0,0.0,0.0,4.2133,4.2871,4.106,0.0,0.0,0.0,0.0,3.8722,3.754,0.0,0.0,0.0,0.0,0.0,0.0,0.0,0.0,0.0,0.0,0.0,0.0,0.0,0.0,0.0,0.0,0.0,0.0,0.0,0.0,0.0,0.0,0.0,0.0,0.0,0.0,0.0,0.0,0.0,0.0,0.0,0.0,0.0,0.0,0.0,0.0,0.0,0.0,0.0,0.0,0.0,0.0,0.0,0.0,0.0,0.0,0.0,0.0,0.0,0.0,0.0,0.0,0.0,0.0,0.0,0.0,4.6611,5.0371,5.4021,5.7474,5.6831,5.5962,5.5105,5.0591,4.6499,0.0,0.0,0.0,0.0,0.0,0.0,0.0,0.0,0.0,0.0,0.0,0.0,0.0,0.0,0.0,0.0,0.0,0.0,0.0,0.0,0.0,0.0,0.0,0.0,0.0,0.0,0.0,0.0,0.0,0.0,0.0,0.0,0.0,0.0,0.0,0.0,0.0,0.0,0.0,0.0,0.0,4.4483,4.3191,4.2246,4.1667,0.0,0.0,4.1297,4.182,4.2444,0.0,0.0,0.0,0.0,0.0,0.0,0.0,0.0,0.0,0.0,0.0,0.0,0.0,0.0,0.0,0.0,0.0,0.0,0.0,0.0,0.0,0.0,0.0,0.0,0.0,0.0,0.0,0.0,0.0,0.0,0.0,0.0,0.0,0.0,0.0,0.0,0.0,0.0,0.0,0.0,0.0,0.0,0.0,0.0,0.0,0.0,0.0,0.0,0.0,0.0,0.0,0.0,0.0,0.0,0.0,4.2747,4.7389,5.1796,5.5196,5.7548,5.7011,5.629,5.5475,5.0336,4.6052,0.0,0.0,0.0,0.0,0.0,0.0,0.0,0.0,0.0,0.0,0.0,0.0,0.0,0.0,0.0,0.0,0.0,0.0,0.0,0.0,0.0,0.0,0.0,0.0,0.0,0.0,0.0,0.0,0.0,0.0,0.0,0.0,0.0,0.0,0.0,0.0,0.0,0.0,0.0,0.0,0.0,0.0,4.51,4.4519,0.0,0.0,0.0,4.4192,4.4859,0.0,0.0,0.0,0.0,0.0,0.0,0.0,0.0,0.0,0.0,0.0,0.0,0.0,0.0,0.0,0.0,0.0,0.0,0.0,0.0,0.0,0.0,0.0,0.0,0.0,0.0,0.0,0.0,0.0,0.0,0.0,0.0,0.0,0.0,0.0,0.0,0.0,0.0,0.0,0.0,0.0,0.0,0.0,0.0,0.0,0.0,0.0,0.0,0.0,0.0,0.0,0.0,0.0,0.0,0.0,0.0,0.0,4.8051,5.33,5.6594,5.7744,5.7246,5.6581,5.5676,5.0428,0.0,0.0,0.0,0.0,0.0,0.0,0.0,0.0,0.0,0.0,0.0,0.0,0.0,0.0,0.0,0.0,0.0,0.0,0.0,0.0,0.0,0.0,0.0,0.0,0.0,0.0,0.0,2.3039,0.0,0.0,0.0,0.0,0.0,0.0,0.0,0.0,0.0,0.0,0.0,0.0,0.0,0.0,4.48,4.6546,4.6729,4.7185,0.0,0.0,4.7103,4.7728,4.7162,4.5271,0.0,0.0,0.0,0.0,0.0,0.0,0.0,0.0,0.0,0.0,0.0,0.0,0.0,0.0,0.0,0.0,0.0,0.0,0.0,0.0,0.0,0.0,0.0,0.0,0.0,0.0,0.0,0.0,0.0,0.0,0.0,0.0,0.0,0.0,0.0,0.0,0.0,0.0,0.0,0.0,0.0,0.0,0.0,0.0,0.0,0.0,0.0,0.0,0.0,0.0,0.0,0.0,0.0,0.0,0.0,4.8459,5.4345,5.7751,5.8581,5.7978,5.7073,5.584,5.1626,4.7158,0.0,0.0,0.0,0.0,0.0,0.0,0.0,0.0,0.0,0.0,0.0,0.0,0.0,0.0,0.0,0.0,0.0,0.0,0.0,0.0,0.0,0.0,0.0,0.0,0.0,0.0,0.0,0.0,0.0,0.0,0.0,0.0,0.0,0.0,0.0,0.0,0.0,0.0,0.0,0.0,0.0,4.5772,4.6605,4.8423,4.9963,0.0,0.0,5.0433,5.0381,5.1003,4.948,4.35,0.0,0.0,0.0,0.0,0.0,0.0,0.0,0.0,0.0,0.0,0.0,0.0,0.0,0.0,0.0,0.0,0.0,0.0,0.0,0.0,0.0,0.0,0.0,0.0,0.0,0.0,0.0,0.0,0.0,0.0,0.0,0.0,0.0,0.0,0.0,0.0,0.0,0.0,0.0,0.0,0.0,0.0,0.0,0.0,0.0,0.0,0.0,0.0,0.0,0.0,0.0,0.0,0.0,4.4201,4.8488,5.4105,5.7464,5.8315,5.7975,5.7179,5.5949,5.2536,4.8206,0.0,0.0,0.0,0.0,0.0,0.0,0.0,0.0,0.0,0.0,0.0,0.0,0.0,0.0,0.0,0.0,0.0,0.0,0.0,0.0,0.0,0.0,0.0,0.0,0.0,0.0,0.0,0.0,3.0624,3.104,2.9804,0.0,0.0,0.0,0.0,0.0,0.0,0.0,0.0,0.0,0.0,4.757,4.9871,5.1172,0.0,0.0,5.2936,5.2588,5.3101,5.1551,4.8984,4.5233,4.2194,0.0,0.0,0.0,0.0,0.0,0.0,0.0,0.0,0.0,0.0,0.0,0.0,0.0,0.0,0.0,0.0,0.0,0.0,0.0,0.0,0.0,0.0,0.0,0.0,0.0,0.0,0.0,0.0,0.0,0.0,0.0,0.0,0.0,0.0,0.0,0.0,0.0,0.0,0.0,0.0,0.0,0.0,0.0,0.0,0.0,0.0,0.0,0.0,0.0,0.0,0.0,0.0,4.4122,4.8612,5.4049,5.7446,5.863,5.8273,5.7463,5.6203,5.363,4.9703,0.0,0.0,0.0,0.0,0.0,0.0,0.0,0.0,0.0,0.0,0.0,0.0,0.0,0.0,0.0,0.0,0.0,0.0,0.0,0.0,0.0,0.0,0.0,0.0,0.0,0.0,0.0,0.0,3.2435,3.2222,3.0043,0.0,0.0,0.0,0.0,0.0,0.0,0.0,0.0,0.0,0.0,4.995,5.24,5.348,5.4298,5.5057,5.4184,5.3534,5.3788,5.1729,4.907,4.6026,0.0,0.0,0.0,0.0,0.0,0.0,0.0,0.0,0.0,0.0,0.0,0.0,0.0,0.0,0.0,0.0,0.0,0.0,0.0,0.0,0.0,0.0,0.0,0.0,0.0,0.0,0.0,0.0,0.0,0.0,2.4874,0.0,0.0,0.0,0.0,0.0,0.0,0.0,0.0,0.0,0.0,0.0,0.0,0.0,0.0,0.0,0.0,0.0,0.0,0.0,0.0,0.0,0.0,4.3678,4.8963,5.4369,5.8,5.9565,5.901,5.8084,5.6878,5.5005,5.1655,4.6564,0.0,0.0,0.0,0.0,0.0,0.0,0.0,0.0,0.0,0.0,0.0,0.0,0.0,0.0,0.0,0.0,0.0,0.0,0.0,0.0,0.0,0.0,0.0,0.0,0.0,0.0,3.0196,3.0423,3.0074,0.0,0.0,0.0,0.0,0.0,0.0,0.0,0.0,0.0,0.0,4.931,5.2941,5.3505,5.5028,5.5742,5.5009,5.418,5.3168,5.1969,5.194,5.0565,0.0,0.0,0.0,0.0,0.0,0.0,0.0,0.0,0.0,0.0,0.0,0.0,0.0,0.0,0.0,0.0,0.0,0.0,0.0,0.0,0.0,0.0,0.0,0.0,0.0,0.0,0.0,3.0947,2.8933,0.0,0.0,0.0,0.0,0.0,0.0,0.0,0.0,0.0,0.0,0.0,3.9322,3.9749,0.0,0.0,0.0,0.0,0.0,0.0,0.0,0.0,0.0,0.0,0.0,0.0,4.4333,4.8665,5.4559,5.8191,5.9379,5.8552,5.7714,5.6937,5.4857,5.1222,4.5835,0.0,0.0,0.0,0.0,0.0,0.0,0.0,0.0,0.0,0.0,0.0,0.0,0.0,0.0,0.0,0.0,0.0,0.0,0.0,0.0,0.0,0.0,0.0,0.0,0.0,3.1613,0.0,0.0,0.0,0.0,0.0,0.0,0.0,0.0,0.0,0.0,0.0,4.3568,4.804,5.048,5.2514,5.4384,5.4995,5.5601,0.0,0.0,0.0,0.0,0.0,0.0,0.0,0.0,0.0,0.0,0.0,0.0,0.0,0.0,4.8056,3.9978,3.8115,3.7972,3.85,0.0,0.0,0.0,0.0,0.0,0.0,0.0,0.0,0.0,0.0,0.0,0.0,0.0,0.0,3.3687,0.0,3.1435,0.0,0.0,0.0,0.0,0.0,0.0,0.0,0.0,3.9967,4.1986,4.3376,4.3519,4.3508,0.0,4.2423,3.9986,0.0,0.0,0.0,0.0,0.0,0.0,0.0,0.0,4.5462,4.8972,5.5091,5.8682,5.9356,5.8593,5.7786,5.7037,5.4812,5.1599,4.7314,4.4065,4.0842,0.0,0.0,0.0,0.0,0.0,0.0,0.0,0.0,0.0,0.0,0.0,0.0,0.0,0.0,0.0,0.0,0.0,0.0,0.0,0.0,0.0,0.0,0.0,3.393,0.0,0.0,0.0,0.0,0.0,0.0,0.0,0.0,0.0,4.0977,4.3924,4.76,5.1861,5.3563,5.4629,5.5306,0.0,0.0,0.0,0.0,0.0,0.0,0.0,5.0422,4.9809,4.9252,4.8936,4.9288,5.2214,5.4246,5.3228,0.0,0.0,4.5294,4.3426,4.3317,4.4136,4.4966,4.5488,4.539,4.7148,4.8738,0.0,0.0,0.0,0.0,0.0,0.0,0.0,0.0,3.6235,3.6318,0.0,3.4656,0.0,0.0,0.0,0.0,0.0,3.8112,0.0,0.0,4.513,4.6936,4.6629,4.6935,4.6919,4.6625,4.6971,4.6272,4.4466,3.9429,0.0,0.0,0.0,0.0,0.0,0.0,4.6945,5.0094,5.6127,5.9428,5.9711,5.9115,5.828,5.7197,5.4934,5.2812,5.0928,4.8874,4.6158,4.2521,3.7976,0.0,0.0,0.0,0.0,0.0,0.0,0.0,0.0,0.0,0.0,0.0,0.0,0.0,0.0,0.0,0.0,0.0,0.0,0.0,0.0,3.6336,0.0,0.0,0.0,0.0,0.0,0.0,0.0,0.0,0.0,0.0,4.5032,4.8476,5.2202,5.5197,0.0,0.0,0.0,0.0,5.7566,5.4278,5.3003,5.205,5.0761,5.2595,5.3527,5.1585,0.0,0.0,5.3766,5.5358,5.6011,5.3233,5.4753,5.6071,5.5695,5.2882,5.1314,5.1938,5.0809,5.0124,5.0833,5.251,5.4061,3.9633,0.0,0.0,0.0,0.0,3.874,3.942,4.0306,4.0491,4.0158,3.9398,3.8607,0.0,0.0,0.0,0.0,0.0,0.0,4.2902,4.5999,4.7264,4.8869,5.0805,5.0935,5.092,5.082,5.0937,5.0734,5.0202,4.8269,4.3715,3.6772,0.0,0.0,0.0,0.0,4.8823,5.3556,5.7326,5.9715,6.0683,5.9469,5.7785,5.5717,5.4585,5.3216,5.1613,5.0551,4.8399,4.4939,4.1742,0.0,0.0,0.0,0.0,0.0,0.0,0.0,0.0,0.0,0.0,0.0,0.0,0.0,0.0,0.0,0.0,0.0,0.0,0.0,3.7012,3.7955,3.7443,0.0,0.0,0.0,0.0,0.0,0.0,0.0,0.0,0.0,5.1879,5.2473,5.3267,0.0,0.0,5.4683,5.4867,5.5287,5.5867,5.6718,5.621,0.0,0.0,5.5873,5.522,5.47,5.591,5.6913,5.6862,5.8058,5.8724,5.7854,5.8481,5.9069,5.8856,5.6691,5.4779,5.4406,5.4643,5.5123,5.5601,5.6905,5.819,4.4183,4.3305,4.1922,4.1629,4.2146,4.2609,4.3324,4.4177,4.3966,4.3792,4.3545,4.2623,4.1696,4.0757,3.9346,0.0,0.0,0.0,4.6262,4.9864,5.0106,5.1433,5.3527,5.3492,5.3625,5.398,5.3842,5.3993,5.4368,5.3196,4.9746,4.4097,0.0,0.0,4.3857,4.7896,5.1884,5.5664,5.8404,5.9874,6.0064,5.8753,5.7205,5.5596,5.5165,5.4269,5.2789,5.2463,5.0878,4.7743,4.5176,4.177,0.0,0.0,0.0,0.0,0.0,0.0,0.0,0.0,0.0,0.0,0.0,2.9474,2.6429,0.0,0.0,0.0,3.7074,3.9491,3.9997,4.1072,0.0,0.0,0.0,0.0,0.0,0.0,0.0,4.7602,5.1276,5.4247,5.6057,5.6652,5.7025,5.7328,5.6731,5.6336,5.6405,0.0,5.7742,5.8495,5.8215,5.821,5.8971,5.8419,5.811,5.8634,5.9164,5.9683,6.0166,6.0863,6.1346,6.1402,6.1614,6.1717,6.1421,6.0276,5.8938,5.7536,5.8073,5.8795,5.8724,5.996,6.1181,4.8219,4.7954,4.4342,4.3428,4.4428,4.5474,4.6418,4.7202,4.6743,4.7047,4.7772,4.6445,4.5659,4.5256,4.3871,0.0,4.7541,4.8148,4.9923,5.2684,5.3269,5.4134,5.524,5.4983,5.5317,5.6127,5.5879,5.6242,5.7023,5.5321,5.4056,5.3255,5.0867,4.9699,4.9963,5.2875,5.5182,5.6644,5.9028,5.9737,5.8662,5.7462,5.6695,5.6338,5.6298,5.5594,5.4235,5.4281,5.3195,5.0675,4.8216,4.5212,4.1558,0.0,0.0,0.0,0.0,0.0,0.0,0.0,0.0,0.0,0.0,0.0,0.0,0.0,0.0,0.0,4.2696,0.0,4.4078,4.5098,0.0,0.0,0.0,4.3806,4.4635,4.7166,4.993,5.2681,0.0,0.0,5.8387,6.074,6.2293,6.1882,6.2058,6.1536,5.9646,6.0874,6.1598,5.9724,5.9502,5.95,5.9737,6.0408,6.1296,6.2301,6.3043,6.295,6.2946,6.3205,6.3487,6.3389,6.385,6.385,6.3184,6.3602,6.3685,6.1024,6.115,6.1403,6.0953,6.2218,6.321,5.0205,5.0402,4.9853,4.8787,4.7469,4.771,4.8094,4.8523,4.8686,4.8751,4.8759,4.8753,4.8583,4.837,4.8699,4.9337,5.0211,5.0786,5.1925,5.3446,5.3977,5.4778,5.5735,5.614,5.6411,5.6644,5.6805,5.7177,5.7682,5.7484,5.6566,5.5063,5.4627,5.3092,5.0619,5.1766,5.403,5.7251,5.7452,5.804,5.8919,5.7795,5.7028,5.6691,5.6236,5.5589,5.4731,5.3881,5.303,5.208,4.9747,4.6972,4.3692,3.8769,0.0,0.0,0.0,0.0,0.0,0.0,0.0,0.0,0.0,3.4716,3.0137,0.0,3.8654,0.0,4.6253,4.9266,4.8404,4.8116,0.0,0.0,4.6643,4.7396,4.9713,5.2094,5.4264,5.6121,5.8663,6.0866,6.2359,6.3154,6.4077,6.5313,6.2769,6.0708,6.0764,6.1067,6.1363,6.141,6.1653,6.1939,6.1915,6.2131,6.2633,6.341,6.3204,6.2905,6.2892,6.3101,6.3291,6.3344,6.3751,6.4,6.3869,6.4213,6.4304,6.3666,6.3634,6.3729,6.3539,6.4342,6.5,5.1519,5.1698,5.203,5.1368,5.0183,5.024,5.0379,5.0558,5.0431,5.043,5.0536,5.1102,5.1372,5.1428,5.1687,5.2178,5.2748,5.2841,5.3469,5.455,5.486,5.5418,5.6167,5.6704,5.7059,5.7294,5.766,5.8156,5.8759,5.8727,5.8409,5.7792,5.7703,5.6159,5.3314,5.3262,5.4506,5.7,5.7032,5.7549,5.8579,5.7999,5.6938,5.5469,5.5084,5.4011,5.207,5.1081,5.0104,4.9077,4.7758,4.5886,4.3336,4.007,3.7202,0.0,0.0,0.0,0.0,0.0,0.0,0.0,0.0,0.0,0.0,0.0,4.1015,4.3541,4.9168,5.1985,5.0351,5.1038,5.1424,5.0996,5.1747,5.3075,5.5163,5.7043,5.8856,6.0614,6.2335,6.3933,6.5316,6.5905,6.6554,6.7638,6.541,6.3558,6.3318,6.3005,6.2771,6.2864,6.3083,6.3243,6.3243,6.352,6.3858,6.4135,6.3704,6.3243,6.3243,6.3104,6.3158,6.3596,6.4043,6.4523,6.4955,6.5505,6.5851,6.5752,6.5933,6.5954,6.5548,6.5985,6.6486,5.2545,5.2563,5.26,5.2594,5.2625,5.2773,5.2737,5.2454,5.1958,5.2069,5.2638,5.3329,5.3775,5.4023,5.363,5.3954,5.479,5.4347,5.4662,5.5642,5.5701,5.6087,5.6731,5.7199,5.7669,5.8117,5.8536,5.9145,5.9976,5.9466,5.9528,6.0126,5.9503,5.8154,5.6143,5.5378,5.5431,5.6223,5.7027,5.7539,5.7792,5.7677,5.6252,5.3554,5.3459,5.1877,4.85,4.7862,4.6752,4.4955,4.4804,4.4127,4.2721,4.0999,3.9524,0.0,3.5476,0.0,0.0,0.0,0.0,0.0,0.0,0.0,0.0,4.2574,4.4167,4.6875,5.1894,5.4101,5.1892,5.4081,5.5354,5.478,5.6901,5.8975,6.0179,6.1519,6.3076,6.4896,6.5988,6.6832,6.7332,6.8242,6.8756,6.8603,6.788,6.6888,6.6214,6.5453,6.4864,6.4275,6.4183,6.4381,6.4368,6.4781,6.5165,6.5089,6.472,6.4214,6.4275,6.3827,6.3676,6.4458,6.4946,6.5353,6.6188,6.7009,6.7477,6.7215,6.7582,6.7664,6.7044,6.7201,6.7652,5.375,5.3789,5.4155,5.4352,5.4348,5.4688,5.3884,5.2387,5.2835,5.347,5.4182,5.4612,5.4822,5.4867,5.5061,5.5078,5.5045,5.4943,5.5248,5.5858,5.6333,5.7029,5.7918,5.8737,5.9177,5.9299,5.969,6.0142,6.0627,6.002,5.9304,5.8471,5.7445,5.6275,5.5054,0.0,0.0,0.0,5.626,5.6797,5.6295,5.5405,5.3895,5.178,5.2187,0.0,4.8129,4.8361,4.7813,4.6163,4.5912,0.0,0.0,0.0,0.0,0.0,0.0,0.0,0.0,0.0,0.0,0.0,4.6392,4.5717,4.5766,4.9367,5.2023,5.2803,5.5439,5.7122,5.7109,5.7603,5.8209,5.8907,5.9867,6.1033,6.2366,6.3858,6.5179,6.6069,6.7032,6.765,6.7892,6.8043,6.8194,6.8209,6.7556,6.7157,6.713,6.6717,6.6429,6.632,6.6105,6.6259,6.6306,6.6351,6.6382,6.6474,6.6443,6.6259,6.6166,6.6074,6.6043,6.631,6.6644,6.6806,6.7076,6.7454,6.7783,6.7686,6.7811,6.7895,6.7888,6.7988,6.8151,5.4124,0.0,5.4613,5.4812,0.0,5.5235,5.4803,5.3854,5.4154,5.4733,5.5501,5.594,5.6248,5.6467,5.6327,5.6378,5.6449,5.6171,5.6348,5.6896,5.7192,5.7587,5.8088,5.8713,5.9138,5.9378,5.972,6.0287,6.0897,6.0337,5.987,5.9516,5.8655,5.7825,5.7059,5.644,5.6054,5.5825,5.6663,5.7181,5.725,5.6455,5.4834,5.2472,5.2574,0.0,0.0,0.0,0.0,0.0,0.0,0.0,0.0,0.0,0.0,4.5817,4.4879,4.4968,4.6541,4.6988,4.8606,5.1836,5.3137,5.2852,5.0702,5.4413,5.6775,5.6611,5.8705,6.0116,6.0086,6.0513,6.1159,6.1928,6.2331,6.3169,6.4724,6.5427,6.6282,6.7484,6.8,6.8304,6.8667,6.8531,6.8471,6.8425,6.7879,6.7527,6.7747,6.7157,6.6613,6.6446,6.6427,6.6396,6.6443,6.672,6.6905,6.6874,6.6628,6.6413,6.6413,6.6136,6.6055,6.6473,6.6734,6.6922,6.7494,6.7959,6.825,6.8124,6.8344,6.8675,6.8912,6.8876,6.8945,5.4205,5.4327,5.4874,5.511,5.5113,5.5619,5.577,5.5665,0.0,0.0,0.0,5.7111,5.7537,5.7851,5.738,5.743,5.7851,5.738,5.7481,5.8052,5.8052,5.8102,5.8196,5.8554,5.8942,5.939,5.9735,6.0383,6.1222,6.0648,6.0674,6.1144,6.0569,5.9934,5.9395,5.8915,5.8269,5.7541,5.7304,5.752,5.8125,5.7658,5.5992,5.3147,5.3036,5.1376,4.8053,4.7828,4.726,4.6087,4.6127,4.6309,4.6634,4.7624,4.8636,4.9568,4.9705,5.075,5.3008,5.2882,5.3941,5.6792,5.8842,5.8767,5.5953,5.8436,5.9946,5.9523,6.1483,6.2557,6.2112,6.2833,6.3634,6.4276,6.4455,6.5233,6.6864,6.6939,6.7403,6.8676,6.8835,6.8886,6.9216,6.8906,6.8728,6.8637,6.8107,6.797,6.8131,6.756,6.6968,6.6753,6.6796,6.6581,6.655,6.695,6.7213,6.7336,6.6888,6.6457,6.6365,6.5996,6.5971,6.6818,6.6762,6.7187,6.7864,6.8406,6.8705,6.8462,6.8867,6.9385,6.9612,6.9569,6.9661,5.4615,5.5023,5.5896,5.6229,5.6231,5.7105,5.7213,5.6748,5.6521,5.6674,5.711,5.7587,5.7844,5.7901,5.7826,5.7826,5.7901,5.7826,5.8058,5.8585,5.8585,5.8836,5.9276,5.966,6.0087,6.0506,6.0941,6.1407,6.1771,6.1249,6.1267,6.1652,6.0771,5.9916,5.9447,5.9317,5.8961,5.8333,5.7307,5.658,5.6133,5.5607,5.4073,5.1626,5.2,5.0821,4.7961,4.8878,4.8918,4.7991,4.8468,4.9439,5.0891,5.0968,5.1764,5.3589,5.4017,5.4572,5.5396,5.6622,5.8476,6.0957,6.2078,6.211,6.1183,6.1458,6.1966,6.2402,6.3119,6.3555,6.3739,6.4203,6.486,6.5637,6.6236,6.6939,6.7822,6.869,6.9183,6.9093,6.95,6.9548,6.9204,6.8621,6.8248,6.8097,6.7905,6.7441,6.8045,6.8383,6.8508,6.8489,6.8458,6.8458,6.8274,6.8504,6.8489,6.8627,6.8442,6.8257,6.8212,6.8103,6.8087,6.8439,6.8344,6.8497,6.8695,6.8805,6.8834,6.8776,6.8945,6.9109,6.9414,6.9593,6.9933,5.5491,5.5968,5.6655,5.7043,5.7234,5.7636,5.765,5.7446,5.7538,5.7638,5.7849,5.8334,5.8517,5.8479,5.876,5.8885,5.8879,5.9091,5.9533,6.001,5.9714,5.9709,5.9885,5.9808,6.0105,6.0679,6.0679,6.1136,6.189,6.148,6.1506,6.1894,6.1092,6.0543,6.0326,5.9986,5.9699,5.9411,5.827,5.7524,5.7225,5.6692,5.5843,5.4716,5.4715,5.4002,5.2378,5.2926,5.2914,5.2175,5.2452,5.3056,5.4001,5.442,5.5152,5.6263,5.6944,5.7568,5.8136,5.9548,6.1082,6.2712,6.3319,6.379,6.4138,6.3529,6.3345,6.3898,6.4839,6.5562,6.5918,6.6569,6.7174,6.7566,6.7926,6.8345,6.893,6.9229,6.9572,6.9931,7.0007,7.0007,7.0051,6.9169,6.872,6.8945,6.859,6.8375,6.8471,6.8862,6.9082,6.8937,6.8904,6.8904,6.8904,6.8904,6.8904,6.8904,6.8904,6.8904,6.8904,6.8904,6.8904,6.8904,6.8904,6.8904,6.8904,6.8904,6.8904,6.8904,6.8904,6.9036,6.9327,6.9732,7.0235,5.6246,5.6812,5.7283,5.7787,5.8211,5.7917,5.7794,5.7835,5.8233,5.8374,5.8403,5.8865,5.9029,5.8998,5.9474,5.9687,5.9766,6.0285,6.0738,6.1115,6.0713,6.0512,6.0442,6.006,6.0178,6.0693,6.0539,6.0941,6.1728,6.1627,6.171,6.1921,6.1547,6.1222,6.1092,6.0648,6.0334,6.0151,5.921,5.8706,5.8679,5.8148,5.7826,5.7695,5.7422,5.7034,5.6574,5.6666,5.6605,5.6262,5.6208,5.6367,5.6714,5.7457,5.8064,5.8465,5.9186,5.997,6.0736,6.1722,6.2765,6.3846,6.4222,6.4874,6.5766,6.5193,6.4772,6.5221,6.6376,6.7269,6.7552,6.8333,6.9004,6.9004,6.9169,6.9393,6.9858,6.9632,6.9782,7.0679,7.0486,7.0426,7.059,6.9931,6.9379,6.953,6.9494,6.9174,6.894,6.9078,6.9136,6.8898,6.8845,6.8904,6.8904,6.8904,6.8904,6.8904,6.8904,6.8904,6.8904,6.8904,6.8904,6.8904,6.8904,6.8904,6.8904,6.8904,6.8904,6.8904,6.8904,6.9036,6.9429,6.989,7.0391,5.6436,5.7257,5.7807,5.8495,5.9126,5.8251,5.7862,5.7903,5.8237,5.8389,5.8494,5.8918,5.9102,5.9123,5.9509,5.9717,5.9801,6.0686,6.114,6.1235,6.114,6.1135,6.1135,6.1059,6.102,6.104,6.126,6.1409,6.1587,6.1811,6.1954,6.1992,6.1939,6.1633,6.117,6.104,6.0752,6.0203,5.9594,5.9317,5.9264,5.8732,5.8183,5.7739,5.7946,5.7974,5.7686,5.802,5.835,5.8616,5.8585,5.8793,5.9128,5.9538,5.9908,6.028,6.0714,6.1445,6.2577,6.2851,6.3612,6.5023,6.5495,6.5866,6.636,6.6516,6.6654,6.6801,6.7376,6.7849,6.7913,6.8607,6.9108,6.9213,6.9588,6.9947,7.0037,7.044,7.0799,7.0843,7.0799,7.0829,7.0783,7.029,6.9738,6.9333,6.9366,6.9194,6.8905,6.8955,6.9017,6.8707,6.8729,6.892,6.8935,6.8904,6.8904,6.8904,6.8904,6.8904,6.8904,6.8904,6.8904,6.8904,6.8904,6.8904,6.8904,6.8904,6.8904,6.8919,6.8963,6.9094,6.9631,7.0047,7.0419,5.7212,5.7806,5.8289,5.9038,5.9697,5.9061,5.8728,5.8749,5.8937,5.8974,5.8994,5.9202,5.9256,5.9186,5.9682,6.0007,6.0334,6.098,6.1602,6.2074,6.1843,6.1667,6.1642,6.1336,6.1258,6.1436,6.1391,6.1694,6.2251,6.2443,6.2313,6.2037,6.201,6.188,6.1633,6.1633,6.1521,6.1241,6.0692,6.0405,6.0248,5.915,5.8374,5.8227,5.8375,5.8464,5.8413,5.8618,5.8914,5.9263,5.9297,5.9545,6.0131,6.0643,6.1051,6.1405,6.1889,6.2748,6.4018,6.4124,6.4741,6.6186,6.6407,6.6701,6.724,6.7397,6.7625,6.8011,6.8324,6.8761,6.9522,6.9934,7.0111,7.0141,7.038,7.053,7.053,7.0739,7.0903,7.0903,7.0903,7.0903,7.0873,7.0679,7.026,6.9782,6.9842,6.9909,6.9655,6.9574,6.9503,6.9564,6.9558,6.9305,6.9027,6.8904,6.8904,6.8904,6.8904,6.8904,6.8904,6.8904,6.8904,6.8904,6.8904,6.8904,6.8904,6.8904,6.8904,6.8948,6.9138,6.9371,6.9976,7.0189,7.0433,5.775,5.8156,5.8752,5.9452,6.0144,5.9639,5.9398,5.9398,5.9398,5.9398,5.9422,5.9543,5.9564,5.9542,5.9859,6.0203,6.0572,6.1206,6.1912,6.2543,6.2335,6.2199,6.2169,6.1843,6.1702,6.1795,6.1695,6.207,6.2929,6.3069,6.2783,6.2305,6.2227,6.2148,6.201,6.201,6.201,6.1939,6.1398,6.1092,6.0909,5.9707,5.8871,5.8777,5.8884,5.8948,5.8938,5.9308,5.9648,5.9971,5.9977,6.032,6.1039,6.1506,6.1962,6.2483,6.3083,6.3867,6.4954,6.5115,6.5654,6.671,6.7029,6.7401,6.7886,6.811,6.8368,6.8822,6.9093,6.9614,7.0409,7.0805,7.0903,7.0903,7.0903,7.0903,7.0873,7.0903,7.0903,7.0903,7.0903,7.0903,7.0903,7.0843,7.0679,7.038,7.059,7.0728,7.0432,7.0161,7.0217,7.0281,7.0173,6.9921,6.9335,6.9243,6.915,6.8935,6.8904,6.8904,6.8904,6.8904,6.8904,6.8904,6.8904,6.8919,6.8933,6.8933,6.9109,6.9211,6.9414,6.9717,7.0147,7.0317,7.0518,5.775,5.8199,5.9071,5.9708,6.0144,5.9663,5.9422,5.9446,5.9422,5.9422,5.9519,5.9952,6.0144,6.0111,6.0078,6.0042,6.0235,6.1479,6.2113,6.229,6.2588,6.2752,6.2777,6.2706,6.2471,6.2094,6.231,6.2655,6.3007,6.3433,6.3377,6.2816,6.2738,6.2477,6.2141,6.2037,6.201,6.1958,6.145,6.1144,6.104,6.0465,5.9856,5.9511,5.951,5.956,5.962,6.0323,6.0835,6.1176,6.121,6.1576,6.2231,6.237,6.2833,6.3639,6.4308,6.4843,6.5255,6.5609,6.6084,6.6791,6.749,6.7968,6.8253,6.8492,6.8791,6.9203,6.9528,6.9844,7.0038,7.0593,7.0886,7.084,7.0856,7.0886,7.0856,7.0821,7.0903,7.0886,7.0903,7.0903,7.0903,7.0903,7.0873,7.0799,7.0873,7.0726,7.0375,7.052,7.0564,7.0417,7.0496,7.0613,6.9997,6.9704,6.9458,6.9119,6.8904,6.8904,6.8904,6.8904,6.8904,6.8904,6.8904,6.8919,6.8963,6.9138,6.9443,6.966,6.9904,7.0235,7.0377,7.0589,7.0701,5.7728,5.8179,5.8775,5.9327,5.9747,5.985,5.9903,5.9903,5.9903,5.9903,6.0021,6.0457,6.0526,6.0213,6.0529,6.0573,6.0619,6.1391,6.1899,6.2187,6.2597,6.2802,6.2802,6.2802,6.2706,6.2592,6.2643,6.289,6.326,6.3896,6.3933,6.3384,6.2973,6.2686,6.2496,6.2175,6.201,6.1984,6.1782,6.1659,6.1607,6.1066,6.0776,6.0877,6.0403,6.0126,5.9996,6.0849,6.1411,6.1624,6.233,6.292,6.3275,6.3701,6.406,6.4403,6.4662,6.5125,6.5805,6.6236,6.6826,6.7677,6.8002,6.828,6.8545,6.8569,6.8637,6.8963,6.9287,6.9587,6.9969,7.0511,7.0791,7.0612,7.0563,7.058,7.0514,7.0413,7.0318,7.0531,7.0756,7.0903,7.0903,7.0903,7.0903,7.0903,7.0903,7.0799,7.0673,7.079,7.0958,7.113,7.1062,7.0828,7.0659,7.0135,6.9704,6.9212,6.8904,6.8904,6.8904,6.8904,6.8904,6.8904,6.8904,6.9036,6.9123,6.9458,6.9761,7.0064,7.032,7.0377,7.0575,7.0603,7.0645,5.775,5.8113,5.8434,5.8839,5.9306,5.9624,5.975,5.975,5.9729,5.993,6.0227,6.0461,6.0474,6.0481,6.0649,6.0701,6.0677,6.124,6.1672,6.2022,6.2536,6.2902,6.3053,6.2902,6.2902,6.3089,6.3183,6.3351,6.3647,6.4409,6.4463,6.3959,6.3522,6.3137,6.2816,6.2417,6.2201,6.2063,6.201,6.201,6.1958,6.1607,6.1553,6.1768,6.1342,6.0953,6.0813,6.1635,6.2184,6.2477,6.3273,6.3912,6.4139,6.4746,6.5084,6.5112,6.5263,6.562,6.6245,6.6691,6.7284,6.8154,6.8291,6.8468,6.8946,6.8698,6.8655,6.8912,6.9274,6.9646,6.9909,7.0483,7.0805,7.0593,7.0479,7.0413,7.0397,7.0101,7.0101,7.038,7.0593,7.0726,7.0856,7.0903,7.0903,7.0903,7.0903,7.0903,7.0894,7.104,7.1211,7.1684,7.161,7.1353,7.1169,7.0846,6.9952,6.9382,6.9089,6.9027,6.9058,6.9027,6.9027,6.8965,6.9023,6.9153,6.9414,6.9746,7.0047,7.0348,7.0391,7.0391,7.0476,7.049,7.0575,5.7728,5.8049,5.8115,5.8391,5.8775,5.8903,5.8837,5.8927,5.8903,5.9458,6.0084,5.9843,6.0212,6.0703,6.0505,6.0285,6.0381,6.107,6.1514,6.1721,6.2508,6.3153,6.3576,6.3178,6.3178,6.3592,6.3956,6.4039,6.4063,6.4856,6.5031,6.4593,6.4391,6.3862,6.2869,6.2816,6.2522,6.2175,6.2063,6.201,6.201,6.1977,6.2069,6.2291,6.2214,6.2174,6.2095,6.2723,6.3167,6.3512,6.3996,6.442,6.4875,6.5421,6.5685,6.5787,6.6219,6.6528,6.6609,6.694,6.7428,6.7998,6.8228,6.8636,6.9267,6.9039,6.8875,6.9274,6.9585,6.9881,6.9996,7.055,7.0919,7.0838,7.0538,7.0348,7.0265,7.0084,7.0018,7.0282,7.0367,7.0561,7.0759,7.0854,7.0838,7.0838,7.0856,7.0903,7.0935,7.1138,7.1343,7.1533,7.163,7.155,7.1582,7.1507,7.0462,6.9582,6.9413,6.9304,6.9458,6.9489,6.9536,6.9489,6.9406,6.9536,6.9443,6.9775,7.0075,7.0334,7.0348,7.0377,7.0433,7.0476,7.056,5.76,5.7707,5.7984,5.8177,5.8349,5.8647,5.8797,5.8863,5.9137,5.9465,5.9822,6.031,6.0519,6.0508,6.0646,6.0553,6.0258,6.0757,6.1366,6.2123,6.2987,6.348,6.3701,6.3898,6.3873,6.377,6.3956,6.4099,6.4286,6.5,6.5266,6.5083,6.4698,6.4339,6.3894,6.3234,6.2686,6.2548,6.2175,6.201,6.2029,6.228,6.254,6.2843,6.3092,6.3459,6.3938,6.3824,6.3668,6.3667,6.4791,6.5604,6.5991,6.6219,6.6314,6.6331,6.6472,6.6595,6.6648,6.7001,6.7483,6.7971,6.8164,6.8624,6.9375,6.9031,6.9056,6.9632,6.9844,7.0064,7.0714,7.1016,7.1019,7.0543,7.0234,6.9995,6.9796,6.9787,6.9803,6.9737,7.0084,7.0331,7.0315,7.0413,7.0626,7.0612,7.0743,7.0903,7.0951,7.1178,7.1403,7.1437,7.1533,7.1542,7.1453,7.1411,7.0878,7.0309,7.0138,6.9874,6.9936,6.9967,7.0028,7.0026,6.9944,6.9843,6.9764,6.9869,7.0203,7.0221,7.0175,7.0246,7.0405,7.0476,7.0518,5.7491,5.7513,5.7771,5.7879,5.79,5.8222,5.8415,5.8562,5.886,5.9274,5.9827,6.022,6.0621,6.0772,6.0938,6.0935,6.0812,6.102,6.1754,6.27,6.2925,6.341,6.3977,6.4551,6.463,6.4351,6.4343,6.4488,6.4689,6.5144,6.5391,6.5312,6.5031,6.4698,6.4469,6.3809,6.3287,6.2842,6.2469,6.2362,6.2531,6.2775,6.3149,6.3651,6.4264,6.4798,6.5199,6.5341,6.5123,6.4807,6.5641,6.6321,6.6577,6.6567,6.6595,6.6623,6.6792,6.6865,6.6714,6.7302,6.781,6.8167,6.816,6.8574,6.9323,6.9158,6.9239,6.9891,7.0297,7.0637,7.1265,7.1483,7.1278,7.0874,7.0614,7.0161,6.9674,6.9466,6.9483,6.9454,6.9853,7.0084,7.0183,7.038,7.0577,7.0596,7.0743,7.0903,7.0951,7.1081,7.1194,7.1247,7.132,7.1252,7.1164,7.1158,7.1166,7.1062,7.0985,7.0691,7.0582,7.0582,7.0582,7.0642,7.0576,7.0369,7.0263,7.0249,7.0418,7.0243,7.0047,7.0204,7.0363,7.0345,7.0433,5.7491,5.7491,5.7491,5.7536,5.7557,5.7556,5.7814,5.8092,5.822,5.8967,5.9892,5.9955,6.0432,6.1379,6.1251,6.1323,6.17,6.1698,6.2266,6.3027,6.2964,6.3153,6.4459,6.4927,6.502,6.5048,6.4929,6.5077,6.5303,6.5373,6.5417,6.5391,6.5338,6.5109,6.4672,6.4495,6.3914,6.3182,6.2921,6.3033,6.3385,6.3506,6.3875,6.4668,6.55,6.5999,6.6176,6.6979,6.7201,6.6353,6.6524,6.6728,6.6735,6.6679,6.6707,6.6865,6.7269,6.7241,6.7129,6.7632,6.8297,6.8417,6.828,6.857,6.9453,6.9481,6.9568,7.0214,7.0837,7.1364,7.1697,7.183,7.1812,7.1709,7.1294,7.0682,6.9959,6.9418,6.9384,6.9445,6.9709,6.9998,7.0246,7.0544,7.0756,7.0775,7.0838,7.0903,7.0919,7.0967,7.0919,7.0975,7.1124,7.1112,7.1072,7.1267,7.1293,7.1313,7.1412,7.1445,7.1368,7.1383,7.1198,7.1227,7.1224,7.0987,7.0686,7.0521,7.0322,7.0063,7.0035,7.0221,7.0292,7.026,7.0462,5.7491,5.7491,5.7491,5.7491,5.7491,5.7491,5.7728,5.8113,5.85,5.9061,5.9735,6.0377,6.081,6.1227,6.1539,6.1686,6.189,6.2132,6.2291,6.2661,6.2852,6.3635,6.4718,6.4827,6.4961,6.5243,6.5128,6.4955,6.5092,6.5339,6.5397,6.5417,6.5391,6.5338,6.5136,6.4724,6.441,6.4044,6.362,6.3693,6.4068,6.4391,6.4902,6.5652,6.6289,6.6853,6.7302,6.7968,6.8249,6.7902,6.7423,6.7494,6.7821,6.7522,6.7456,6.7849,6.8102,6.8186,6.799,6.7905,6.8074,6.8419,6.841,6.8457,6.9155,6.9642,7.0126,7.0757,7.1335,7.1813,7.2219,7.2361,7.2355,7.2237,7.1575,7.0865,7.0581,7.0561,7.0436,6.9897,7.022,7.0283,7.0013,7.0275,7.0607,7.0642,7.0773,7.0903,7.0903,7.0903,7.0903,7.0903,7.0956,7.1002,7.1053,7.1341,7.1457,7.1493,7.1721,7.2132,7.2213,7.2414,7.2137,7.1921,7.192,7.1763,7.097,7.0467,7.0162,7.0116,7.0078,7.0263,7.0204,7.0204,7.0532,5.7491,5.7491,5.7491,5.7491,5.7513,5.7685,5.7986,5.8413,5.8882,5.9512,6.0151,6.0712,6.1251,6.1684,6.1999,6.2263,6.2449,6.2447,6.2779,6.3417,6.3806,6.4374,6.4835,6.4777,6.5319,6.6095,6.5588,6.5513,6.5741,6.557,6.5403,6.5417,6.5417,6.5417,6.5364,6.5083,6.4724,6.4508,6.435,6.4521,6.4944,6.5517,6.6059,6.6798,6.7485,6.8281,6.8852,6.9127,6.904,6.858,6.8158,6.8102,6.8411,6.8158,6.8102,6.8514,6.8721,6.8777,6.8616,6.8678,6.8965,6.9112,6.9042,6.9366,6.9864,7.0301,7.0779,7.1286,7.177,7.2206,7.2515,7.2613,7.2613,7.2497,7.1945,7.1411,7.115,7.1016,7.0806,7.0503,7.0687,7.0922,7.0069,7.0598,7.0749,7.0764,7.0791,7.0856,7.0903,7.0903,7.0962,7.1052,7.1025,7.106,7.1143,7.1353,7.1596,7.1629,7.2042,7.2483,7.2624,7.2952,7.2876,7.2583,7.2583,7.2366,7.1635,7.1008,7.0768,7.0689,7.0466,7.0235,7.0238,7.0246,7.056,5.7491,5.7491,5.7491,5.7536,5.7621,5.7965,5.837,5.8927,5.938,6.0016,6.0709,6.101,6.1587,6.2504,6.2408,6.2768,6.3129,6.274,6.338,6.4081,6.4619,6.4777,6.4727,6.5222,6.5993,6.6874,6.6333,6.6341,6.6455,6.595,6.5528,6.5475,6.5469,6.5443,6.5417,6.5364,6.5109,6.4828,6.5063,6.5399,6.5875,6.6545,6.7191,6.7811,6.8891,6.9598,6.9988,7.0164,6.977,6.8749,6.8654,6.8664,6.8692,6.8692,6.8692,6.8833,6.9255,6.9283,6.9054,6.9947,7.0412,7.0067,7.0231,7.0611,7.0735,7.0912,7.1268,7.1585,7.2253,7.2515,7.2584,7.2613,7.2613,7.2584,7.2526,7.2311,7.1864,7.1266,7.0871,7.0866,7.1459,7.1494,7.1335,7.144,7.18,7.1579,7.1528,7.1591,7.1591,7.1621,7.1577,7.1487,7.1387,7.1212,7.1282,7.1383,7.1626,7.1819,7.2311,7.2671,7.2577,7.2827,7.3169,7.3231,7.3199,7.2965,7.2527,7.2024,7.1524,7.1035,7.069,7.0463,7.0286,7.038,7.0575,5.7491,5.7491,5.7491,5.7685,5.7942,5.8049,5.8607,5.942,5.993,6.0318,6.0565,6.1275,6.1758,6.2069,6.2456,6.2672,6.2882,6.3002,6.3485,6.3878,6.3986,6.4466,6.4918,6.5533,6.6213,6.6801,6.7015,6.6847,6.6601,6.6614,6.6253,6.56,6.5835,6.5861,6.5495,6.5417,6.5364,6.5293,6.5621,6.6052,6.6551,6.7284,6.8001,6.8709,6.9644,7.0128,7.0267,7.0304,7.0164,6.9883,6.9489,6.9367,6.9648,6.9423,6.9423,6.9732,6.9976,7.017,7.0333,7.0309,7.0302,7.0495,7.0492,7.0299,7.0416,7.1206,7.1556,7.1806,7.2224,7.2584,7.2613,7.2613,7.2613,7.2613,7.2584,7.2526,7.2381,7.2236,7.1887,7.1744,7.2086,7.2346,7.1731,7.228,7.2495,7.2425,7.2368,7.2445,7.2325,7.2206,7.2146,7.1966,7.1893,7.1795,7.1855,7.1851,7.1803,7.1972,7.2449,7.2702,7.2578,7.2968,7.3401,7.3646,7.3722,7.347,7.3096,7.2413,7.1759,7.133,7.0964,7.0731,7.057,7.0609,7.0759,5.7491,5.7513,5.7685,5.8037,5.8505,5.8937,5.9571,6.0258,6.0801,6.1114,6.1379,6.1975,6.2287,6.2506,6.2771,6.2937,6.3112,6.3657,6.4035,6.4183,6.417,6.4609,6.5254,6.5575,6.5869,6.6533,6.6749,6.6743,6.6828,6.6927,6.6756,6.6227,6.6306,6.6149,6.5783,6.5593,6.5535,6.5726,6.6107,6.6545,6.7051,6.7758,6.8579,6.9315,6.997,7.0304,7.0304,7.0304,7.0304,7.022,6.9977,6.9939,7.0192,6.9995,7.0023,7.0238,7.0507,7.0636,7.0762,7.1003,7.1111,7.1216,7.1275,7.132,7.1379,7.1875,7.2061,7.2166,7.2398,7.2613,7.2613,7.2613,7.2613,7.2613,7.2613,7.2613,7.2613,7.2613,7.2526,7.2337,7.2777,7.2785,7.2775,7.3011,7.2747,7.2518,7.2265,7.2265,7.2146,7.2086,7.2445,7.2415,7.2445,7.2438,7.2502,7.2409,7.2085,7.2227,7.2477,7.256,7.2453,7.3077,7.3799,7.3829,7.3798,7.3842,7.3468,7.2722,7.2211,7.2112,7.1783,7.1244,7.1082,7.134,7.1528,5.7491,5.7536,5.8013,5.8481,5.9023,5.9942,6.0612,6.1071,6.1682,6.2001,6.2408,6.255,6.2696,6.3083,6.3107,6.3201,6.3508,6.4026,6.4352,6.4502,6.4764,6.5277,6.5823,6.5754,6.5857,6.6458,6.6773,6.6932,6.7058,6.7253,6.7305,6.7044,6.6802,6.6515,6.6227,6.6039,6.591,6.6048,6.6638,6.7002,6.7341,6.8045,6.8844,6.9578,7.0044,7.0286,7.0304,7.0304,7.0304,7.0304,7.0304,7.0304,7.0304,7.0378,7.0397,7.0415,7.0765,7.104,7.126,7.1649,7.1982,7.2165,7.2358,7.2519,7.2526,7.245,7.2497,7.2526,7.2613,7.2613,7.2613,7.2613,7.2613,7.2613,7.2613,7.2613,7.2613,7.2613,7.2555,7.2644,7.297,7.3092,7.3263,7.3439,7.2984,7.2608,7.2415,7.2222,7.2162,7.2222,7.2701,7.2648,7.2561,7.2177,7.2193,7.2228,7.1994,7.2111,7.2363,7.2401,7.2375,7.2906,7.3462,7.3723,7.3753,7.3782,7.3626,7.2914,7.2634,7.2785,7.2365,7.1591,7.1692,7.2144,7.2228,5.7491,5.7559,5.8428,5.8793,5.9038,6.0351,6.1018,6.1173,6.2076,6.2239,6.2047,6.2408,6.2694,6.2768,6.272,6.2939,6.3431,6.4015,6.4414,6.4804,6.528,6.5967,6.6347,6.6228,6.6468,6.6997,6.7345,6.7458,6.7447,6.7938,6.7912,6.7383,6.7436,6.7273,6.6773,6.6856,6.6668,6.6324,6.7099,6.7555,6.7569,6.8141,6.8882,6.9634,7.0044,7.0295,7.0314,7.0332,7.0304,7.0304,7.0304,7.0304,7.0378,7.0581,7.0747,7.082,7.1179,7.1507,7.175,7.1985,7.2255,7.2452,7.2548,7.2584,7.2613,7.2613,7.2613,7.2613,7.2613,7.2613,7.2613,7.2613,7.2613,7.2613,7.2613,7.2613,7.2613,7.2613,7.2648,7.2738,7.311,7.3451,7.3612,7.3816,7.3759,7.3578,7.3479,7.327,7.3133,7.315,7.3329,7.3057,7.2589,7.2087,7.1658,7.1705,7.1662,7.1753,7.1969,7.2259,7.2342,7.2657,7.303,7.3401,7.3646,7.3737,7.3396,7.2965,7.3026,7.3178,7.2542,7.186,7.2391,7.2907,7.2726,5.7621,5.7903,5.8843,5.9552,6.0147,6.1335,6.202,6.2266,6.2723,6.2819,6.2698,6.2843,6.2985,6.2985,6.2985,6.3248,6.3725,6.4398,6.4916,6.545,6.5816,6.6359,6.6835,6.6671,6.6766,6.7156,6.7645,6.7901,6.7691,6.8356,6.8434,6.8147,6.8063,6.754,6.6962,6.7022,6.6972,6.6686,6.726,6.7761,6.7715,6.8389,6.9024,6.9409,6.9998,7.0407,7.0679,7.0398,7.0482,7.0623,7.0454,7.036,7.0452,7.0802,7.1124,7.1069,7.147,7.1887,7.2093,7.2237,7.2452,7.2577,7.2613,7.2613,7.2613,7.2613,7.2613,7.2613,7.2613,7.2613,7.2613,7.2631,7.2613,7.2613,7.2631,7.2648,7.2631,7.2631,7.272,7.288,7.3322,7.3638,7.3813,7.4048,7.4402,7.4471,7.445,7.4227,7.3941,7.3821,7.3719,7.3483,7.3049,7.273,7.2176,7.1948,7.1777,7.1729,7.1843,7.2103,7.2325,7.2656,7.2937,7.3216,7.3432,7.3477,7.3462,7.3091,7.3338,7.3523,7.3072,7.2838,7.3324,7.3593,7.3411,5.7879,5.8331,5.9435,6.0314,6.1062,6.2235,6.2843,6.3131,6.3229,6.3253,6.3277,6.3277,6.3253,6.3322,6.3454,6.3763,6.4311,6.5093,6.5545,6.5986,6.6327,6.6752,6.7037,6.7219,6.7285,6.7667,6.7964,6.8115,6.8037,6.8539,6.8753,6.8596,6.8278,6.7775,6.7256,6.7505,6.7144,6.696,6.736,6.7812,6.8285,6.8748,6.9248,6.9425,7.0082,7.0754,7.1016,7.1007,7.0922,7.0978,7.0763,7.0473,7.0462,7.1069,7.1325,7.1215,7.1768,7.2093,7.2273,7.2416,7.2548,7.2613,7.2613,7.2671,7.2845,7.2903,7.2787,7.2642,7.2613,7.2613,7.2631,7.2702,7.2738,7.2791,7.2844,7.2844,7.2791,7.2809,7.2915,7.3163,7.3568,7.3831,7.4023,7.4162,7.4423,7.4621,7.4587,7.4287,7.4048,7.3911,7.382,7.3789,7.3602,7.3481,7.3045,7.2559,7.2325,7.206,7.2146,7.2341,7.2499,7.2687,7.2905,7.3092,7.2937,7.2968,7.3077,7.3293,7.3401,7.3477,7.3555,7.3768,7.4063,7.4256,7.4203,5.8284,5.8848,6.0287,6.0714,6.075,6.2427,6.2987,6.2793,6.3155,6.3277,6.3277,6.3299,6.3324,6.341,6.3785,6.4399,6.5031,6.5378,6.5724,6.6212,6.6861,6.725,6.7602,6.8273,6.8247,6.8341,6.8544,6.8408,6.8298,6.8617,6.8847,6.8795,6.8706,6.824,6.7596,6.8303,6.8166,6.7238,6.7935,6.8713,6.9064,6.9111,6.9545,7.0191,7.0753,7.1128,7.1325,7.1512,7.1681,7.1241,7.1156,7.0819,7.0546,7.104,7.1398,7.1652,7.2057,7.253,7.2541,7.2664,7.2729,7.2758,7.2729,7.2961,7.3193,7.3338,7.3164,7.2613,7.2613,7.2648,7.272,7.2915,7.3057,7.3245,7.3322,7.3269,7.3181,7.3128,7.3216,7.334,7.3708,7.4005,7.4231,7.4335,7.4443,7.4637,7.4706,7.4407,7.4205,7.4136,7.4031,7.4046,7.387,7.3685,7.3474,7.3061,7.2738,7.2409,7.2494,7.2593,7.2671,7.2765,7.2781,7.2874,7.2719,7.2734,7.2983,7.3185,7.3339,7.3478,7.3662,7.4133,7.4687,7.4823,7.4793,5.8775,5.9316,6.0552,6.1144,6.1313,6.2707,6.3203,6.3083,6.3181,6.3277,6.3277,6.3277,6.341,6.3741,6.4202,6.477,6.5335,6.5659,6.6047,6.6476,6.7158,6.7629,6.7962,6.8471,6.8785,6.8785,6.8785,6.8701,6.8591,6.8664,6.891,6.9154,6.9169,6.9013,6.8265,6.9173,6.8712,6.8085,6.809,6.8655,6.916,6.9286,6.9435,7.0127,7.0885,7.1372,7.1793,7.1962,7.2074,7.1709,7.1465,7.1034,7.0861,7.1179,7.1561,7.1934,7.2684,7.2972,7.2729,7.299,7.3106,7.328,7.3396,7.3687,7.3705,7.3618,7.3338,7.2642,7.2613,7.2702,7.2891,7.3075,7.3316,7.3527,7.3773,7.3545,7.3457,7.3533,7.3568,7.3691,7.386,7.4162,7.4439,7.4577,7.4646,7.4719,7.4826,7.4706,7.4598,7.461,7.4493,7.4365,7.4064,7.3778,7.3579,7.3272,7.3025,7.2747,7.2747,7.2827,7.2827,7.2874,7.289,7.2905,7.289,7.2936,7.2999,7.3076,7.3216,7.3478,7.3799,7.4209,7.4584,7.4853,7.4838,5.9285,5.9803,6.0839,6.1552,6.2071,6.2939,6.3277,6.3277,6.3277,6.3277,6.3277,6.3322,6.3609,6.4136,6.4549,6.5009,6.5594,6.594,6.6369,6.6797,6.718,6.765,6.8051,6.8513,6.868,6.8785,6.8785,6.8779,6.8758,6.8847,6.9029,6.9485,6.9423,6.9348,6.9405,6.9576,6.9326,6.8709,6.8551,6.9133,6.9843,6.9784,7.0084,7.062,7.1268,7.1915,7.2355,7.2664,7.2692,7.2517,7.2236,7.1973,7.1789,7.2127,7.2428,7.2777,7.3458,7.3658,7.3483,7.3571,7.3774,7.4024,7.4314,7.4459,7.3966,7.3821,7.3734,7.3251,7.2961,7.3147,7.3355,7.3544,7.3727,7.3931,7.4087,7.3755,7.3545,7.3726,7.3796,7.3778,7.3988,7.4387,7.4646,7.48,7.4869,7.4869,7.4886,7.4886,7.4949,7.4956,7.4921,7.4786,7.4804,7.438,7.3798,7.3552,7.326,7.3153,7.3122,7.3045,7.3029,7.2967,7.2952,7.2983,7.3091,7.2999,7.2999,7.303,7.3092,7.3416,7.3692,7.3982,7.4314,7.4629,7.4867,5.9805,6.0348,6.1329,6.2052,6.2574,6.3083,6.3277,6.3277,6.3277,6.3277,6.3277,6.3322,6.3785,6.444,6.4724,6.518,6.6026,6.609,6.6369,6.6626,6.6903,6.746,6.7946,6.8308,6.8492,6.8743,6.8785,6.8785,6.8785,6.8785,6.9071,6.9444,6.9589,6.9471,6.956,6.9857,6.997,6.9587,6.9505,7.0126,7.0861,7.1092,7.13,7.2322,7.2767,7.3002,7.3058,7.3404,7.3492,7.3367,7.3226,7.3066,7.2872,7.3194,7.3442,7.3691,7.4113,7.4336,7.4325,7.4325,7.443,7.4634,7.4924,7.5156,7.4547,7.4507,7.442,7.4151,7.3716,7.3689,7.4058,7.435,7.4292,7.4322,7.43,7.4139,7.3982,7.4023,7.4057,7.3918,7.4127,7.4559,7.4714,7.4852,7.4886,7.4886,7.4903,7.4903,7.5142,7.5224,7.5271,7.5314,7.5561,7.5179,7.426,7.3937,7.3876,7.3691,7.3599,7.343,7.3291,7.3214,7.3461,7.3337,7.343,7.3214,7.303,7.3045,7.3169,7.337,7.3601,7.383,7.4163,7.4524,7.4719,6.0252,6.1256,6.1645,6.2122,6.2646,6.3107,6.3277,6.3277,6.3277,6.3277,6.3277,6.3322,6.3829,6.4484,6.4745,6.5202,6.6004,6.6112,6.6262,6.6562,6.6946,6.7413,6.7883,6.8282,6.8659,6.8764,6.8785,6.8785,6.8785,6.8785,6.9092,6.9423,6.9754,7.031,7.0496,7.0401,7.046,7.0578,7.0421,7.0709,7.145,7.1573,7.1717,7.2419,7.3002,7.3058,7.317,7.3685,7.366,7.3552,7.3632,7.3653,7.3677,7.3972,7.4221,7.4416,7.485,7.508,7.5109,7.5156,7.5272,7.5697,7.593,7.5813,7.5185,7.5127,7.4866,7.4586,7.4325,7.4329,7.4473,7.4616,7.4609,7.4642,7.4542,7.4404,7.4318,7.4318,7.4266,7.411,7.437,7.4749,7.4834,7.4886,7.4886,7.4886,7.4903,7.4988,7.5261,7.5516,7.5597,7.5715,7.5946,7.5915,7.5075,7.4753,7.4522,7.4276,7.4061,7.3999,7.3922,7.4261,7.4368,7.4122,7.3861,7.3738,7.3553,7.3245,7.3169,7.3278,7.3463,7.3662,7.3997,7.4374,7.4509,6.0659,6.1653,6.206,6.2463,6.2843,6.3155,6.3277,6.3277,6.3277,6.3277,6.3299,6.3454,6.3939,6.4549,6.4922,6.531,6.594,6.6112,6.6219,6.6455,6.6797,6.7307,6.7756,6.8114,6.8408,6.868,6.8785,6.8785,6.8785,6.8785,6.9195,6.9671,7.0042,7.0574,7.0961,7.1108,7.1067,7.1241,7.1261,7.1183,7.2009,7.217,7.2382,7.2812,7.3283,7.3423,7.3488,7.3816,7.3885,7.3892,7.3982,7.4165,7.4295,7.4487,7.4821,7.5151,7.5475,7.5766,7.5795,7.5871,7.6017,7.6268,7.6384,7.6191,7.593,7.565,7.5272,7.5272,7.5,7.4861,7.5003,7.5175,7.5029,7.5011,7.4735,7.4577,7.4456,7.4404,7.437,7.43,7.4611,7.4852,7.4869,7.4903,7.5023,7.5057,7.5142,7.5278,7.5614,7.5836,7.601,7.6141,7.6269,7.6143,7.5904,7.5535,7.5121,7.4738,7.4584,7.4707,7.4769,7.5076,7.5046,7.4676,7.443,7.4338,7.4184,7.403,7.3553,7.3091,7.337,7.371,7.3723,7.4027,7.4178,6.1167,6.1369,6.264,6.3231,6.3251,6.3277,6.3277,6.3277,6.3277,6.3346,6.341,6.3741,6.4224,6.477,6.514,6.5594,6.5983,6.6112,6.6262,6.6519,6.6562,6.7052,6.7587,6.7988,6.8261,6.868,6.8785,6.8785,6.8805,6.891,6.9361,6.9857,7.0185,7.0513,7.0859,7.1265,7.1474,7.1554,7.178,7.2184,7.2534,7.2951,7.3373,7.3616,7.3741,7.3797,7.3853,7.3881,7.4026,7.4213,7.4647,7.4964,7.5267,7.5796,7.6106,7.6249,7.6326,7.6413,7.6442,7.6471,7.6471,7.649,7.6519,7.6413,7.6297,7.6017,7.5784,7.5871,7.5774,7.5679,7.5773,7.5796,7.5555,7.5334,7.5061,7.4854,7.4733,7.4439,7.4387,7.449,7.4697,7.4886,7.4886,7.4937,7.5125,7.5227,7.5346,7.5583,7.5934,7.6021,7.6158,7.6377,7.6469,7.6286,7.6124,7.6022,7.5718,7.529,7.5198,7.5365,7.5444,7.5507,7.5415,7.5169,7.5046,7.4984,7.4984,7.4922,7.4307,7.3753,7.3633,7.3773,7.3725,7.3895,7.4281,6.1394,6.1729,6.2518,6.3012,6.3255,6.3277,6.3277,6.3277,6.3324,6.3454,6.3741,6.3961,6.4465,6.5031,6.5335,6.5681,6.6026,6.6112,6.6283,6.6305,6.6412,6.701,6.7566,6.7904,6.8219,6.8638,6.8785,6.8805,6.8785,6.9029,6.932,6.9754,7.0411,7.0819,7.1191,7.1453,7.1494,7.1635,7.2062,7.258,7.2779,7.3359,7.3838,7.3974,7.3994,7.3994,7.3994,7.3994,7.4111,7.4344,7.4808,7.5259,7.5564,7.6048,7.65,7.6519,7.6519,7.6519,7.6519,7.6519,7.6519,7.6519,7.6519,7.6519,7.6442,7.6355,7.6336,7.6413,7.6268,7.6153,7.6047,7.6029,7.5868,7.578,7.5571,7.5307,7.5093,7.4612,7.4404,7.4646,7.4886,7.4916,7.4916,7.4954,7.5125,7.5414,7.555,7.5887,7.6221,7.6121,7.6124,7.6421,7.6542,7.6401,7.6278,7.6081,7.6149,7.5938,7.5971,7.6216,7.6221,7.606,7.6137,7.6137,7.5891,7.5661,7.5614,7.546,7.4984,7.4555,7.4558,7.442,7.4344,7.4624,7.506,6.1629,6.1966,6.2567,6.3012,6.3255,6.3277,6.3277,6.3277,6.3299,6.3476,6.3763,6.407,6.4552,6.5096,6.5508,6.5746,6.609,6.6112,6.6112,6.6133,6.639,6.6797,6.7243,6.7756,6.8072,6.8513,6.8785,6.8847,6.9071,6.934,6.9713,7.0165,7.0676,7.113,7.1413,7.1474,7.1494,7.1675,7.2069,7.2481,7.2818,7.3319,7.3818,7.3935,7.3994,7.3994,7.3994,7.3994,7.3994,7.4227,7.4653,7.5163,7.5431,7.5935,7.6444,7.6519,7.6519,7.6519,7.6519,7.6519,7.6519,7.6519,7.6519,7.6519,7.6519,7.6442,7.6442,7.6519,7.6519,7.6521,7.6412,7.634,7.6303,7.6218,7.6165,7.5932,7.5799,7.5376,7.5096,7.5296,7.5185,7.5125,7.4963,7.5006,7.5125,7.5448,7.5769,7.6138,7.6488,7.6421,7.6224,7.6421,7.6521,7.636,7.6197,7.6066,7.6183,7.6457,7.657,7.6637,7.6773,7.6599,7.6845,7.6983,7.6599,7.6291,7.623,7.6014,7.5737,7.5676,7.5739,7.5509,7.5138,7.5267,7.5551,6.1921,6.2055,6.2925,6.3277,6.3277,6.3277,6.3277,6.3277,6.3277,6.3346,6.3434,6.4331,6.4745,6.4941,6.5681,6.6047,6.609,6.609,6.6112,6.6155,6.6305,6.6604,6.6988,6.7481,6.8009,6.8324,6.868,6.9133,6.9465,6.9733,7.0144,7.0676,7.115,7.1393,7.1474,7.1494,7.1494,7.1635,7.2049,7.2469,7.2779,7.326,7.372,7.3916,7.3994,7.3994,7.3994,7.3994,7.3994,7.4266,7.4721,7.5048,7.5469,7.6067,7.635,7.6519,7.6519,7.6519,7.6519,7.6519,7.6519,7.6519,7.6519,7.6519,7.6519,7.6519,7.6519,7.6519,7.6519,7.6725,7.6842,7.6825,7.679,7.6775,7.6842,7.6764,7.6738,7.6504,7.6235,7.6096,7.5826,7.5617,7.5215,7.5151,7.5185,7.56,7.5954,7.6288,7.6604,7.6818,7.6637,7.6374,7.6421,7.6224,7.6104,7.5903,7.6037,7.6208,7.6488,7.6604,7.6818,7.6983,7.6983,7.6983,7.6983,7.686,7.6661,7.6691,7.6784,7.6706,7.6507,7.6291,7.5815,7.56,7.5714,6.21,6.2434,6.3058,6.3277,6.3277,6.3277,6.3277,6.3277,6.3299,6.3456,6.3829,6.4418,6.4789,6.5248,6.5832,6.6026,6.6112,6.6112,6.6112,6.6176,6.6348,6.6839,6.7265,6.7693,6.8177,6.8617,6.9008,6.9382,6.9671,7.0001,7.0635,7.1251,7.1413,7.1474,7.1494,7.1494,7.1494,7.1655,7.2109,7.2469,7.2866,7.3359,7.374,7.3935,7.3994,7.3994,7.3994,7.3994,7.3994,7.413,7.4788,7.5192,7.524,7.601,7.6519,7.6519,7.6519,7.6519,7.6519,7.6519,7.6519,7.6519,7.6519,7.6519,7.6519,7.6519,7.6519,7.6519,7.6519,7.6687,7.6855,7.6919,7.7071,7.7284,7.733,7.7337,7.733,7.7245,7.6976,7.6647,7.6377,7.5916,7.5514,7.5202,7.5288,7.5758,7.6135,7.6452,7.6733,7.6901,7.6769,7.6488,7.6355,7.6188,7.5836,7.5583,7.5786,7.5974,7.6305,7.6604,7.6851,7.6983,7.6983,7.6983,7.6983,7.6983,7.6952,7.6983,7.6983,7.6983,7.6798,7.6691,7.6538,7.6261,7.6094,6.2345,6.2634,6.3124,6.3277,6.3277,6.3277,6.3277,6.3277,6.3277,6.3476,6.3763,6.4199,6.4705,6.5118,6.5573,6.5896,6.6112,6.6112,6.6112,6.6176,6.6433,6.6733,6.7201,6.773,6.8193,6.8738,6.9278,6.9671,7.0062,7.0615,7.1272,7.1413,7.1494,7.1494,7.1494,7.1494,7.1494,7.1715,7.2049,7.2488,7.2945,7.3398,7.372,7.3974,7.3994,7.3994,7.3994,7.3994,7.3994,7.4111,7.4788,7.5192,7.5316,7.5981,7.65,7.6519,7.6519,7.6519,7.6519,7.6519,7.6519,7.6519,7.6519,7.6519,7.6519,7.6519,7.6519,7.6519,7.6538,7.6594,7.6743,7.6949,7.7365,7.7766,7.7773,7.7807,7.7778,7.7795,7.7514,7.7185,7.6766,7.6275,7.5856,7.5514,7.5378,7.5775,7.6135,7.6418,7.6686,7.6933,7.667,7.6288,7.6221,7.6138,7.5769,7.5566,7.587,7.6107,7.6307,7.6637,7.6884,7.6983,7.6983,7.6983,7.6983,7.6983,7.6983,7.6983,7.6983,7.6983,7.6983,7.6907,7.6814,7.6784,7.6681,6.2634,6.2701,6.3124,6.3277,6.3277,6.3277,6.3277,6.3277,6.3277,6.3299,6.3434,6.3807,6.4309,6.4857,6.5292,6.5746,6.5983,6.6112,6.6112,6.6112,6.6326,6.6626,6.7052,6.7392,6.8235,6.8821,6.9397,7.0062,7.0757,7.1164,7.1393,7.1494,7.1494,7.1494,7.1494,7.1494,7.1494,7.1615,7.2009,7.2469,7.2806,7.3182,7.3622,7.3935,7.3994,7.3994,7.3994,7.3994,7.3994,7.4266,7.4673,7.5144,7.5659,7.6029,7.6406,7.6519,7.6519,7.6519,7.6519,7.6519,7.6519,7.6519,7.6519,7.6519,7.6519,7.6519,7.6519,7.6519,7.6519,7.6575,7.6706,7.693,7.732,7.7715,7.7915,7.8105,7.8304,7.831,7.816,7.7783,7.7335,7.6874,7.6527,7.6233,7.618,7.6233,7.6419,7.6732,7.6854,7.7134,7.6764,7.6316,7.6285,7.6235,7.592,7.5819,7.6121,7.6307,7.6504,7.667,7.6933,7.6983,7.6983,7.6983,7.6983,7.6983,7.6983,7.6999,7.6999,7.6983,7.6983,7.6983,7.6983,7.6983,7.7054,6.2812,6.3146,6.3257,6.3277,6.3277,6.3277,6.3277,6.3277,6.3277,6.3324,6.3388,6.3807,6.4265,6.4724,6.5183,6.5638,6.6026,6.6112,6.6112,6.6219,6.6369,6.6669,6.7265,6.765,6.8429,6.9237,6.9877,7.0452,7.113,7.1413,7.1494,7.1494,7.1494,7.1494,7.1494,7.1494,7.1514,7.1534,7.2149,7.2481,7.2719,7.3378,7.3935,7.3994,7.3994,7.3994,7.3994,7.3994,7.3994,7.413,7.4808,7.5478,7.6151,7.6387,7.6481,7.6519,7.6519,7.6519,7.6519,7.6519,7.6519,7.6519,7.6519,7.6519,7.6519,7.6519,7.6519,7.6519,7.6538,7.6594,7.6687,7.693,7.7257,7.7652,7.8008,7.8372,7.8735,7.8729,7.8699,7.834,7.7873,7.7544,7.7215,7.7074,7.7041,7.7184,7.7399,7.7572,7.7528,7.7598,7.7083,7.6674,7.6515,7.6368,7.6101,7.6209,7.6557,7.6584,7.6703,7.6851,7.6983,7.6983,7.6983,7.6983,7.6983,7.7032,7.7048,7.7032,7.7016,7.7016,7.7065,7.7081,7.7016,7.6983,7.7134,6.3056,6.3277,6.3277,6.3277,6.3277,6.3277,6.3277,6.3277,6.3277,6.341,6.3609,6.3917,6.4265,6.4745,6.5183,6.5638,6.6047,6.609,6.6112,6.6219,6.6369,6.669,6.718,6.7714,6.834,6.9133,7.0103,7.0845,7.1332,7.1494,7.1494,7.1474,7.1474,7.1474,7.1494,7.1494,7.1494,7.1534,7.2282,7.264,7.2779,7.3457,7.3955,7.3994,7.3994,7.3994,7.3994,7.3994,7.3994,7.4208,7.4788,7.5393,7.5981,7.635,7.6481,7.6519,7.6519,7.6519,7.6519,7.6519,7.6519,7.6519,7.6519,7.6519,7.6519,7.6519,7.6519,7.6519,7.6519,7.6556,7.6556,7.6743,7.7135,7.7531,7.7807,7.8099,7.8518,7.8759,7.8759,7.8639,7.828,7.8071,7.7741,7.7472,7.7447,7.7396,7.7758,7.7853,7.7929,7.7861,7.7359,7.7045,7.6901,7.6662,7.6385,7.6621,7.7101,7.708,7.6868,7.6933,7.6983,7.6983,7.6983,7.6999,7.7048,7.713,7.713,7.7147,7.7081,7.7048,7.713,7.7181,7.7114,7.7032,7.7279,6.3277,6.3277,6.3277,6.3277,6.3277,6.3277,6.3277,6.3299,6.339,6.3609,6.3983,6.4136,6.4418,6.4811,6.5205,6.5659,6.5983,6.6069,6.6112,6.6112,6.6133,6.6519,6.6924,6.7349,6.8193,6.9112,7.0083,7.0682,7.115,7.117,7.1191,7.1352,7.1413,7.1433,7.1474,7.1494,7.1494,7.1715,7.2189,7.262,7.3036,7.3516,7.3857,7.3994,7.3994,7.3994,7.3994,7.3994,7.3994,7.4305,7.475,7.5335,7.5849,7.6274,7.6444,7.6519,7.6519,7.6519,7.6519,7.6519,7.6519,7.6519,7.6519,7.6519,7.6519,7.6519,7.6519,7.6519,7.6519,7.6519,7.6519,7.6594,7.6975,7.742,7.766,7.7971,7.8427,7.8789,7.8789,7.8789,7.8639,7.843,7.834,7.8022,7.7999,7.7919,7.789,7.7894,7.7873,7.7747,7.7456,7.7362,7.7359,7.7073,7.6695,7.687,7.7331,7.7163,7.6933,7.6966,7.6983,7.6983,7.6999,7.7032,7.7081,7.7163,7.7277,7.7326,7.7245,7.713,7.7098,7.7147,7.713,7.7147,7.7457,6.3277,6.3277,6.3277,6.3277,6.3277,6.3277,6.3277,6.3368,6.3697,6.3939,6.418,6.4835,6.5205,6.527,6.5313,6.5659,6.6047,6.6112,6.6112,6.6112,6.6112,6.6412,6.6861,6.7392,6.8277,6.9175,6.996,7.0315,7.0744,7.0642,7.0662,7.0988,7.0981,7.117,7.1474,7.1494,7.1534,7.1756,7.2189,7.2699,7.2937,7.3398,7.3877,7.3994,7.3994,7.3994,7.3994,7.3994,7.3994,7.4247,7.4711,7.5259,7.5697,7.6124,7.635,7.6444,7.6444,7.6519,7.6519,7.6519,7.6519,7.6519,7.6519,7.6519,7.6519,7.6519,7.6519,7.6519,7.6519,7.6519,7.6519,7.6519,7.6818,7.7339,7.7689,7.8172,7.8662,7.8771,7.8789,7.8789,7.8729,7.8831,7.9051,7.8978,7.9118,7.9042,7.8863,7.8808,7.8312,7.7965,7.7492,7.7553,7.7584,7.7413,7.7024,7.6988,7.7243,7.7106,7.6983,7.6983,7.6983,7.6983,7.6999,7.7016,7.7081,7.7163,7.7294,7.7424,7.7359,7.7228,7.7081,7.7048,7.7065,7.7228,7.7554]},{"header":{"parameterUnit":"m.s-1","parameterCategory":1,"la1":31.0,"la2":29.5877,"lo1":-88.7671,"lo2":-86.6584,"dy":0.0162,"dx":0.0185,"nx":115,"ny":88,"refTime":"2025-03-01T06:00:00:Z","depth":0,"parameterNumber":3,"parameterNumberName":"V-component_of_WINDS"},"data":[0.0,0.0,0.0,0.0,0.0,0.0,0.0,0.0,0.0,0.0,0.0,0.0,0.0,0.0,0.0,0.0,0.0,0.0,0.0,0.0,0.0,0.0,0.0,0.0,0.0,0.0,0.0,0.0,0.0,0.0,0.0,0.0,0.0,0.0,0.0,0.0,0.0,0.0,0.0,0.0,0.0,0.0,0.0,0.0,0.0,0.0,0.0,0.0,0.0,0.0,0.0,0.0,0.0,0.0,0.0,0.0,0.0,0.0,0.0,0.0,0.0,0.0,0.0,0.0,0.0,0.0,0.0,0.0,0.0,0.0,0.0,0.0,0.0,0.0,0.0,0.0,0.0,0.0,0.0,0.0,0.0,0.0,0.0,0.0,0.0,0.0,0.0,0.0,0.0,0.0,0.0,0.0,0.0,0.0,0.0,0.0,0.0,0.0,0.0,0.0,0.0,0.0,0.0,0.0,0.0,0.0,0.0,0.0,0.0,0.0,0.0,0.0,0.0,0.0,0.0,0.0,0.0,0.0,0.0,0.0,0.0,0.0,0.0,0.0,0.0,0.0,0.0,0.0,0.0,0.0,0.0,0.0,0.0,0.0,0.0,0.0,0.0,0.0,0.0,0.0,0.0,0.0,0.0,0.0,0.0,0.0,0.0,0.0,0.0,0.0,0.0,0.0,0.0,0.0,0.0,0.0,0.0,0.0,0.0,0.0,0.0,0.0,0.0,0.0,0.0,0.0,0.0,0.0,0.0,0.0,0.0,0.0,0.0,0.0,0.0,0.0,0.0,0.0,0.0,0.0,0.0,0.0,0.0,0.0,0.0,0.0,0.0,0.0,0.0,0.0,0.0,0.0,0.0,0.0,0.0,0.0,0.0,0.0,0.0,0.0,0.0,0.0,0.0,0.0,0.0,0.0,0.0,0.0,0.0,0.0,0.0,0.0,0.0,0.0,0.0,0.0,0.0,0.0,0.0,0.0,0.0,0.0,0.0,0.0,0.0,0.0,0.0,0.0,0.0,0.0,0.0,0.0,0.0,0.0,0.0,0.0,0.0,0.0,0.0,0.0,0.0,0.0,0.0,0.0,0.0,0.0,0.0,0.0,0.0,0.0,0.0,0.0,0.0,0.0,0.0,0.0,0.0,0.0,0.0,0.0,0.0,0.0,0.0,0.0,0.0,0.0,0.0,0.0,0.0,0.0,0.0,0.0,0.0,0.0,0.0,0.0,0.0,0.0,0.0,0.0,0.0,0.0,0.0,0.0,0.0,0.0,0.0,0.0,0.0,0.0,0.0,0.0,0.0,0.0,0.0,0.0,0.0,0.0,0.0,0.0,0.0,0.0,0.0,0.0,0.0,0.0,0.0,0.0,0.0,0.0,0.0,0.0,0.0,0.0,0.0,0.0,0.0,0.0,0.0,0.0,0.0,0.0,0.0,0.0,0.0,0.0,0.0,0.0,0.0,0.0,0.0,0.0,0.0,0.0,0.0,0.0,0.0,0.0,0.0,0.0,0.0,0.0,0.0,0.0,0.0,0.0,0.0,0.0,0.0,0.0,0.0,0.0,0.0,0.0,0.0,0.0,0.0,0.0,0.0,0.0,0.0,0.0,0.0,0.0,0.0,0.0,0.0,0.0,0.0,0.0,0.0,0.0,0.0,0.0,0.0,0.0,0.0,0.0,0.0,0.0,0.0,0.0,0.0,0.0,0.0,0.0,0.0,0.0,0.0,0.0,0.0,0.0,0.0,0.0,0.0,0.0,0.0,0.0,0.0,0.0,0.0,0.0,0.0,0.0,0.0,0.0,0.0,0.0,0.0,0.0,0.0,0.0,0.0,0.0,0.0,0.0,0.0,0.0,0.0,0.0,0.0,0.0,0.0,0.0,0.0,0.0,0.0,0.0,0.0,0.0,0.0,0.0,0.0,0.0,0.0,0.0,0.0,0.0,0.0,0.0,0.0,0.0,0.0,0.0,0.0,0.0,0.0,0.0,0.0,0.0,0.0,0.0,0.0,0.0,0.0,0.0,0.0,0.0,0.0,0.0,0.0,0.0,0.0,0.0,0.0,0.0,0.0,0.0,0.0,0.0,0.0,0.0,0.0,0.0,0.0,0.0,0.0,0.0,0.0,0.0,0.0,0.0,0.0,0.0,0.0,0.0,0.0,0.0,0.0,0.0,0.0,0.0,0.0,0.0,0.0,0.0,0.0,0.0,0.0,0.0,0.0,0.0,0.0,0.0,0.0,0.0,0.0,0.0,0.0,0.0,0.0,0.0,0.0,0.0,0.0,0.0,0.0,0.0,0.0,0.0,0.0,0.0,0.0,0.0,0.0,0.0,0.0,0.0,0.0,0.0,0.0,0.0,0.0,0.0,0.0,0.0,0.0,0.0,0.0,0.0,0.0,0.0,0.0,0.0,0.0,0.0,0.0,0.0,0.0,0.0,0.0,0.0,0.0,0.0,0.0,0.0,0.0,0.0,0.0,0.0,0.0,0.0,0.0,0.0,0.0,0.0,0.0,0.0,0.0,0.0,0.0,0.0,0.0,0.0,0.0,0.0,0.0,0.0,0.0,0.0,0.0,0.0,0.0,0.0,0.0,0.0,0.0,0.0,0.0,0.0,0.0,0.0,0.0,0.0,0.0,0.0,0.0,0.0,0.0,0.0,0.0,0.0,0.0,0.0,0.0,0.0,0.0,0.0,0.0,0.0,0.0,0.0,0.0,0.0,0.0,0.0,0.0,0.0,0.0,0.0,0.0,0.0,0.0,0.0,0.0,0.0,0.0,0.0,0.0,0.0,0.0,0.0,0.0,0.0,0.0,0.0,0.0,0.0,0.0,0.0,0.0,0.0,0.0,0.0,0.0,0.0,0.0,0.0,0.0,0.0,0.0,0.0,0.0,0.0,0.0,0.0,0.0,0.0,0.0,0.0,0.0,0.0,0.0,0.0,0.0,0.0,0.0,0.0,0.0,0.0,0.0,0.0,0.0,0.0,0.0,0.0,0.0,0.0,0.0,0.0,0.0,0.0,0.0,0.0,0.0,0.0,0.0,0.0,0.0,0.0,0.0,0.0,0.0,0.0,0.0,0.0,0.0,0.0,0.0,0.0,0.0,0.0,0.0,0.0,0.0,0.0,0.0,0.0,0.0,0.0,0.0,0.0,0.0,0.0,0.0,0.0,0.0,0.0,0.0,0.0,0.0,0.0,0.0,0.0,0.0,0.0,0.0,0.0,0.0,0.0,0.0,0.0,0.0,0.0,0.0,0.0,0.0,0.0,0.0,0.0,0.0,0.0,0.0,0.0,0.0,0.0,0.0,0.0,0.0,0.0,0.0,0.0,0.0,0.0,0.0,0.0,0.0,0.0,0.0,0.0,0.0,0.0,0.0,0.0,0.0,0.0,0.0,0.0,0.0,0.0,0.0,0.0,0.0,0.0,0.0,0.0,0.0,0.0,0.0,0.0,0.0,0.0,0.0,0.0,0.0,0.0,0.0,0.0,0.0,0.0,0.0,0.0,0.0,0.0,0.0,0.0,0.0,0.0,0.0,0.0,0.0,0.0,0.0,0.0,0.0,0.0,0.0,0.0,0.0,0.0,0.0,0.0,0.0,0.0,0.0,0.0,0.0,0.0,0.0,0.0,0.0,0.0,0.0,0.0,0.0,0.0,0.0,0.0,0.0,0.0,0.0,0.0,0.0,0.0,0.0,0.0,0.0,0.0,0.0,0.0,0.0,0.0,0.0,0.0,0.0,0.0,0.0,0.0,0.0,0.0,0.0,0.0,0.0,0.0,0.0,0.0,0.0,0.0,0.0,0.0,0.0,0.0,0.0,0.0,0.0,0.0,0.0,0.0,0.0,0.0,0.0,0.0,0.0,0.0,0.0,0.0,0.0,0.0,0.0,0.0,0.0,0.0,0.0,0.0,0.0,0.0,0.0,0.0,0.0,0.0,0.0,0.0,0.0,0.0,0.0,0.0,0.0,0.0,0.0,0.0,0.0,0.0,0.0,0.0,0.0,0.0,0.0,0.0,0.0,0.0,0.0,0.0,0.0,0.0,0.0,0.0,0.0,0.0,0.0,0.0,0.0,0.0,0.0,0.0,0.0,0.0,0.0,0.0,0.0,0.0,0.0,0.0,0.0,0.0,0.0,0.0,0.0,0.0,0.0,0.0,0.0,0.0,0.0,0.0,0.0,0.0,0.0,0.0,0.0,0.0,0.0,0.0,0.0,0.0,0.0,0.0,0.0,0.0,0.0,0.0,0.0,0.0,0.0,0.0,0.0,0.0,1.7902,0.0,0.0,0.0,0.0,0.0,0.0,0.0,0.0,0.0,0.0,0.0,0.0,0.0,0.0,0.0,0.0,0.0,0.0,0.0,0.0,0.0,0.0,0.0,0.0,0.0,0.0,0.0,0.0,0.0,0.0,0.0,0.0,0.0,0.0,0.0,0.0,0.0,0.0,0.0,0.0,0.0,0.0,0.0,0.0,0.0,0.0,0.0,0.0,0.0,0.0,0.0,0.0,0.0,0.0,0.0,0.0,0.0,0.0,0.0,0.0,0.0,0.0,0.0,0.0,0.0,0.0,0.0,0.0,0.0,0.0,0.0,0.0,0.0,0.0,0.0,0.0,0.0,0.0,0.0,0.0,0.0,0.0,0.0,0.0,0.0,0.0,0.0,0.0,0.0,0.0,0.0,0.0,0.0,0.0,0.0,0.0,0.0,0.0,0.0,0.0,0.0,0.0,0.0,0.0,0.0,0.0,0.0,0.0,0.0,0.0,2.0117,1.9883,1.8663,1.8008,1.7988,0.0,0.0,0.0,0.0,0.0,0.0,0.0,0.0,0.0,0.0,0.0,0.0,0.0,0.0,0.0,0.0,0.0,0.0,0.0,0.0,0.0,0.0,0.0,0.0,0.0,0.0,0.0,0.0,0.0,0.0,0.0,0.0,0.0,0.0,0.0,0.0,0.0,0.0,0.0,0.0,0.0,0.0,0.0,0.0,0.0,0.0,0.0,0.0,0.0,0.0,0.0,0.0,0.0,0.0,0.0,0.0,0.0,0.0,0.0,0.0,0.0,0.0,0.0,0.0,0.0,0.0,0.0,0.0,0.0,0.0,0.0,0.0,0.0,0.0,0.0,0.0,0.0,0.0,0.0,0.0,0.0,0.0,0.0,0.0,0.0,0.0,0.0,0.0,0.0,0.0,0.0,0.0,0.0,0.0,0.0,0.0,0.0,0.0,0.0,0.0,0.0,0.0,0.0,0.0,0.0,0.0,0.0,0.0,0.0,0.0,0.0,0.0,1.9004,1.8253,1.7863,0.0,0.0,0.0,0.0,0.0,0.0,0.0,0.0,0.0,0.0,0.0,0.0,0.0,0.0,0.0,0.0,0.0,0.0,0.0,0.0,0.0,0.0,0.0,0.0,0.0,0.0,0.0,0.0,0.0,0.0,0.0,0.0,0.0,0.0,0.0,0.0,0.0,0.0,0.0,0.0,0.0,0.0,0.0,0.0,0.0,0.0,0.0,0.0,0.0,0.0,0.0,0.0,0.0,0.0,0.0,0.0,0.0,0.0,0.0,0.0,0.0,0.0,0.0,0.0,0.0,0.0,0.0,0.0,0.0,0.0,0.0,0.0,0.0,0.0,0.0,0.0,0.0,0.0,0.0,0.0,0.0,0.0,0.0,0.0,0.0,0.0,0.0,0.0,0.0,0.0,0.0,0.0,0.0,0.0,0.0,0.0,0.0,0.0,0.0,0.0,0.0,0.0,0.0,0.0,0.0,0.0,0.0,0.0,0.0,0.0,1.9716,2.0498,2.0,0.0,1.7614,0.0,0.0,0.0,0.0,0.0,0.0,0.0,0.0,0.0,0.0,0.0,0.0,0.0,0.0,0.0,0.0,0.0,0.0,0.0,0.0,0.0,0.0,0.0,0.0,0.0,0.0,0.0,0.0,0.0,0.0,0.0,0.0,0.0,0.0,0.0,0.0,0.0,0.0,0.0,0.0,0.0,0.0,0.0,0.0,0.0,0.0,0.0,0.0,0.0,0.0,0.0,0.0,0.0,0.0,0.0,0.0,0.0,0.0,0.0,0.0,0.0,0.0,0.0,0.0,0.0,0.0,0.0,0.0,0.0,0.0,0.0,0.0,0.0,0.0,0.0,0.0,0.0,0.0,0.0,0.0,0.0,0.0,0.0,0.0,0.0,0.0,0.0,0.0,0.0,0.0,0.0,0.0,0.0,0.0,0.0,0.0,0.0,0.0,0.0,0.0,0.0,0.0,0.0,0.0,0.0,0.0,0.0,0.0,0.0,0.0,0.0,2.0586,1.9912,1.8993,0.0,0.0,0.0,0.0,0.0,0.0,0.0,0.0,0.0,0.0,0.0,0.0,0.0,0.0,0.0,0.0,0.0,0.0,0.0,0.0,0.0,0.0,0.0,0.0,0.0,0.0,0.0,0.0,0.0,0.0,0.0,0.0,0.0,0.0,0.0,0.0,0.0,0.0,0.0,0.0,0.0,0.0,0.0,0.0,0.0,0.0,0.0,0.0,0.0,0.0,0.0,0.0,0.0,0.0,0.0,0.0,0.0,0.0,0.0,0.0,0.0,0.0,0.0,0.0,0.0,0.0,0.0,0.0,0.0,0.0,0.0,0.0,0.0,0.0,0.0,0.0,0.0,0.0,0.0,0.0,0.0,0.0,0.0,0.0,0.0,0.0,0.0,0.0,0.0,0.0,0.0,0.0,0.0,0.0,0.0,0.0,0.0,0.0,0.0,0.0,0.0,0.0,0.0,0.0,0.0,0.0,0.0,0.0,0.0,0.0,1.9053,0.0,2.0507,1.9862,1.8887,1.7695,0.0,0.0,0.0,0.0,0.0,0.0,0.0,0.0,0.0,0.0,0.0,0.0,0.0,0.0,0.0,0.0,0.0,0.0,0.0,0.0,0.0,0.0,0.0,0.0,0.0,0.0,0.0,0.0,0.0,0.0,0.0,0.0,0.0,0.0,0.0,0.0,0.0,0.0,0.0,0.0,0.0,0.0,0.0,0.0,0.0,0.0,0.0,0.0,0.0,0.0,0.0,0.0,0.0,0.0,0.0,0.0,0.0,0.0,0.0,0.0,0.0,0.0,0.0,0.0,0.0,0.0,0.0,0.0,0.0,0.0,0.0,0.0,0.0,0.0,0.0,0.0,0.0,0.0,0.0,0.0,0.0,0.0,0.0,0.0,0.0,0.0,0.0,0.0,0.0,0.0,0.0,0.0,0.0,0.0,0.0,0.0,0.0,0.0,0.0,0.0,0.0,0.0,0.0,0.0,0.0,0.0,0.0,0.0,0.0,1.9026,1.9259,2.0566,2.0108,1.8888,0.0,0.0,0.0,0.0,0.0,0.0,0.0,0.0,0.0,0.0,0.0,0.0,0.0,0.0,0.0,0.0,0.0,0.0,0.0,0.0,0.0,0.0,0.0,0.0,0.0,0.0,0.0,0.0,0.0,0.0,0.0,0.0,0.0,0.0,0.0,0.0,0.0,0.0,0.0,0.0,0.0,0.0,0.0,0.0,0.0,0.0,0.0,0.0,0.0,0.0,0.0,0.0,0.0,0.0,0.0,0.0,0.0,0.0,0.0,0.0,0.0,0.0,0.0,0.0,0.0,0.0,0.0,0.0,0.0,0.0,0.0,0.0,0.0,0.0,0.0,0.0,0.0,0.0,0.0,0.0,0.0,0.0,0.0,0.0,0.0,0.0,0.0,0.0,0.0,0.0,0.0,0.0,0.0,0.0,0.0,0.0,0.0,0.0,0.0,0.0,0.0,0.0,0.0,0.0,0.0,0.0,0.0,0.0,0.0,1.7427,1.7932,1.9112,2.0849,1.9747,1.884,0.0,0.0,0.0,0.0,0.0,0.0,0.0,0.0,0.0,0.0,0.0,0.0,0.0,0.0,0.0,0.0,0.0,0.0,0.0,0.0,0.0,0.0,0.0,0.0,0.0,0.0,0.0,0.0,0.0,0.0,0.0,0.0,0.0,0.0,0.0,0.0,0.0,0.0,0.0,0.0,0.0,0.0,0.0,0.0,0.0,0.0,0.0,0.0,0.0,0.0,0.0,0.0,0.0,0.0,0.0,0.0,0.0,0.0,0.0,0.0,0.0,0.0,0.0,0.0,0.0,0.0,0.0,0.0,0.0,0.0,0.0,0.0,0.0,0.0,0.0,0.0,0.0,0.0,0.0,0.0,0.0,0.0,0.0,0.0,0.0,0.0,0.0,0.0,0.0,0.0,0.0,0.0,0.0,0.0,0.0,0.0,0.0,0.0,0.0,0.0,0.0,0.0,0.0,0.0,0.0,0.0,0.0,0.0,0.0,1.7122,0.0,1.9532,0.0,1.9582,1.8576,0.0,0.0,0.0,0.0,0.0,0.0,0.0,0.0,0.0,0.0,0.0,0.0,0.0,0.0,0.0,0.0,0.0,0.0,0.0,0.0,0.0,0.0,0.0,0.0,0.0,0.0,0.0,0.0,0.0,0.0,0.0,0.0,0.0,0.0,0.0,0.0,0.0,0.0,0.0,0.0,0.0,0.0,0.0,0.0,0.0,0.0,0.0,0.0,0.0,0.0,0.0,0.0,0.0,0.0,0.0,0.0,0.0,0.0,0.0,0.0,0.0,0.0,0.0,0.0,0.0,0.0,0.0,0.0,0.0,0.0,0.0,0.0,0.0,0.0,0.0,0.0,0.0,0.0,0.0,0.0,0.0,0.0,0.0,0.0,0.0,0.0,0.0,0.0,0.0,0.0,0.0,0.0,0.0,0.0,0.0,0.0,0.0,0.0,0.0,0.0,0.0,0.0,0.0,0.0,0.0,0.0,0.0,0.0,1.6683,1.915,2.041,2.0518,1.9394,1.9668,1.8088,0.0,0.0,0.0,0.0,0.0,0.0,0.0,0.0,0.0,0.0,0.0,0.0,0.0,0.0,0.0,0.0,0.0,0.0,0.0,0.0,0.0,0.0,0.0,0.0,0.0,0.0,0.0,0.0,0.0,0.0,0.0,0.0,0.0,0.0,0.0,0.0,0.0,0.0,0.0,0.0,0.0,0.0,0.0,0.0,0.0,0.0,0.0,0.0,0.0,0.0,0.0,0.0,0.0,0.0,0.0,0.0,0.0,0.0,0.0,0.0,0.0,0.0,0.0,0.0,0.0,0.0,0.0,0.0,0.0,0.0,0.0,0.0,0.0,0.0,0.0,0.0,0.0,0.0,0.0,0.0,0.0,0.0,0.0,0.0,0.0,0.0,0.0,0.0,0.0,0.0,0.0,0.0,0.0,0.0,0.0,0.0,0.0,0.0,0.0,0.0,0.0,0.0,0.0,0.0,0.0,0.0,0.0,0.0,0.0,1.8418,1.9375,2.0283,2.0986,1.9463,1.8312,0.0,0.0,0.0,0.0,0.0,0.0,0.0,0.0,0.0,0.0,0.0,0.0,0.0,0.0,0.0,0.0,0.0,0.0,0.0,0.0,0.0,0.0,0.0,0.0,0.0,0.0,0.0,0.0,0.0,0.0,0.0,0.0,0.0,0.0,0.0,0.0,0.0,0.0,0.0,0.0,0.0,0.0,0.0,0.0,0.0,0.0,0.0,0.0,0.0,0.0,0.0,0.0,0.0,0.0,0.0,0.0,0.0,0.0,0.0,0.0,0.0,0.0,0.0,0.0,0.0,0.0,0.0,0.0,0.0,0.0,0.0,0.0,0.0,0.0,0.0,0.0,0.0,0.0,0.0,0.0,0.0,0.0,0.0,0.0,0.0,0.0,0.0,0.0,0.0,0.0,0.0,0.0,0.0,0.0,0.0,0.0,0.0,0.0,0.0,0.0,0.0,0.0,0.0,0.0,0.0,0.0,0.0,0.0,0.0,2.0699,2.132,2.205,2.286,2.094,1.9476,1.8609,0.0,0.0,0.0,0.0,0.0,0.0,0.0,0.0,0.0,0.0,0.0,0.0,0.0,0.0,0.0,0.0,0.0,0.0,0.0,0.0,0.0,0.0,0.0,0.0,0.0,0.0,0.0,0.0,0.0,0.0,0.0,0.0,0.0,0.0,0.0,0.0,0.0,0.0,0.0,0.0,0.0,0.0,0.0,0.0,0.0,0.0,0.0,0.0,0.0,0.0,0.0,0.0,0.0,0.0,0.0,0.0,0.0,0.0,0.0,0.0,0.0,0.0,0.0,0.0,0.0,0.0,0.0,0.0,0.0,0.0,0.0,0.0,0.0,0.0,0.0,0.0,0.0,0.0,0.0,0.0,0.0,0.0,0.0,0.0,0.0,0.0,0.0,0.0,0.0,0.0,0.0,0.0,0.0,0.0,0.0,0.0,0.0,0.0,0.0,0.0,0.0,0.0,0.0,0.0,0.0,0.0,0.0,0.0,2.5317,2.5813,2.5649,2.4791,2.3722,2.147,0.0,0.0,0.0,0.0,0.0,0.0,0.0,0.0,0.0,0.0,0.0,0.0,0.0,0.0,0.0,0.0,0.0,0.0,0.0,0.0,0.0,0.0,0.0,0.0,0.0,0.0,0.0,0.0,0.0,0.0,0.0,0.0,0.0,0.0,0.0,0.0,0.0,0.0,0.0,0.0,0.0,0.0,0.0,0.0,0.0,0.0,0.0,0.0,0.0,0.0,0.0,0.0,0.0,0.0,0.0,0.0,0.0,0.0,0.0,0.0,0.0,0.0,0.0,0.0,0.0,0.0,0.0,0.0,0.0,0.0,0.0,0.0,0.0,0.0,0.0,0.0,0.0,0.0,0.0,0.0,0.0,0.0,0.0,0.0,0.0,0.0,0.0,0.0,0.0,0.0,0.0,0.0,0.0,0.0,0.0,0.0,0.0,0.0,0.0,0.0,0.0,0.0,0.0,0.0,0.0,0.0,0.0,0.0,0.0,2.7987,2.9896,2.9947,2.8008,2.5616,2.3415,0.0,0.0,0.0,0.0,0.0,0.0,0.0,0.0,0.0,0.0,0.0,0.0,0.0,0.0,0.0,0.0,0.0,0.0,0.0,0.0,0.0,0.0,0.0,0.0,0.0,0.0,0.0,0.0,0.0,0.0,0.0,0.0,0.0,0.0,0.0,0.0,0.0,0.0,0.0,0.0,0.0,0.0,0.0,0.0,0.0,0.0,0.0,0.0,0.0,0.0,0.0,0.0,0.0,0.0,0.0,0.0,0.0,0.0,0.0,0.0,0.0,0.0,0.0,0.0,0.0,0.0,0.0,0.0,0.0,0.0,0.0,0.0,0.0,0.0,0.0,0.0,0.0,0.0,0.0,0.0,0.0,0.0,0.0,0.0,0.0,0.0,0.0,0.0,0.0,0.0,0.0,0.0,0.0,0.0,0.0,0.0,0.0,0.0,0.0,0.0,0.0,0.0,0.0,0.0,0.0,0.0,0.0,0.0,2.7675,3.0122,3.3373,3.4262,3.2607,2.8608,2.5486,0.0,0.0,0.0,0.0,0.0,0.0,0.0,0.0,0.0,0.0,0.0,0.0,0.0,0.0,0.0,0.0,0.0,0.0,0.0,0.0,0.0,0.0,0.0,0.0,0.0,0.0,0.0,0.0,0.0,0.0,0.0,0.0,0.0,0.0,0.0,0.0,0.0,0.0,0.0,0.0,0.0,0.0,0.0,0.0,0.0,0.0,0.0,0.0,0.0,0.0,0.0,0.0,0.0,0.0,0.0,0.0,0.0,0.0,0.0,0.0,0.0,0.0,0.0,0.0,0.0,0.0,0.0,0.0,0.0,0.0,0.0,0.0,0.0,0.0,0.0,0.0,0.0,0.0,0.0,0.0,0.0,0.0,0.0,0.0,0.0,0.0,0.0,0.0,0.0,0.0,0.0,0.0,0.0,0.0,0.0,0.0,0.0,0.0,0.0,0.0,0.0,0.0,0.0,0.0,0.0,0.0,0.0,0.0,3.0167,3.1936,3.6178,3.8044,3.7174,3.2056,2.7795,0.0,0.0,0.0,0.0,0.0,0.0,0.0,0.0,0.0,0.0,0.0,0.0,0.0,0.0,0.0,0.0,0.0,0.0,0.0,0.0,0.0,0.0,0.0,0.0,0.0,0.0,0.0,0.0,0.0,0.0,0.0,0.0,0.0,0.0,0.0,0.0,0.0,0.0,0.0,0.0,0.0,0.0,0.0,0.0,0.0,0.0,0.0,0.0,0.0,0.0,0.0,0.0,0.0,0.0,0.0,0.0,0.0,0.0,0.0,0.0,0.0,0.0,0.0,0.0,0.0,0.0,0.0,0.0,0.0,0.0,0.0,0.0,0.0,0.0,0.0,0.0,0.0,0.0,0.0,0.0,0.0,0.0,0.0,0.0,0.0,0.0,0.0,0.0,0.0,0.0,0.0,0.0,0.0,0.0,0.0,0.0,0.0,0.0,0.0,0.0,0.0,0.0,0.0,0.0,0.0,0.0,0.0,0.0,3.1425,3.4234,3.7365,3.8622,3.7829,3.4128,3.0836,0.0,0.0,0.0,0.0,0.0,0.0,0.0,0.0,0.0,0.0,0.0,0.0,0.0,0.0,0.0,0.0,0.0,0.0,0.0,0.0,0.0,0.0,0.0,0.0,0.0,0.0,0.0,0.0,0.0,0.0,0.0,0.0,0.0,0.0,0.0,0.0,0.0,0.0,0.0,0.0,0.0,0.0,0.0,0.0,0.0,0.0,0.0,0.0,1.5472,0.0,0.0,0.0,0.0,0.0,0.0,0.0,0.0,0.0,0.0,0.0,0.0,0.0,0.0,0.0,0.0,0.0,0.0,0.0,0.0,0.0,0.0,0.0,0.0,0.0,0.0,0.0,0.0,0.0,0.0,0.0,0.0,0.0,0.0,0.0,0.0,0.0,0.0,0.0,0.0,0.0,0.0,0.0,0.0,0.0,0.0,0.0,0.0,0.0,0.0,0.0,0.0,0.0,0.0,0.0,0.0,0.0,0.0,0.0,3.3545,3.6759,3.925,4.0306,3.9825,3.7221,3.3791,0.0,0.0,0.0,0.0,0.0,0.0,0.0,0.0,0.0,0.0,0.0,0.0,0.0,0.0,0.0,0.0,0.0,0.0,0.0,0.0,0.0,0.0,0.0,0.0,0.0,0.0,0.0,0.0,0.0,0.0,0.0,0.0,0.0,0.0,0.0,0.0,0.0,0.0,0.0,0.0,0.0,0.0,0.0,0.0,0.0,0.0,0.0,0.0,0.0,0.0,0.0,0.0,0.0,0.0,0.0,0.0,0.0,0.0,0.0,0.0,0.0,0.0,0.0,0.0,0.0,0.0,0.0,0.0,0.0,0.0,0.0,0.0,0.0,0.0,0.0,0.0,0.0,0.0,0.0,0.0,0.0,0.0,0.0,0.0,0.0,0.0,0.0,0.0,0.0,0.0,0.0,0.0,0.0,0.0,0.0,0.0,0.0,0.0,0.0,0.0,0.0,0.0,0.0,0.0,0.0,0.0,0.0,3.171,3.5473,3.9279,4.1227,4.2132,4.1976,4.0018,3.6219,3.0471,0.0,0.0,0.0,0.0,0.0,0.0,0.0,0.0,0.0,0.0,0.0,0.0,0.0,0.0,0.0,0.0,0.0,0.0,0.0,0.0,0.0,0.0,0.0,0.0,0.0,0.0,0.0,0.0,0.0,0.0,0.0,0.0,0.0,0.0,0.0,0.0,0.0,0.0,1.502,1.6727,0.0,0.0,0.0,0.0,0.0,0.0,0.0,0.0,1.7207,0.0,0.0,0.0,0.0,0.0,0.0,0.0,0.0,0.0,0.0,0.0,0.0,0.0,0.0,0.0,0.0,0.0,0.0,0.0,0.0,0.0,0.0,0.0,0.0,0.0,0.0,0.0,0.0,0.0,0.0,0.0,0.0,0.0,0.0,0.0,0.0,0.0,0.0,0.0,0.0,0.0,0.0,0.0,0.0,0.0,0.0,0.0,0.0,0.0,0.0,0.0,0.0,0.0,0.0,0.0,0.0,3.2001,3.241,3.5526,4.1555,4.2578,4.2676,4.1976,4.0196,3.7035,3.2496,0.0,0.0,0.0,0.0,0.0,0.0,0.0,0.0,0.0,0.0,0.0,0.0,0.0,0.0,0.0,0.0,0.0,0.0,0.0,0.0,0.0,0.0,0.0,0.0,0.0,0.0,0.0,0.0,0.0,0.0,0.0,0.0,0.0,0.0,0.0,0.0,0.0,0.0,0.0,1.9908,2.1177,0.0,0.0,0.0,0.0,0.0,0.0,0.0,0.0,1.8815,0.0,0.0,0.0,0.0,0.0,0.0,0.0,0.0,0.0,0.0,0.0,0.0,0.0,0.0,0.0,0.0,0.0,0.0,0.0,0.0,0.0,0.0,0.0,0.0,0.0,0.0,0.0,0.0,0.0,0.0,0.0,0.0,0.0,0.0,0.0,0.0,0.0,0.0,0.0,0.0,0.0,0.0,0.0,0.0,0.0,0.0,0.0,0.0,0.0,0.0,0.0,0.0,0.0,0.0,0.0,3.25,3.5109,3.8662,4.3394,4.3935,4.3969,4.3494,4.0604,3.728,0.0,0.0,0.0,0.0,0.0,0.0,0.0,0.0,0.0,0.0,0.0,0.0,0.0,0.0,0.0,0.0,0.0,0.0,0.0,0.0,0.0,0.0,0.0,0.0,0.0,0.0,0.0,0.0,0.0,0.0,0.0,0.0,0.0,0.0,0.0,0.0,0.0,0.0,0.0,0.0,2.1104,2.2099,2.3828,0.0,0.0,0.0,0.0,0.0,0.0,2.0061,1.9545,0.0,0.0,0.0,0.0,0.0,0.0,0.0,0.0,0.0,0.0,0.0,0.0,0.0,0.0,0.0,0.0,0.0,0.0,0.0,0.0,0.0,0.0,0.0,0.0,0.0,0.0,0.0,0.0,0.0,0.0,0.0,0.0,0.0,0.0,0.0,0.0,0.0,0.0,0.0,0.0,0.0,0.0,0.0,0.0,0.0,0.0,0.0,0.0,0.0,0.0,0.0,0.0,0.0,0.0,0.0,3.2712,3.7502,4.1662,4.5033,4.5301,4.5301,4.5186,4.0963,3.7307,0.0,0.0,0.0,0.0,0.0,0.0,0.0,0.0,0.0,0.0,0.0,0.0,0.0,0.0,0.0,0.0,0.0,0.0,0.0,0.0,0.0,0.0,0.0,0.0,0.0,0.0,0.0,0.0,0.0,0.0,0.0,0.0,0.0,0.0,0.0,0.0,0.0,0.0,0.0,0.0,0.0,2.3175,2.5426,2.4036,0.0,0.0,0.0,0.0,2.254,2.2085,0.0,0.0,0.0,0.0,0.0,0.0,0.0,0.0,0.0,0.0,0.0,0.0,0.0,0.0,0.0,0.0,0.0,0.0,0.0,0.0,0.0,0.0,0.0,0.0,0.0,0.0,0.0,0.0,0.0,0.0,0.0,0.0,0.0,0.0,0.0,0.0,0.0,0.0,0.0,0.0,0.0,0.0,0.0,0.0,0.0,0.0,0.0,0.0,0.0,0.0,0.0,0.0,0.0,0.0,0.0,0.0,3.3536,3.7656,4.2016,4.6464,4.6511,4.6337,4.6085,4.1059,3.7236,0.0,0.0,0.0,0.0,0.0,0.0,0.0,0.0,0.0,0.0,0.0,0.0,0.0,0.0,0.0,0.0,0.0,0.0,0.0,0.0,0.0,0.0,0.0,0.0,0.0,0.0,0.0,0.0,0.0,0.0,0.0,0.0,0.0,0.0,0.0,0.0,0.0,0.0,0.0,0.0,0.0,2.5844,2.5728,2.5025,2.4468,0.0,0.0,2.4937,2.5879,2.7089,0.0,0.0,0.0,0.0,0.0,0.0,0.0,0.0,0.0,0.0,0.0,0.0,0.0,0.0,0.0,0.0,0.0,0.0,0.0,0.0,0.0,0.0,0.0,0.0,0.0,0.0,0.0,0.0,0.0,0.0,0.0,0.0,0.0,0.0,0.0,0.0,0.0,0.0,0.0,0.0,0.0,0.0,0.0,0.0,0.0,0.0,0.0,0.0,0.0,0.0,0.0,0.0,0.0,0.0,0.0,3.0141,3.4194,4.0105,4.4497,4.7176,4.752,4.7468,4.7041,4.131,3.7168,0.0,0.0,0.0,0.0,0.0,0.0,0.0,0.0,0.0,0.0,0.0,0.0,0.0,0.0,0.0,0.0,0.0,0.0,0.0,0.0,0.0,0.0,0.0,0.0,0.0,0.0,0.0,0.0,0.0,0.0,0.0,0.0,0.0,0.0,0.0,0.0,0.0,0.0,0.0,0.0,0.0,0.0,2.7705,2.7382,0.0,0.0,0.0,2.7464,2.7946,0.0,0.0,0.0,0.0,0.0,0.0,0.0,0.0,0.0,0.0,0.0,0.0,0.0,0.0,0.0,0.0,0.0,0.0,0.0,0.0,0.0,0.0,0.0,0.0,0.0,0.0,0.0,0.0,0.0,0.0,0.0,0.0,0.0,0.0,0.0,0.0,0.0,0.0,0.0,0.0,0.0,0.0,0.0,0.0,0.0,0.0,0.0,0.0,0.0,0.0,0.0,0.0,0.0,0.0,0.0,0.0,0.0,3.4811,4.2302,4.686,4.8105,4.8516,4.8512,4.7947,4.2361,0.0,0.0,0.0,0.0,0.0,0.0,0.0,0.0,0.0,0.0,0.0,0.0,0.0,0.0,0.0,0.0,0.0,0.0,0.0,0.0,0.0,0.0,0.0,0.0,0.0,0.0,0.0,1.3453,0.0,0.0,0.0,0.0,0.0,0.0,0.0,0.0,0.0,0.0,0.0,0.0,0.0,0.0,2.7892,2.9226,2.9448,2.9897,0.0,0.0,3.0026,3.0571,3.1438,3.068,0.0,0.0,0.0,0.0,0.0,0.0,0.0,0.0,0.0,0.0,0.0,0.0,0.0,0.0,0.0,0.0,0.0,0.0,0.0,0.0,0.0,0.0,0.0,0.0,0.0,0.0,0.0,0.0,0.0,0.0,0.0,0.0,0.0,0.0,0.0,0.0,0.0,0.0,0.0,0.0,0.0,0.0,0.0,0.0,0.0,0.0,0.0,0.0,0.0,0.0,0.0,0.0,0.0,0.0,0.0,3.5776,4.3373,4.8218,4.984,4.9463,4.9259,4.9186,4.4927,4.0299,0.0,0.0,0.0,0.0,0.0,0.0,0.0,0.0,0.0,0.0,0.0,0.0,0.0,0.0,0.0,0.0,0.0,0.0,0.0,0.0,0.0,0.0,0.0,0.0,0.0,0.0,0.0,0.0,0.0,0.0,0.0,0.0,0.0,0.0,0.0,0.0,0.0,0.0,0.0,0.0,0.0,2.8915,2.9352,3.0497,3.2079,0.0,0.0,3.3006,3.4626,3.6191,3.5233,2.9255,0.0,0.0,0.0,0.0,0.0,0.0,0.0,0.0,0.0,0.0,0.0,0.0,0.0,0.0,0.0,0.0,0.0,0.0,0.0,0.0,0.0,0.0,0.0,0.0,0.0,0.0,0.0,0.0,0.0,0.0,0.0,0.0,0.0,0.0,0.0,0.0,0.0,0.0,0.0,0.0,0.0,0.0,0.0,0.0,0.0,0.0,0.0,0.0,0.0,0.0,0.0,0.0,0.0,3.4282,3.7102,4.4353,4.8862,5.0331,5.0425,5.0089,4.9418,4.5845,4.1537,0.0,0.0,0.0,0.0,0.0,0.0,0.0,0.0,0.0,0.0,0.0,0.0,0.0,0.0,0.0,0.0,0.0,0.0,0.0,0.0,0.0,0.0,0.0,0.0,0.0,0.0,0.0,0.0,1.9615,1.9906,1.8646,0.0,0.0,0.0,0.0,0.0,0.0,0.0,0.0,0.0,0.0,3.0745,3.258,3.373,0.0,0.0,3.6149,3.5827,3.5627,3.5887,3.4378,2.9322,2.6607,0.0,0.0,0.0,0.0,0.0,0.0,0.0,0.0,0.0,0.0,0.0,0.0,0.0,0.0,0.0,0.0,0.0,0.0,0.0,0.0,0.0,0.0,0.0,0.0,0.0,0.0,0.0,0.0,0.0,0.0,0.0,0.0,0.0,0.0,0.0,0.0,0.0,0.0,0.0,0.0,0.0,0.0,0.0,0.0,0.0,0.0,0.0,0.0,0.0,0.0,0.0,0.0,3.5392,3.8344,4.5277,4.9663,5.1219,5.1329,5.1007,5.019,4.75,4.3684,0.0,0.0,0.0,0.0,0.0,0.0,0.0,0.0,0.0,0.0,0.0,0.0,0.0,0.0,0.0,0.0,0.0,0.0,0.0,0.0,0.0,0.0,0.0,0.0,0.0,0.0,0.0,0.0,2.0988,2.0813,1.8853,0.0,0.0,0.0,0.0,0.0,0.0,0.0,0.0,0.0,0.0,3.31,3.4848,3.5692,3.6367,3.6918,3.6676,3.6173,3.537,3.5077,3.3568,2.9534,0.0,0.0,0.0,0.0,0.0,0.0,0.0,0.0,0.0,0.0,0.0,0.0,0.0,0.0,0.0,0.0,0.0,0.0,0.0,0.0,0.0,0.0,0.0,0.0,0.0,0.0,0.0,0.0,0.0,0.0,2.0918,0.0,0.0,0.0,0.0,0.0,0.0,0.0,0.0,0.0,0.0,0.0,0.0,0.0,0.0,0.0,0.0,0.0,0.0,0.0,0.0,0.0,0.0,3.6549,3.9407,4.6231,5.0753,5.2641,5.2265,5.2013,5.1948,5.0292,4.7126,4.2273,0.0,0.0,0.0,0.0,0.0,0.0,0.0,0.0,0.0,0.0,0.0,0.0,0.0,0.0,0.0,0.0,0.0,0.0,0.0,0.0,0.0,0.0,0.0,0.0,0.0,0.0,1.7698,1.8461,1.8804,0.0,0.0,0.0,0.0,0.0,0.0,0.0,0.0,0.0,0.0,3.2793,3.6004,3.5372,3.5757,3.6091,3.6001,3.4475,3.3445,3.4012,3.4481,3.3727,0.0,0.0,0.0,0.0,0.0,0.0,0.0,0.0,0.0,0.0,0.0,0.0,0.0,0.0,0.0,0.0,0.0,0.0,0.0,0.0,0.0,0.0,0.0,0.0,0.0,0.0,0.0,2.7214,2.5541,0.0,0.0,0.0,0.0,0.0,0.0,0.0,0.0,0.0,0.0,0.0,3.693,3.7331,0.0,0.0,0.0,0.0,0.0,0.0,0.0,0.0,0.0,0.0,0.0,0.0,3.7531,4.0205,4.7089,5.154,5.3143,5.2836,5.2481,5.2116,5.0626,4.6962,4.0864,0.0,0.0,0.0,0.0,0.0,0.0,0.0,0.0,0.0,0.0,0.0,0.0,0.0,0.0,0.0,0.0,0.0,0.0,0.0,0.0,0.0,0.0,0.0,0.0,0.0,1.9658,0.0,0.0,0.0,0.0,0.0,0.0,0.0,0.0,0.0,0.0,0.0,2.7723,3.0808,3.2431,3.3818,3.517,3.5736,3.6736,0.0,0.0,0.0,0.0,0.0,0.0,0.0,0.0,0.0,0.0,0.0,0.0,0.0,0.0,2.7623,2.2389,2.1951,2.2507,2.2763,0.0,0.0,0.0,0.0,0.0,0.0,0.0,0.0,0.0,0.0,0.0,0.0,0.0,0.0,3.1174,0.0,2.9122,0.0,0.0,0.0,0.0,0.0,0.0,0.0,0.0,3.7556,4.0083,4.2186,4.2487,4.2499,0.0,4.07,3.6501,0.0,0.0,0.0,0.0,0.0,0.0,0.0,0.0,3.9216,4.1964,4.85,5.2809,5.439,5.372,5.3271,5.3217,5.1534,4.8222,4.319,3.9503,3.5778,0.0,0.0,0.0,0.0,0.0,0.0,0.0,0.0,0.0,0.0,0.0,0.0,0.0,0.0,0.0,0.0,0.0,0.0,0.0,0.0,0.0,0.0,0.0,2.1551,0.0,0.0,0.0,0.0,0.0,0.0,0.0,0.0,0.0,2.5901,2.8253,3.0986,3.382,3.4784,3.5223,3.5107,0.0,0.0,0.0,0.0,0.0,0.0,0.0,3.1795,3.0635,3.0423,3.0709,3.1684,3.3344,3.4372,3.3788,0.0,0.0,2.7536,2.6922,2.7463,2.7848,2.8509,2.8927,2.857,2.9515,3.0362,0.0,0.0,0.0,0.0,0.0,0.0,0.0,0.0,3.6354,3.5437,0.0,3.3504,0.0,0.0,0.0,0.0,0.0,3.4961,0.0,0.0,4.486,4.7142,4.6731,4.7528,4.7434,4.6625,4.6108,4.4248,4.1036,3.5952,0.0,0.0,0.0,0.0,0.0,0.0,4.1556,4.4833,5.0509,5.4486,5.6417,5.4825,5.4347,5.5204,5.3049,5.0972,4.91,4.5129,4.179,3.9285,3.2042,0.0,0.0,0.0,0.0,0.0,0.0,0.0,0.0,0.0,0.0,0.0,0.0,0.0,0.0,0.0,0.0,0.0,0.0,0.0,0.0,2.3442,0.0,0.0,0.0,0.0,0.0,0.0,0.0,0.0,0.0,0.0,2.8551,3.1858,3.5004,3.6426,0.0,0.0,0.0,0.0,3.6939,3.2152,3.0852,3.0393,2.9733,3.2369,3.4554,3.459,0.0,0.0,3.8439,3.7936,3.7249,3.5569,3.7367,3.7999,3.4929,3.3165,3.2357,3.2612,3.2642,3.2551,3.2893,3.4039,3.4878,4.4211,0.0,0.0,0.0,0.0,3.9315,4.04,4.215,4.2298,4.1426,3.9874,3.9501,0.0,0.0,0.0,0.0,0.0,0.0,4.2669,4.686,4.8518,5.0771,5.3567,5.3821,5.3835,5.3553,5.2575,5.1627,5.0615,4.7797,4.1325,3.1528,0.0,0.0,0.0,0.0,4.3792,4.846,5.2616,5.5442,5.6867,5.582,5.4986,5.4485,5.3407,5.2238,5.1137,4.9487,4.6994,4.3492,3.8861,0.0,0.0,0.0,0.0,0.0,0.0,0.0,0.0,0.0,0.0,0.0,0.0,0.0,0.0,0.0,0.0,0.0,0.0,0.0,2.3836,2.5107,2.4607,0.0,0.0,0.0,0.0,0.0,0.0,0.0,0.0,0.0,3.4644,3.4097,3.3873,0.0,0.0,3.3223,3.246,3.4255,3.6042,3.7098,3.6875,0.0,0.0,3.8221,3.7444,3.7375,3.9468,4.1089,4.0959,4.1772,4.2251,4.1721,4.2052,4.2036,4.1187,3.9511,3.8223,3.8007,3.8417,3.8822,3.8752,3.9545,4.0297,5.2978,4.9516,4.5774,4.4715,4.5568,4.5618,4.6766,4.8582,4.835,4.7504,4.6239,4.5658,4.3794,4.1002,3.954,0.0,0.0,0.0,4.7749,5.2575,5.283,5.4586,5.7495,5.7741,5.7884,5.7981,5.7361,5.6896,5.6484,5.4191,4.8858,4.0629,0.0,0.0,3.9208,4.3363,4.7569,5.1653,5.4671,5.6756,5.7971,5.7079,5.6092,5.5053,5.4656,5.4062,5.3165,5.2664,5.0934,4.7717,4.4201,3.9573,0.0,0.0,0.0,0.0,0.0,0.0,0.0,0.0,0.0,0.0,0.0,1.9164,1.6455,0.0,0.0,0.0,2.5436,2.6465,2.641,2.7121,0.0,0.0,0.0,0.0,0.0,0.0,0.0,2.9601,3.3999,3.7414,3.8437,3.7765,3.7343,3.7877,3.6864,3.589,3.5267,0.0,3.9016,4.0062,3.9986,4.0405,4.2039,4.167,4.1497,4.2575,4.3505,4.4314,4.4647,4.5345,4.5809,4.5799,4.5514,4.5175,4.4984,4.3969,4.2821,4.1826,4.2217,4.2619,4.2251,4.314,4.3918,6.0722,5.9984,5.1718,4.9356,5.1024,5.1145,5.2553,5.472,5.4188,5.3352,5.2334,5.1639,4.9502,4.633,4.457,0.0,4.9825,5.0434,5.2896,5.6838,5.7468,5.837,5.953,5.9873,6.0203,6.0518,6.0747,6.0411,5.9404,5.6757,5.444,5.2476,4.9444,4.7447,4.677,4.9145,5.1768,5.4314,5.623,5.7972,5.9499,5.8378,5.7379,5.6523,5.6452,5.6051,5.5251,5.4877,5.3808,5.1849,4.8348,4.4722,4.0973,0.0,0.0,0.0,0.0,0.0,0.0,0.0,0.0,0.0,0.0,0.0,0.0,0.0,0.0,0.0,3.0684,0.0,3.0418,2.9814,0.0,0.0,0.0,2.9218,3.1326,3.3295,3.5205,3.693,0.0,0.0,4.0835,4.2309,4.377,4.4883,4.4907,4.3893,4.1282,4.3071,4.4141,4.165,4.1422,4.1493,4.2242,4.3788,4.5876,4.8103,4.8868,4.8413,4.8355,4.8144,4.8031,4.7902,4.7679,4.722,4.6807,4.6635,4.6323,4.4336,4.4428,4.4612,4.4234,4.5152,4.5846,6.3684,6.3328,6.1666,5.9713,5.7713,5.7716,5.7956,5.831,5.8022,5.7302,5.6369,5.596,5.4914,5.3427,5.3233,5.4079,5.5765,5.6403,5.7795,5.9685,6.031,6.0904,6.146,6.2043,6.2377,6.2429,6.223,6.1888,6.1418,6.0476,5.8162,5.4704,5.3477,5.1019,4.7384,4.8273,5.0827,5.4866,5.4938,5.6355,5.9079,5.8048,5.7434,5.7438,5.7008,5.6877,5.711,5.6193,5.5548,5.5211,5.1768,4.793,4.3812,3.655,0.0,0.0,0.0,0.0,0.0,0.0,0.0,0.0,0.0,2.2924,1.8254,0.0,2.5252,0.0,3.3298,3.6851,3.6372,3.591,0.0,0.0,3.3424,3.3983,3.5912,3.8416,3.9948,3.9846,4.2134,4.4222,4.5489,4.599,4.7307,4.989,4.5788,4.2287,4.1933,4.3609,4.4865,4.4668,4.5855,4.7099,4.7001,4.7621,4.8441,4.9541,4.9297,4.8982,4.8999,4.8666,4.8483,4.8414,4.7876,4.7412,4.726,4.7056,4.68,4.6282,4.6259,4.6328,4.6191,4.6747,4.7171,6.5682,6.5541,6.5926,6.4905,6.3053,6.2458,6.2144,6.1949,6.1042,6.0535,6.0294,5.9866,5.9325,5.8707,5.8583,5.9139,6.0147,6.0221,6.0969,6.2203,6.2555,6.2949,6.3381,6.3636,6.3895,6.4157,6.3828,6.3641,6.3565,6.3115,6.1752,5.9585,5.9072,5.659,5.2249,5.0104,5.0661,5.3826,5.4925,5.6801,5.9416,5.8891,5.7688,5.5955,5.5566,5.4484,5.2613,5.1669,5.0931,5.0242,4.8308,4.5761,4.2563,3.7102,3.2464,0.0,0.0,0.0,0.0,0.0,0.0,0.0,0.0,0.0,0.0,0.0,2.8936,3.0505,3.659,3.9732,3.7942,3.8264,3.8466,3.8189,3.8751,4.004,4.2328,4.4367,4.5726,4.6066,4.7481,4.8864,4.9949,5.0144,5.0839,5.2696,4.9374,4.6629,4.6427,4.7048,4.7489,4.756,4.8625,4.9438,4.9438,4.9655,4.992,5.0136,4.9799,4.9438,4.9438,4.9108,4.8847,4.8854,4.8397,4.8017,4.8091,4.8003,4.7926,4.8129,4.8344,4.8249,4.7678,4.7941,4.8249,6.7557,6.7543,6.7514,6.7469,6.7395,6.6234,6.5562,6.5138,6.3629,6.3235,6.3678,6.31,6.272,6.2455,6.1865,6.2204,6.3238,6.2691,6.309,6.4257,6.436,6.4698,6.5225,6.4972,6.5182,6.5725,6.5404,6.5328,6.5524,6.4931,6.4503,6.4266,6.3566,6.1348,5.7538,5.2868,5.1156,5.2429,5.5492,5.7917,5.9585,5.9207,5.6993,5.3118,5.2937,5.0813,4.6327,4.5693,4.4707,4.3082,4.2844,4.2196,4.0896,3.7303,3.4377,0.0,2.8441,0.0,0.0,0.0,0.0,0.0,0.0,0.0,0.0,3.3319,3.4198,3.5867,4.0362,4.1913,3.8948,4.0064,4.1429,4.2631,4.4231,4.6336,4.8895,5.0096,5.1277,5.2816,5.308,5.3339,5.3589,5.3888,5.3929,5.387,5.3273,5.2259,5.179,5.1051,5.0535,5.0274,5.0202,5.0329,5.0346,5.0641,5.0912,5.0882,5.0593,5.0226,5.0274,4.9895,4.9582,4.9656,4.947,4.9191,4.9313,4.9386,4.9476,4.9765,5.0122,5.0012,4.9075,4.8993,4.9236,7.0965,7.0936,7.0656,7.0554,7.0508,6.9997,6.8543,6.649,6.5684,6.5117,6.4679,6.4368,6.4189,6.4099,6.3726,6.3815,6.4307,6.4188,6.4544,6.5257,6.5775,6.6259,6.6627,6.6792,6.6925,6.7026,6.673,6.6429,6.6199,6.5536,6.3805,6.1046,5.9811,5.7736,5.4934,0.0,0.0,0.0,5.5771,5.7388,5.7224,5.4357,5.1763,4.9623,4.9931,0.0,4.6656,4.6753,4.6476,4.5538,4.4677,0.0,0.0,0.0,0.0,0.0,0.0,0.0,0.0,0.0,0.0,0.0,3.7988,3.6836,3.5515,3.7689,4.0258,4.2735,4.4818,4.6463,4.7524,4.7908,4.8278,4.8722,4.9461,5.0564,5.1955,5.2787,5.358,5.4281,5.4585,5.4691,5.4764,5.4763,5.4762,5.4744,5.431,5.3809,5.3278,5.2478,5.1959,5.1844,5.1676,5.1796,5.1862,5.1868,5.1892,5.1964,5.194,5.1796,5.1724,5.1652,5.1628,5.1603,5.1427,5.1088,5.1121,5.0946,5.0703,5.0832,5.0926,5.0815,5.0235,5.0165,5.0142,7.1907,0.0,7.1536,7.1433,0.0,7.1057,7.0106,6.8814,6.8081,6.7364,6.6733,6.6926,6.6923,6.6738,6.6243,6.6302,6.6754,6.6426,6.6635,6.7245,6.7558,6.7837,6.7975,6.7953,6.7843,6.7633,6.7279,6.7139,6.7115,6.6462,6.5408,6.3928,6.2968,6.1605,5.9964,5.9313,5.7951,5.5765,5.741,5.8762,5.9674,5.7669,5.5044,5.2101,5.1777,0.0,0.0,0.0,0.0,0.0,0.0,0.0,0.0,0.0,0.0,4.2796,4.0409,3.9545,4.095,4.1389,4.2743,4.5459,4.6344,4.524,4.1726,4.4655,4.7193,4.8297,4.9451,5.0444,5.1205,5.1427,5.1632,5.1992,5.2302,5.3005,5.425,5.4627,5.5127,5.6064,5.5992,5.5806,5.6103,5.5713,5.5477,5.541,5.4967,5.447,5.4009,5.3181,5.2484,5.2001,5.1898,5.1874,5.194,5.2157,5.2301,5.2277,5.2085,5.1916,5.1916,5.17,5.155,5.1585,5.1438,5.1322,5.1411,5.1444,5.1576,5.1744,5.197,5.1986,5.1606,5.1198,5.0842,7.2383,7.234,7.2123,7.1943,7.1743,7.155,7.1383,7.1167,0.0,0.0,0.0,6.9204,6.9257,6.8944,6.8421,6.8481,6.8944,6.8421,6.8541,6.9183,6.9183,6.9243,6.9317,6.9015,6.8632,6.8245,6.7891,6.7839,6.8032,6.7393,6.7422,6.7945,6.7306,6.6564,6.5893,6.5431,6.3485,6.0206,5.9405,6.0118,6.2127,6.1226,5.8714,5.4676,5.3911,5.132,4.6734,4.6011,4.5193,4.4046,4.4061,4.4379,4.4887,4.4581,4.4811,4.5645,4.4681,4.5271,4.8018,4.7982,4.9024,5.1927,5.3273,5.248,4.888,5.1558,5.3211,5.2864,5.3534,5.3725,5.3224,5.3221,5.3484,5.3934,5.4084,5.4737,5.6075,5.6168,5.6527,5.7562,5.725,5.6943,5.728,5.6612,5.609,5.6016,5.5615,5.5041,5.4529,5.3679,5.2853,5.2241,5.2187,5.2018,5.1994,5.2307,5.2542,5.2638,5.2259,5.1922,5.185,5.1562,5.1339,5.1649,5.1402,5.1554,5.1634,5.2017,5.2334,5.2652,5.3023,5.3181,5.2755,5.2098,5.1517,7.4316,7.4063,7.4387,7.3987,7.3199,7.3462,7.3229,7.2552,7.0739,6.9713,6.9357,6.9164,6.9051,6.9004,6.8914,6.8914,6.9004,6.8914,6.9229,6.9858,6.9858,7.0157,7.0603,7.0279,6.9966,6.9604,6.9223,6.8915,6.8641,6.8061,6.8044,6.8434,6.7492,6.658,6.5951,6.5805,6.5232,6.4114,6.1019,5.9395,5.9281,5.6586,5.3926,5.1457,5.1745,5.016,4.6773,4.7511,4.7188,4.5841,4.6247,4.7717,5.0312,4.9732,5.0426,5.2805,5.2592,5.2298,5.2282,5.2859,5.3789,5.5127,5.5926,5.5832,5.4818,5.5155,5.5641,5.6033,5.5874,5.5675,5.5285,5.4986,5.4938,5.5168,5.5548,5.6168,5.6878,5.7606,5.8052,5.7976,5.8221,5.8164,5.7844,5.7262,5.6856,5.6793,5.6413,5.5749,5.501,5.4212,5.3675,5.351,5.3485,5.3485,5.3341,5.3491,5.351,5.3587,5.3443,5.3299,5.3293,5.3178,5.3136,5.332,5.3187,5.3245,5.3309,5.3485,5.3448,5.3523,5.3624,5.354,5.3143,5.2651,5.2132,7.5854,7.5551,7.5526,7.5185,7.4547,7.4187,7.383,7.3444,7.2376,7.1496,7.0922,7.1081,7.0829,7.0353,7.0729,7.088,7.0833,7.0656,7.0949,7.1517,7.1204,7.1158,7.1368,7.0922,7.0413,6.9919,6.9919,6.952,6.8849,6.8693,6.8722,6.8741,6.7887,6.7277,6.6999,6.6622,6.6302,6.5983,6.3695,6.2365,6.2109,6.0364,5.891,5.7879,5.7125,5.586,5.4061,5.3799,5.3262,5.2289,5.2509,5.323,5.4385,5.4242,5.4613,5.5713,5.5745,5.5775,5.5805,5.6078,5.6495,5.7088,5.7232,5.7468,5.7782,5.7233,5.6911,5.6938,5.7113,5.7118,5.6767,5.6667,5.6678,5.6758,5.6997,5.7349,5.7807,5.8058,5.8378,5.8679,5.871,5.871,5.878,5.8008,5.7631,5.7788,5.73,5.6458,5.5601,5.4991,5.4399,5.3951,5.3803,5.3803,5.3803,5.3803,5.3803,5.3803,5.3803,5.3803,5.3803,5.3803,5.3803,5.3803,5.3803,5.3803,5.3803,5.3803,5.3803,5.3803,5.3803,5.3634,5.3257,5.2726,5.2119,7.6753,7.6384,7.6276,7.5993,7.552,7.4464,7.4015,7.3983,7.362,7.3059,7.2485,7.2814,7.253,7.185,7.2268,7.2446,7.2381,7.2204,7.2385,7.2834,7.2355,7.2116,7.2072,7.1577,7.0967,7.0321,7.0453,6.995,6.9047,6.9085,6.9064,6.877,6.8318,6.8032,6.7887,6.7393,6.7044,6.6841,6.5796,6.5199,6.517,6.4545,6.4152,6.3901,6.2459,6.1329,6.0635,5.9583,5.8776,5.8293,5.8237,5.8083,5.7744,5.7834,5.778,5.7485,5.753,5.7787,5.8174,5.8157,5.8242,5.8568,5.8272,5.8541,5.9477,5.8829,5.8129,5.7861,5.8146,5.8251,5.7982,5.7848,5.7901,5.7901,5.8008,5.8227,5.8585,5.8428,5.8554,5.9307,5.9112,5.9062,5.9232,5.8679,5.8183,5.8246,5.7862,5.7086,5.6201,5.5658,5.5024,5.4254,5.3878,5.3803,5.3803,5.3803,5.3803,5.3803,5.3803,5.3803,5.3803,5.3803,5.3803,5.3803,5.3803,5.3803,5.3803,5.3803,5.3803,5.3803,5.3803,5.3634,5.3124,5.2516,5.1909,7.6662,7.6198,7.6713,7.6534,7.5849,7.46,7.4061,7.4029,7.3667,7.3446,7.3413,7.3124,7.3025,7.2807,7.2593,7.2523,7.2504,7.2684,7.2864,7.2937,7.2864,7.2817,7.2817,7.2727,7.2199,7.131,7.1018,7.0371,6.9382,6.9026,6.8845,6.8811,6.8753,6.845,6.7974,6.7828,6.7509,6.6899,6.6186,6.5805,6.5747,6.5228,6.4619,6.402,6.3515,6.2853,6.1895,6.1475,6.1054,6.0798,6.0666,6.0518,6.0136,5.9896,5.9582,5.9205,5.8984,5.8789,5.8673,5.8609,5.8995,5.9713,5.9427,5.9599,6.0508,6.022,5.995,5.9786,5.9315,5.9012,5.8938,5.837,5.802,5.8077,5.8359,5.866,5.8736,5.9106,5.9408,5.9477,5.9408,5.9433,5.9427,5.8981,5.8485,5.8177,5.8076,5.7612,5.6675,5.612,5.5547,5.4621,5.409,5.3846,5.3827,5.3803,5.3803,5.3803,5.3803,5.3803,5.3803,5.3803,5.3803,5.3803,5.3803,5.3803,5.3803,5.3803,5.3803,5.3785,5.3728,5.3559,5.2859,5.2307,5.187,7.7983,7.7543,7.7572,7.7201,7.6494,7.5553,7.5169,7.5153,7.5055,7.4976,7.496,7.4846,7.4454,7.391,7.4113,7.4102,7.3886,7.381,7.3904,7.4018,7.3702,7.3492,7.3462,7.3057,7.2561,7.2051,7.2038,7.1521,7.0516,6.977,6.9205,6.8823,6.8794,6.8649,6.845,6.845,6.8289,6.8015,6.7405,6.7086,6.6912,6.5693,6.4867,6.4526,6.3705,6.3039,6.2606,6.177,6.1108,6.0769,6.0737,6.0494,5.9967,6.0116,6.0093,5.9786,5.9961,5.997,5.9763,5.9764,5.9846,6.0119,5.9991,6.019,6.0876,6.0818,6.0857,6.107,6.0249,5.951,5.9345,5.904,5.883,5.8855,5.9056,5.9182,5.9182,5.9357,5.9527,5.9527,5.9527,5.9527,5.9502,5.9307,5.8956,5.8554,5.8604,5.8401,5.7547,5.6844,5.6126,5.5489,5.4805,5.4178,5.39,5.3803,5.3803,5.3803,5.3803,5.3803,5.3803,5.3803,5.3803,5.3803,5.3803,5.3803,5.3803,5.3803,5.3803,5.3747,5.3502,5.32,5.2402,5.2115,5.1851,7.8896,7.8548,7.8055,7.7523,7.6938,7.6291,7.5984,7.5984,7.5984,7.5984,7.6014,7.6168,7.5854,7.5275,7.5422,7.5348,7.5051,7.4788,7.4814,7.495,7.4411,7.4168,7.4091,7.3702,7.3208,7.2874,7.2958,7.2434,7.1324,7.0469,6.9728,6.9159,6.9072,6.8985,6.8794,6.8794,6.8794,6.8753,6.8189,6.7887,6.7683,6.6348,6.5418,6.5135,6.398,6.3283,6.3238,6.2191,6.1431,6.106,6.1,6.0716,6.0049,6.0409,6.0558,6.0471,6.0918,6.1173,6.0935,6.082,6.0757,6.0761,6.0585,6.0755,6.1326,6.1427,6.1491,6.1629,6.0793,6.0017,5.987,5.9643,5.9527,5.9527,5.9527,5.9527,5.9502,5.9527,5.9527,5.9527,5.9527,5.9527,5.9527,5.9477,5.9307,5.9056,5.9232,5.9249,5.8383,5.7484,5.6734,5.6281,5.5413,5.4659,5.414,5.4068,5.3996,5.3827,5.3803,5.3803,5.3803,5.3803,5.3803,5.3803,5.3803,5.3785,5.3766,5.3766,5.354,5.3408,5.3143,5.2745,5.2173,5.1943,5.1736,7.8896,7.8517,7.7814,7.7375,7.6938,7.6322,7.6014,7.6045,7.6014,7.6014,7.6137,7.6691,7.6938,7.6765,7.5996,7.5526,7.5472,7.5372,7.5307,7.5312,7.4963,7.4826,7.4856,7.4813,7.445,7.3797,7.3563,7.2755,7.1412,7.0876,7.0349,6.9803,6.9716,6.9425,6.8939,6.8823,6.8794,6.8736,6.8247,6.7945,6.7828,6.719,6.6476,6.584,6.4625,6.394,6.383,6.3221,6.2619,6.2287,6.2253,6.1946,6.1288,6.1258,6.1343,6.1523,6.2067,6.2243,6.1925,6.155,6.1557,6.1944,6.1472,6.1468,6.22,6.2112,6.1838,6.1495,6.1008,6.0647,6.0482,5.9894,5.9547,5.9541,5.9521,5.9547,5.9521,5.9624,5.9527,5.9547,5.9527,5.9527,5.9527,5.9527,5.9502,5.9408,5.9502,5.9313,5.8758,5.7971,5.7237,5.6674,5.5949,5.5169,5.4688,5.4428,5.4236,5.3972,5.3803,5.3803,5.3803,5.3803,5.3803,5.3803,5.3803,5.3785,5.3728,5.3502,5.3105,5.2821,5.2497,5.2119,5.1928,5.1639,5.1485,7.8912,7.858,7.8086,7.7667,7.7295,7.682,7.663,7.663,7.663,7.663,7.6737,7.7338,7.7383,7.6983,7.7083,7.675,7.6165,7.5896,7.5634,7.5397,7.5057,7.4886,7.4886,7.4886,7.4813,7.4552,7.4407,7.3634,7.2333,7.1668,7.1005,7.0395,6.9977,6.9658,6.9408,6.9014,6.8794,6.8765,6.8579,6.8479,6.8421,6.7857,6.7277,6.6764,6.5343,6.4266,6.3638,6.3529,6.304,6.2063,6.2739,6.2646,6.1673,6.1852,6.2099,6.2193,6.2375,6.2514,6.2481,6.2138,6.2078,6.2423,6.2244,6.2055,6.2228,6.2318,6.2243,6.1823,6.1401,6.106,6.0622,5.999,5.9599,5.9811,5.9869,5.9849,5.9926,6.0105,6.0157,5.9907,5.9701,5.9527,5.9527,5.9527,5.9527,5.9527,5.9527,5.9408,5.9072,5.8257,5.7557,5.7407,5.643,5.5337,5.5174,5.4765,5.4428,5.4044,5.3803,5.3803,5.3803,5.3803,5.3803,5.3803,5.3803,5.3634,5.3521,5.3086,5.2688,5.2349,5.2004,5.1928,5.1659,5.162,5.1562,7.8896,7.858,7.8342,7.8038,7.7684,7.744,7.7343,7.7343,7.7359,7.7401,7.7566,7.778,7.7621,7.7368,7.7584,7.7345,7.6667,7.6218,7.5819,7.5533,7.5108,7.5006,7.5185,7.5006,7.5006,7.5104,7.4718,7.4011,7.3137,7.2362,7.1632,7.1034,7.0587,7.0198,6.9803,6.9321,6.9043,6.8852,6.8794,6.8794,6.8736,6.8421,6.7839,6.7113,6.607,6.5044,6.4049,6.3965,6.3486,6.2647,6.3066,6.2977,6.2074,6.2457,6.2782,6.2809,6.299,6.3127,6.3208,6.2908,6.2847,6.3174,6.2852,6.2602,6.2832,6.264,6.2396,6.2287,6.1592,6.1111,6.1107,6.0264,5.9643,5.9894,6.0028,6.0105,6.0125,6.0469,6.0469,6.0144,5.9894,5.9676,5.9521,5.9527,5.9527,5.9527,5.9527,5.9527,5.9355,5.8691,5.8052,5.8275,5.7184,5.6313,5.5916,5.5569,5.4683,5.4207,5.3948,5.39,5.3924,5.39,5.39,5.3851,5.3715,5.3483,5.3143,5.2707,5.2307,5.1966,5.1909,5.1909,5.1793,5.1774,5.1659,7.8912,7.8628,7.8627,7.8374,7.8086,7.799,7.7991,7.8021,7.799,7.8059,7.817,7.7813,7.7677,7.774,7.7399,7.7075,7.6851,7.6305,7.6048,7.588,7.5283,7.5305,7.5766,7.5335,7.5335,7.5702,7.447,7.3831,7.3655,7.2905,7.2224,7.1777,7.1592,7.0964,6.9861,6.9803,6.9437,6.9014,6.8852,6.8794,6.8794,6.8719,6.8108,6.7055,6.6753,6.6202,6.5256,6.4598,6.3999,6.3546,6.3336,6.2961,6.2717,6.3108,6.3397,6.346,6.3912,6.421,6.4183,6.3837,6.3778,6.4141,6.3381,6.3343,6.4099,6.3193,6.2561,6.2993,6.2005,6.1317,6.2132,6.1025,5.9872,5.9605,6.0079,6.0182,6.0278,6.0488,6.0565,6.0259,6.0099,5.9932,5.9637,5.9585,5.9605,5.9605,5.9521,5.9527,5.9489,5.9001,5.8876,5.8706,5.7908,5.7009,5.6716,5.6371,5.5299,5.4394,5.4231,5.4116,5.4236,5.426,5.4327,5.426,5.3922,5.3689,5.3105,5.2669,5.2268,5.1985,5.1966,5.1928,5.1851,5.1793,5.1678,7.9053,7.8927,7.8675,7.8533,7.8405,7.8182,7.807,7.8069,7.7813,7.7759,7.783,7.7848,7.7636,7.7447,7.7537,7.7461,7.6997,7.6554,7.6418,7.6459,7.5902,7.5694,7.5916,7.6108,7.6078,7.5705,7.447,7.3778,7.3668,7.2986,7.2485,7.2282,7.1894,7.1534,7.104,7.0267,6.9658,6.9466,6.9014,6.8794,6.8777,6.8603,6.8101,6.7502,6.7215,6.6653,6.5813,6.5161,6.4437,6.3667,6.4088,6.4153,6.3866,6.3912,6.4039,6.4021,6.4156,6.431,6.4256,6.4,6.4004,6.4397,6.4193,6.4274,6.4729,6.3951,6.3521,6.3876,6.2888,6.2466,6.2735,6.2451,6.1736,6.139,6.0852,6.0712,6.094,6.0832,6.0813,6.0889,6.0488,6.0201,6.022,6.0105,5.9855,5.9811,5.9657,5.9527,5.9469,5.9198,5.8926,5.8823,5.8088,5.7643,5.7379,5.6994,5.6158,5.5303,5.4952,5.4592,5.464,5.4664,5.4712,5.4588,5.4248,5.3804,5.32,5.2739,5.2423,5.2139,5.2134,5.2039,5.1889,5.1793,5.1736,7.9085,7.9069,7.888,7.8801,7.8786,7.8548,7.8405,7.8246,7.8022,7.7905,7.7924,7.7819,7.7854,7.7785,7.7953,7.7906,7.7705,7.7143,7.7159,7.7299,7.6207,7.5905,7.6245,7.6886,7.6768,7.593,7.4756,7.4062,7.3886,7.3067,7.2584,7.2497,7.2224,7.1894,7.1679,7.0906,7.0326,6.9832,6.9379,6.9108,6.8955,6.8733,6.8389,6.7923,6.772,6.721,6.6383,6.5914,6.5194,6.4349,6.4505,6.4537,6.4328,6.4283,6.431,6.4337,6.45,6.4536,6.4355,6.4533,6.4737,6.5042,6.4823,6.4897,6.507,6.4561,6.3899,6.4113,6.3435,6.3115,6.3467,6.3104,6.2923,6.3084,6.22,6.1767,6.1846,6.1492,6.1237,6.1212,6.0756,6.0488,6.0374,6.0144,5.9913,5.983,5.9657,5.9527,5.9469,5.9314,5.9179,5.8993,5.8596,5.8248,5.8047,5.7559,5.6989,5.6367,5.5834,5.5386,5.5145,5.5145,5.5145,5.5005,5.4707,5.4209,5.3641,5.3207,5.2853,5.2632,5.2307,5.2096,5.1947,5.1905,5.1851,7.9085,7.9085,7.9085,7.91,7.9085,7.9037,7.8849,7.8596,7.8501,7.843,7.8318,7.7826,7.805,7.865,7.8353,7.8446,7.8795,7.8001,7.7799,7.7788,7.668,7.6017,7.6861,7.7335,7.7103,7.6414,7.523,7.4533,7.4178,7.3124,7.2613,7.2584,7.2526,7.2311,7.1864,7.1708,7.1022,7.0209,6.9919,6.966,6.9287,6.9229,6.8836,6.8145,6.8161,6.7787,6.6902,6.6542,6.6039,6.5063,6.4664,6.4509,6.4446,6.4391,6.4419,6.4536,6.4961,6.4934,6.4826,6.5204,6.5809,6.5853,6.515,6.5071,6.5729,6.4615,6.3887,6.4339,6.3712,6.359,6.4098,6.3655,6.3499,6.4143,6.3493,6.2947,6.2818,6.2368,6.1996,6.1575,6.1099,6.0648,6.0361,5.9952,5.9701,5.9618,5.9605,5.9527,5.9508,5.945,5.9508,5.9259,5.8957,5.8849,5.8652,5.8292,5.7764,5.7491,5.6868,5.6323,5.5853,5.577,5.5626,5.5461,5.521,5.4686,5.4117,5.3625,5.3112,5.2676,5.2387,5.2139,5.2043,5.202,5.1813,7.9085,7.9085,7.9085,7.9085,7.9085,7.9085,7.8912,7.858,7.8341,7.8066,7.7848,7.7846,7.8053,7.8322,7.8723,7.8955,7.8994,7.8505,7.783,7.738,7.6671,7.6683,7.7256,7.7215,7.7204,7.7068,7.5626,7.4639,7.4468,7.3207,7.2631,7.2613,7.2584,7.2526,7.234,7.1923,7.1574,7.1168,7.0657,7.0274,6.988,6.9582,6.9106,6.8394,6.8159,6.766,6.6826,6.6428,6.6196,6.5824,6.5252,6.5178,6.5458,6.5205,6.5106,6.5485,6.573,6.5811,6.5621,6.554,6.5702,6.5964,6.5239,6.4963,6.559,6.4729,6.4435,6.473,6.4442,6.4378,6.492,6.4762,6.4827,6.49,6.4234,6.3563,6.3412,6.3082,6.2694,6.2419,6.1819,6.1332,6.0929,6.0386,5.9938,5.9836,5.9682,5.9527,5.9527,5.9527,5.9527,5.9527,5.9342,5.9347,5.9226,5.894,5.8676,5.8509,5.7981,5.7344,5.6864,5.6544,5.6328,5.6096,5.5843,5.5408,5.458,5.3888,5.3322,5.2866,5.233,5.2081,5.2096,5.2096,5.1716,7.9085,7.9085,7.9085,7.9085,7.9069,7.8943,7.8722,7.8358,7.8006,7.7821,7.7773,7.7882,7.8353,7.8907,7.9355,7.9694,7.9796,7.8903,7.844,7.8226,7.7403,7.7187,7.731,7.7155,7.7414,7.7473,7.5951,7.5033,7.447,7.3263,7.2677,7.2613,7.2613,7.2613,7.2555,7.2282,7.1923,7.1644,7.1155,7.0683,7.0295,6.9761,6.9194,6.8645,6.8299,6.7836,6.7256,6.6974,6.6671,6.6191,6.5784,6.573,6.6028,6.5784,6.573,6.6091,6.6326,6.6381,6.6153,6.6033,6.6128,6.6088,6.5482,6.5253,6.5292,6.4879,6.4821,6.4787,6.4835,6.5051,6.5292,6.5417,6.5417,6.5312,6.4815,6.4299,6.4064,6.3628,6.3336,6.303,6.247,6.1788,6.1517,6.073,6.0193,5.9873,5.9599,5.9521,5.9527,5.9527,5.9578,5.9653,5.9564,5.9461,5.9301,5.9048,5.8692,5.8589,5.8143,5.7655,5.7477,5.7061,5.665,5.639,5.6327,5.5969,5.4998,5.421,5.3752,5.3208,5.2529,5.2119,5.2181,5.2039,5.1678,7.9085,7.9085,7.9085,7.91,7.899,7.8738,7.839,7.8021,7.7824,7.773,7.7835,7.8045,7.8784,8.0001,7.9878,8.034,8.0802,7.9319,7.9059,7.8694,7.7999,7.7155,7.684,7.7342,7.761,7.7525,7.6391,7.5398,7.462,7.3446,7.2776,7.2718,7.2671,7.2642,7.2613,7.2555,7.2311,7.1881,7.1511,7.1097,7.0603,6.9971,6.9351,6.8855,6.8441,6.817,6.7882,6.7756,6.7376,6.6354,6.6226,6.6272,6.6299,6.6299,6.6299,6.6435,6.6842,6.6869,6.6431,6.6741,6.6819,6.6274,6.5815,6.5522,6.5101,6.4908,6.4807,6.4632,6.5057,6.5292,6.5391,6.5417,6.5417,6.5391,6.5338,6.5109,6.4672,6.4168,6.3848,6.3738,6.3013,6.232,6.167,6.0948,6.0281,6.0362,6.0119,6.0105,6.0105,6.013,6.006,5.9985,5.9801,5.9523,5.9317,5.9073,5.8717,5.8418,5.7809,5.7418,5.7537,5.722,5.6782,5.6446,5.6168,5.5767,5.5182,5.4552,5.4112,5.3529,5.2817,5.2468,5.2247,5.1989,5.1659,7.9085,7.9085,7.9085,7.8943,7.8707,7.8628,7.8261,7.7744,7.819,7.799,7.765,7.8384,7.9047,7.94,7.994,8.0217,8.035,7.956,7.8924,7.7749,7.6849,7.6446,7.6473,7.7027,7.7526,7.7484,7.6626,7.5682,7.4908,7.4267,7.3541,7.2816,7.3077,7.3106,7.27,7.2613,7.2555,7.2356,7.2006,7.1611,7.1094,7.0401,6.9653,6.901,6.8402,6.8018,6.793,6.7892,6.7756,6.7485,6.7105,6.695,6.7222,6.7005,6.7005,6.7303,6.7501,6.7468,6.7072,6.6757,6.6423,6.599,6.5305,6.4594,6.4524,6.4643,6.4606,6.4619,6.5031,6.5391,6.5417,6.5417,6.5417,6.5417,6.5391,6.5338,6.5208,6.5077,6.4763,6.428,6.3601,6.2889,6.2286,6.1528,6.1033,6.0873,6.0758,6.0788,6.0688,6.0588,6.0537,6.0387,6.0292,6.0043,5.9728,5.9427,5.8993,5.8477,5.7823,5.7378,5.7473,5.6977,5.6418,5.6097,5.5869,5.5489,5.5207,5.4815,5.432,5.3721,5.3233,5.3088,5.2847,5.2337,5.2001,7.9085,7.9069,7.8943,7.8927,7.9019,7.8746,7.8562,7.8529,7.8703,7.8708,7.865,7.9324,7.9724,8.0049,8.0388,8.0555,8.0418,7.9938,7.9033,7.7903,7.6899,7.653,7.6444,7.6272,7.6276,7.658,7.6028,7.5356,7.4915,7.4616,7.414,7.3512,7.36,7.3425,7.3019,7.2769,7.2506,7.228,7.1985,7.1634,7.116,7.0434,6.9634,6.8901,6.8236,6.7892,6.7892,6.7892,6.7892,6.781,6.7612,6.7539,6.7783,6.7593,6.762,6.7791,6.7681,6.7546,6.7187,6.6647,6.6131,6.5904,6.5205,6.4924,6.4801,6.4894,6.492,6.4979,6.5188,6.5417,6.5417,6.5417,6.5417,6.5417,6.5417,6.5417,6.5417,6.5417,6.5338,6.4847,6.4176,6.3515,6.2811,6.2116,6.1279,6.0884,6.0638,6.0638,6.0537,6.0487,6.0788,6.0763,6.0788,6.0614,6.0232,5.9855,5.9389,5.8783,5.8039,5.7684,5.7567,5.6774,5.5896,5.5792,5.5832,5.5644,5.5362,5.4924,5.4693,5.4371,5.4093,5.39,5.3595,5.3121,5.2868,7.9085,7.91,7.8848,7.8988,7.9267,7.8918,7.8947,7.9186,7.9305,7.9403,7.9878,8.0015,8.0248,8.0788,8.0819,8.0894,8.0604,8.0043,7.9027,7.8247,7.7268,7.6938,7.6729,7.5808,7.5096,7.5035,7.5225,7.5032,7.4762,7.4692,7.475,7.4459,7.4151,7.3832,7.3512,7.3103,7.2641,7.2198,7.1813,7.142,7.0885,7.0156,6.9372,6.8636,6.816,6.7911,6.7892,6.7892,6.7892,6.7892,6.7892,6.7892,6.7892,6.7815,6.7796,6.7777,6.7411,6.7121,6.6888,6.6413,6.5995,6.591,6.5582,6.5404,6.5338,6.5306,6.5312,6.5338,6.5417,6.5417,6.5417,6.5417,6.5417,6.5417,6.5417,6.5417,6.5417,6.5417,6.5364,6.5265,6.4665,6.3994,6.3441,6.2758,6.1785,6.0959,6.0763,6.0568,6.0518,6.0568,6.097,6.079,6.065,6.0196,5.981,5.9706,5.9314,5.9049,5.8305,5.7946,5.7666,5.6992,5.6274,5.5997,5.5893,5.5725,5.5607,5.5382,5.517,5.5035,5.4748,5.4347,5.4085,5.3872,5.3629,7.9085,7.9132,7.9367,7.9048,7.8524,7.9097,7.9029,7.8562,7.9543,7.9663,7.9417,7.9878,8.02,8.034,8.0278,8.0107,7.9967,7.945,7.8926,7.8352,7.7497,7.7068,7.6534,7.5602,7.4922,7.4817,7.5082,7.5085,7.499,7.5494,7.5465,7.4837,7.4895,7.4673,7.3915,7.3523,7.2955,7.2103,7.1758,7.1383,7.0776,7.0063,6.9334,6.8579,6.816,6.7957,6.7938,6.7919,6.7892,6.7892,6.7892,6.7892,6.7815,6.7604,6.743,6.7353,6.7031,6.6681,6.6362,6.6107,6.5812,6.5595,6.543,6.5391,6.5417,6.5417,6.5417,6.5417,6.5417,6.5417,6.5417,6.5417,6.5417,6.5417,6.5417,6.5417,6.5417,6.5417,6.5377,6.5278,6.486,6.4415,6.3814,6.3219,6.2442,6.1808,6.1622,6.1446,6.1366,6.1346,6.1497,6.1031,6.0372,5.9754,5.9169,5.9174,5.9041,5.9116,5.8605,5.8123,5.7769,5.731,5.6833,5.6418,5.6097,5.5913,5.578,5.5767,5.5687,5.5551,5.5162,5.4768,5.452,5.4287,5.3876,7.899,7.888,7.9206,7.9163,7.9008,7.9573,7.9784,7.9741,8.0326,8.0449,8.0296,8.048,8.0617,8.0617,8.0617,8.041,7.9934,7.9392,7.8969,7.8477,7.7659,7.6886,7.642,7.5524,7.497,7.4831,7.5127,7.537,7.5138,7.5959,7.6046,7.5726,7.5592,7.5011,7.4165,7.3583,7.2888,7.1983,7.15,7.1133,7.0582,6.9821,6.9137,6.8806,6.8263,6.8066,6.8291,6.802,6.8101,6.8237,6.8074,6.7946,6.7738,6.7372,6.709,6.7148,6.672,6.6271,6.5989,6.5831,6.5595,6.5456,6.5417,6.5417,6.5417,6.5417,6.5417,6.5417,6.5417,6.5417,6.5417,6.5397,6.5417,6.5417,6.5397,6.5377,6.5397,6.5397,6.5298,6.5119,6.4621,6.426,6.4059,6.3488,6.2951,6.2627,6.2471,6.225,6.2044,6.1943,6.1823,6.0946,6.0184,5.9588,5.897,5.8817,5.884,5.8899,5.8698,5.8192,5.7853,5.7374,5.7017,5.6658,5.6378,5.6254,5.621,5.6244,5.6179,5.6066,5.5755,5.5418,5.5034,5.4674,5.4197,7.8801,7.8516,7.9007,7.9273,7.9488,8.0062,8.048,8.085,8.1021,8.1052,8.1082,8.1082,8.1052,8.1048,8.0944,8.0701,8.0265,7.9582,7.916,7.8639,7.7788,7.6959,7.6399,7.5769,7.5345,7.5317,7.5523,7.565,7.5563,7.6162,7.6442,7.6268,7.5871,7.5272,7.4531,7.383,7.2676,7.1727,7.1137,7.076,7.025,6.9577,6.9135,6.9123,6.8457,6.8326,6.8617,6.857,6.8489,6.8543,6.8372,6.8055,6.7785,6.7148,6.6876,6.6993,6.6342,6.5989,6.5792,6.5634,6.543,6.5417,6.5417,6.5469,6.5626,6.5678,6.5574,6.5443,6.5417,6.5417,6.5397,6.5318,6.5278,6.5218,6.5159,6.5159,6.5218,6.5199,6.5079,6.4801,6.434,6.4039,6.3817,6.3655,6.3108,6.2753,6.2551,6.23,6.2099,6.2019,6.1702,6.076,6.0002,5.947,5.8953,5.856,5.86,5.8679,5.8325,5.7833,5.7636,5.7398,5.712,5.6881,5.7017,5.6913,5.6837,5.6622,5.6418,5.6254,5.6281,5.5872,5.5023,5.4696,5.4439,7.8453,7.8227,7.9147,7.9213,7.9038,8.0309,8.0665,8.0371,8.088,8.1082,8.1082,8.1065,8.1096,8.0979,8.0684,8.0195,7.9683,7.9398,7.9112,7.8603,7.7896,7.7405,7.7255,7.6662,7.6213,7.6025,7.621,7.6017,7.5853,7.6249,7.6462,7.6404,7.6222,7.5747,7.454,7.4052,7.322,7.1789,7.1237,7.0922,7.0472,6.9603,6.928,6.9127,6.8887,6.8725,6.8915,6.9059,6.9221,6.8834,6.8752,6.8427,6.7866,6.7121,6.6798,6.6525,6.6028,6.545,6.5496,6.5535,6.5521,6.5547,6.5521,6.573,6.594,6.607,6.5913,6.5417,6.5417,6.5377,6.5298,6.5079,6.492,6.4767,6.4621,6.4681,6.4781,6.484,6.4741,6.4601,6.418,6.3837,6.3575,6.3453,6.3265,6.2976,6.2651,6.24,6.2093,6.1933,6.1571,6.0633,5.9486,5.8842,5.8542,5.8246,5.815,5.831,5.7955,5.7517,5.7418,5.7299,5.7279,5.716,5.7295,5.7275,5.7021,5.6762,5.6562,5.6318,5.6141,5.5452,5.4638,5.4518,5.4559,7.8086,7.7872,7.9091,7.9326,7.9097,8.0487,8.0942,8.0788,8.0959,8.1082,8.1082,8.1082,8.0979,8.0719,8.0352,7.9895,7.9434,7.9166,7.8843,7.8481,7.7898,7.7542,7.7198,7.6799,7.6519,7.6519,7.6519,7.6384,7.622,7.6259,7.6406,7.6132,7.6066,7.5521,7.4458,7.4097,7.3083,7.1903,7.1089,7.0707,7.0378,6.9703,6.9057,6.8913,6.8865,6.9036,6.933,6.9493,6.9601,6.9249,6.9051,6.8373,6.765,6.7031,6.6623,6.6277,6.6094,6.5777,6.5521,6.5757,6.5861,6.6018,6.6123,6.6384,6.6364,6.6286,6.607,6.5443,6.5417,6.5318,6.5165,6.49,6.4687,6.4446,6.4165,6.4426,6.4526,6.438,6.434,6.42,6.4064,6.3655,6.3331,6.3169,6.3087,6.294,6.2752,6.2651,6.2111,6.1606,6.1135,6.0489,5.9244,5.8096,5.7907,5.7666,5.7536,5.7574,5.7574,5.722,5.722,5.716,5.714,5.712,5.714,5.708,5.7001,5.6901,5.6722,5.6318,5.5896,5.5351,5.4844,5.4477,5.4498,7.8141,7.7893,7.9019,7.9406,7.9447,8.0603,8.1082,8.1082,8.1082,8.1082,8.1082,8.1048,8.0823,8.0405,8.0024,7.9701,7.922,7.8933,7.8572,7.8209,7.788,7.7523,7.7172,7.6762,7.6612,7.6519,7.6519,7.6471,7.649,7.6462,7.6245,7.583,7.5887,7.5267,7.4468,7.388,7.3095,7.201,7.1297,7.1005,7.0802,7.009,6.9513,6.9247,6.9199,6.9485,6.9873,7.0171,7.0198,6.9648,6.9377,6.8749,6.7865,6.7333,6.6952,6.6688,6.6579,6.6358,6.6201,6.628,6.6463,6.6652,6.6913,6.7044,6.6599,6.6469,6.639,6.5992,6.573,6.5465,6.5114,6.4959,6.4515,6.4161,6.3802,6.4185,6.4426,6.416,6.4079,6.4099,6.3857,6.3392,6.3087,6.2904,6.2822,6.2822,6.2802,6.2802,6.23,6.1617,6.1043,6.0527,5.9569,5.8341,5.7754,5.7498,5.7237,5.7121,5.7097,5.7069,5.7153,5.7104,5.7061,5.7021,5.7073,5.7001,5.7001,5.6961,5.6881,5.6462,5.6037,5.5654,5.5209,5.4783,5.4457,7.8826,7.8558,7.8985,7.9512,8.0046,8.0788,8.1082,8.1082,8.1082,8.1082,8.1082,8.1048,8.0684,8.0111,7.9882,7.9511,7.8861,7.8807,7.8572,7.8354,7.8118,7.7689,7.7265,7.6997,7.6781,7.6556,7.6519,7.6519,7.6519,7.6519,7.6208,7.5868,7.5735,7.5153,7.4431,7.3775,7.3291,7.2414,7.1896,7.1673,7.1443,7.0937,7.045,7.03,7.0347,7.0497,7.0551,7.0924,7.0777,7.0004,6.9755,6.9186,6.8252,6.7734,6.7408,6.7193,6.7136,6.7006,6.6959,6.6959,6.7017,6.72,6.7462,6.7671,6.7122,6.7049,6.6971,6.6802,6.641,6.5914,6.5557,6.5167,6.4581,6.3828,6.3494,6.3742,6.3923,6.3817,6.3777,6.3938,6.3696,6.3189,6.3006,6.2843,6.2802,6.2802,6.2781,6.2781,6.2495,6.1906,6.1294,6.0682,5.9936,5.8968,5.8051,5.7766,5.7718,5.7574,5.7502,5.7337,5.7261,5.7169,5.7361,5.7265,5.7337,5.7169,5.7025,5.7005,5.6909,5.6586,5.6221,5.5856,5.5412,5.4925,5.4661,7.9957,7.9831,7.9976,8.0051,8.0138,8.0819,8.1082,8.1082,8.1082,8.1082,8.1082,8.1048,8.0649,8.0076,7.9865,7.9493,7.8879,7.8789,7.8662,7.8409,7.8081,7.7678,7.732,7.6967,7.6631,7.6538,7.6519,7.6519,7.6519,7.6519,7.6189,7.5887,7.5583,7.4905,7.4246,7.3743,7.3363,7.3086,7.2368,7.1758,7.1684,7.0951,7.0361,7.0087,7.0497,7.0551,7.066,7.1195,7.0939,7.0488,7.0065,6.9361,6.8592,6.8043,6.7714,6.7558,6.7543,6.7639,6.7665,6.7671,6.7775,6.8121,6.833,6.8225,6.7697,6.7645,6.741,6.7195,6.6959,6.6487,6.5383,6.5041,6.4572,6.3574,6.3209,6.3372,6.3473,6.3473,6.3534,6.3716,6.3412,6.2965,6.2863,6.2802,6.2802,6.2802,6.2781,6.2679,6.2351,6.2043,6.1388,6.0869,6.014,5.9612,5.8721,5.8436,5.8223,5.8031,5.7862,5.7814,5.7722,5.7986,5.8103,5.7911,5.7674,5.7578,5.7434,5.7193,5.6973,5.677,5.6466,5.6141,5.5634,5.5128,5.4946,8.0726,8.0757,8.0741,8.0627,8.048,8.088,8.1082,8.1082,8.1082,8.1082,8.1065,8.0944,8.0562,8.0024,7.9771,7.9404,7.8933,7.8789,7.8698,7.8499,7.8209,7.777,7.7431,7.7116,7.6855,7.6612,7.6519,7.6519,7.6519,7.6519,7.6095,7.5659,7.5316,7.4818,7.4289,7.3715,7.3592,7.3531,7.2913,7.2003,7.2009,7.1348,7.0742,7.0468,7.0768,7.0904,7.1005,7.1284,7.1156,7.0698,7.0207,6.9615,6.8903,6.8292,6.7925,6.7852,6.7958,6.822,6.8246,6.8278,6.8408,6.8596,6.8701,6.8565,6.833,6.8115,6.7775,6.7775,6.7494,6.6889,6.5667,6.5529,6.4863,6.3924,6.3163,6.3169,6.3311,6.3372,6.3412,6.3494,6.3128,6.2843,6.2822,6.2781,6.2638,6.2597,6.2495,6.2331,6.1985,6.1651,6.1312,6.0837,6.0362,5.9892,5.9436,5.9147,5.879,5.8392,5.8271,5.8367,5.8416,5.8656,5.8632,5.8343,5.8151,5.8079,5.7959,5.7838,5.7434,5.7009,5.6713,5.64,5.606,5.5594,5.5392,8.1126,8.1071,8.1083,8.1069,8.1004,8.1082,8.1082,8.1082,8.1082,8.1079,8.0979,8.0719,8.0335,7.9895,7.9594,7.922,7.8897,7.8789,7.8662,7.8445,7.8409,7.799,7.7579,7.7227,7.6986,7.6612,7.6519,7.6519,7.65,7.6406,7.5944,7.5488,7.5182,7.4875,7.4548,7.416,7.4013,7.3935,7.3443,7.2936,7.2534,7.2002,7.1516,7.1323,7.125,7.1304,7.1358,7.1385,7.1291,7.0927,7.0413,6.9905,6.9462,6.8886,6.8601,6.8617,6.8649,6.8727,6.8753,6.8779,6.8779,6.8758,6.8785,6.8727,6.8623,6.8408,6.8199,6.8278,6.8152,6.7732,6.7038,6.6362,6.539,6.4448,6.3685,6.3264,6.3407,6.3331,6.3392,6.327,6.3026,6.2802,6.2802,6.2741,6.2516,6.2393,6.2249,6.1961,6.1593,6.1423,6.1191,6.0855,6.0487,6.0341,5.9978,5.9729,5.9357,5.889,5.8817,5.9047,5.901,5.8993,5.8921,5.8728,5.8632,5.8584,5.8584,5.8536,5.8055,5.7558,5.7077,5.6704,5.638,5.6223,5.6166,8.203,8.1778,8.1522,8.1289,8.11,8.1082,8.1082,8.1082,8.1096,8.0944,8.0719,8.0545,8.0142,7.9683,7.9434,7.9148,7.8861,7.8789,7.8644,7.8626,7.8536,7.8026,7.7597,7.7302,7.7023,7.665,7.6519,7.65,7.6519,7.6245,7.5981,7.5583,7.4972,7.4586,7.4285,7.4033,7.3994,7.3857,7.3331,7.2818,7.262,7.2089,7.1655,7.1514,7.1494,7.1494,7.1494,7.1494,7.1373,7.113,7.0642,7.0103,6.9774,6.9305,6.8805,6.8785,6.8785,6.8785,6.8785,6.8785,6.8785,6.8785,6.8785,6.8785,6.8753,6.8675,6.8696,6.8727,6.8596,6.8081,6.7318,6.7043,6.6279,6.5188,6.4472,6.3999,6.3888,6.3549,6.3372,6.3087,6.2802,6.2827,6.2827,6.272,6.2516,6.2167,6.2002,6.1589,6.1174,6.1299,6.1233,6.0924,6.0646,6.0636,6.0539,6.0348,6.0199,5.9899,5.9857,6.0051,5.9919,5.9491,5.9519,5.9519,5.9326,5.9113,5.911,5.8989,5.8584,5.8118,5.7859,5.7655,5.7498,5.739,5.7336,8.2391,8.2138,8.1632,8.1289,8.11,8.1082,8.1082,8.1082,8.1065,8.0927,8.0701,8.0457,8.0072,7.963,7.9291,7.9094,7.8807,7.8789,7.8789,7.8771,7.8554,7.8209,7.7825,7.7431,7.7153,7.6762,7.6519,7.6462,7.6208,7.5962,7.5621,7.5202,7.4721,7.4344,7.4072,7.4013,7.3994,7.3818,7.3378,7.2917,7.258,7.2129,7.1675,7.1554,7.1494,7.1494,7.1494,7.1494,7.1494,7.1251,7.0805,7.0206,6.9918,6.9429,6.8868,6.8785,6.8785,6.8785,6.8785,6.8785,6.8785,6.8785,6.8785,6.8785,6.8785,6.8753,6.8753,6.8785,6.8785,6.8372,6.779,6.7577,6.6732,6.5638,6.4979,6.453,6.4204,6.3917,6.3644,6.3286,6.3053,6.3003,6.2832,6.2659,6.2516,6.2125,6.1734,6.1278,6.0841,6.0924,6.1108,6.0924,6.0799,6.0876,6.1018,6.1118,6.0972,6.0817,6.0737,6.0653,6.0354,5.9879,6.0072,6.0213,5.9879,5.9639,5.9591,5.9422,5.9206,5.9158,5.914,5.8928,5.8704,5.8475,5.8235,8.2172,8.207,8.1406,8.1082,8.1082,8.1082,8.1082,8.1082,8.1082,8.1079,8.101,8.0199,7.9865,7.9706,7.9148,7.8843,7.8807,7.8807,7.8789,7.8753,7.8626,7.8372,7.8045,7.7671,7.7209,7.693,7.6612,7.6151,7.5849,7.5602,7.5221,7.4721,7.4324,7.4091,7.4013,7.3994,7.3994,7.3857,7.3398,7.2984,7.262,7.2189,7.1776,7.1575,7.1494,7.1494,7.1494,7.1494,7.1494,7.1211,7.0676,7.0329,6.9877,6.9284,6.8972,6.8785,6.8785,6.8785,6.8785,6.8785,6.8785,6.8785,6.8785,6.8785,6.8785,6.8785,6.8785,6.8785,6.8785,6.8555,6.8246,6.7559,6.6826,6.6008,6.5268,6.4878,6.4605,6.4337,6.4111,6.3852,6.3626,6.345,6.3078,6.285,6.2565,6.194,6.1506,6.1091,6.0695,6.0423,6.0653,6.0921,6.0924,6.1108,6.1319,6.1568,6.1402,6.1129,6.0841,6.0695,6.0423,6.0213,6.0213,6.0213,6.0213,6.0117,5.9928,5.9952,6.0024,5.9997,5.9807,5.9639,5.9233,5.9065,5.8855,8.2037,8.1734,8.1303,8.1082,8.1082,8.1082,8.1082,8.1082,8.1065,8.0992,8.0649,8.0129,7.983,7.9505,7.9023,7.8861,7.8789,7.8789,7.8789,7.8735,7.859,7.8172,7.7807,7.7486,7.706,7.6669,7.6264,7.5925,7.5659,7.5354,7.476,7.4227,7.4072,7.4013,7.3994,7.3994,7.3994,7.3838,7.3339,7.2984,7.2588,7.2089,7.1756,7.1554,7.1494,7.1494,7.1494,7.1494,7.1494,7.1352,7.0662,7.0233,7.0124,6.9346,6.8785,6.8785,6.8785,6.8785,6.8785,6.8785,6.8785,6.8785,6.8785,6.8785,6.8785,6.8785,6.8785,6.8785,6.8785,6.8597,6.8408,6.7865,6.7218,6.6555,6.59,6.547,6.5176,6.4852,6.4626,6.435,6.4124,6.3701,6.3329,6.3032,6.2686,6.1932,6.1344,6.0949,6.0594,6.0318,6.0486,6.0841,6.1008,6.1216,6.1651,6.1961,6.1713,6.1419,6.107,6.0695,6.0381,6.0213,6.0213,6.0213,6.0213,6.0213,6.0189,6.0213,6.0213,6.0213,6.0069,5.9952,5.9831,5.9615,5.9384,8.1802,8.158,8.1251,8.1082,8.1082,8.1082,8.1082,8.1082,8.1082,8.0927,8.0701,8.0304,7.9948,7.9612,7.9238,7.8969,7.8789,7.8789,7.8789,7.8735,7.8518,7.8263,7.7862,7.7402,7.6994,7.6508,7.6019,7.5659,7.5297,7.4779,7.4208,7.4072,7.3994,7.3994,7.3994,7.3994,7.3994,7.3779,7.3398,7.2964,7.2508,7.2049,7.1776,7.1514,7.1494,7.1494,7.1494,7.1494,7.1494,7.1373,7.0662,7.0233,7.0042,6.932,6.8805,6.8785,6.8785,6.8785,6.8785,6.8785,6.8785,6.8785,6.8785,6.8785,6.8785,6.8785,6.8785,6.8785,6.8764,6.8701,6.8534,6.8303,6.7772,6.7192,6.6645,6.6124,6.5735,6.5351,6.5078,6.4802,6.445,6.4002,6.3651,6.3329,6.2761,6.1911,6.1344,6.099,6.059,6.0276,6.0611,6.1091,6.1174,6.1278,6.1734,6.1981,6.161,6.1253,6.1004,6.0653,6.0339,6.0213,6.0213,6.0213,6.0213,6.0213,6.0213,6.0213,6.0213,6.0213,6.0213,6.012,6.0048,6.0024,5.9775,8.158,8.1529,8.1251,8.1082,8.1082,8.1082,8.1082,8.1082,8.1082,8.1065,8.101,8.0667,8.0217,7.9824,7.947,7.9094,7.8897,7.8789,7.8789,7.8789,7.8608,7.8354,7.799,7.7696,7.6957,7.6433,7.5858,7.5297,7.4644,7.4257,7.4091,7.3994,7.3994,7.3994,7.3994,7.3994,7.3994,7.3877,7.3437,7.2984,7.2647,7.2269,7.1876,7.1554,7.1494,7.1494,7.1494,7.1494,7.1494,7.1211,7.0784,7.0226,6.9671,6.9325,6.891,6.8785,6.8785,6.8785,6.8785,6.8785,6.8785,6.8785,6.8785,6.8785,6.8785,6.8785,6.8785,6.8785,6.8785,6.8722,6.8576,6.8324,6.7883,6.7371,6.684,6.6377,6.596,6.571,6.5584,6.5304,6.4927,6.4505,6.4249,6.3931,6.3324,6.2216,6.1676,6.1412,6.0757,6.04,6.0618,6.1181,6.1157,6.1219,6.1548,6.1672,6.1299,6.1004,6.082,6.0611,6.0276,6.0213,6.0213,6.0213,6.0213,6.0213,6.0213,6.0192,6.0192,6.0213,6.0213,6.0213,6.0213,6.0213,5.9931,8.1444,8.1234,8.1148,8.1082,8.1082,8.1082,8.1082,8.1082,8.1082,8.1096,8.0996,8.0667,8.0252,7.9882,7.9559,7.9184,7.8861,7.8789,7.8789,7.8698,7.8572,7.8318,7.7807,7.7523,7.6837,7.6057,7.5469,7.4933,7.4344,7.4072,7.3994,7.3994,7.3994,7.3994,7.3994,7.3994,7.3974,7.3955,7.33,7.2917,7.2679,7.2069,7.1554,7.1494,7.1494,7.1494,7.1494,7.1494,7.1494,7.1352,7.0642,6.9924,6.9133,6.893,6.8826,6.8785,6.8785,6.8785,6.8785,6.8785,6.8785,6.8785,6.8785,6.8785,6.8785,6.8785,6.8785,6.8785,6.8764,6.8701,6.8597,6.8324,6.8014,6.7502,6.7031,6.6604,6.6176,6.6061,6.6036,6.5735,6.538,6.5103,6.4827,6.4387,6.3755,6.3273,6.2887,6.2362,6.129,6.0694,6.0529,6.0921,6.0931,6.1053,6.1386,6.1438,6.1067,6.0782,6.0569,6.0381,6.0213,6.0213,6.0213,6.0213,6.0213,6.015,6.0129,6.015,6.0171,6.0171,6.0108,6.0087,6.0171,6.0213,5.9892,8.1255,8.1082,8.1082,8.1082,8.1082,8.1082,8.1082,8.1082,8.1082,8.0979,8.0823,8.058,8.0252,7.9865,7.9559,7.9184,7.8843,7.8807,7.8789,7.8698,7.8572,7.83,7.788,7.7468,7.6864,7.6151,7.5259,7.4615,7.4149,7.3994,7.3994,7.4013,7.4013,7.4013,7.3994,7.3994,7.3994,7.3955,7.3114,7.2759,7.262,7.1989,7.1534,7.1494,7.1494,7.1494,7.1494,7.1494,7.1494,7.1272,7.0662,6.996,6.932,6.8972,6.8826,6.8785,6.8785,6.8785,6.8785,6.8785,6.8785,6.8785,6.8785,6.8785,6.8785,6.8785,6.8785,6.8785,6.8785,6.8743,6.8743,6.8534,6.8093,6.7582,6.7265,6.6924,6.6433,6.6086,6.6086,6.5986,6.5685,6.5509,6.5233,6.5007,6.4305,6.32,6.3002,6.2449,6.1538,6.0866,6.0746,6.0703,6.076,6.0809,6.1032,6.105,6.0884,6.0595,6.036,6.0276,6.0213,6.0213,6.0213,6.0192,6.0129,6.0024,6.0024,6.0003,6.0087,6.0129,6.0024,5.9895,6.0045,6.015,5.9768,8.1082,8.1082,8.1082,8.1082,8.1082,8.1082,8.1082,8.1065,8.1044,8.0823,8.0527,8.0405,8.0129,7.9812,7.9541,7.9166,7.8897,7.8825,7.8789,7.8789,7.8771,7.8445,7.8099,7.7733,7.6994,7.617,7.5278,7.4769,7.4324,7.4305,7.4285,7.413,7.4072,7.4052,7.4013,7.3994,7.3994,7.3779,7.326,7.2779,7.2361,7.1929,7.1635,7.1494,7.1494,7.1494,7.1494,7.1494,7.1494,7.117,7.0703,7.0021,6.9465,6.9055,6.8868,6.8785,6.8785,6.8785,6.8785,6.8785,6.8785,6.8785,6.8785,6.8785,6.8785,6.8785,6.8785,6.8785,6.8785,6.8785,6.8785,6.8701,6.8214,6.7709,6.7434,6.7073,6.654,6.6112,6.6112,6.6112,6.5986,6.581,6.5553,6.5323,6.4619,6.3485,6.2653,6.196,6.1356,6.0948,6.0686,6.068,6.0746,6.0794,6.0768,6.0736,6.0656,6.049,6.0276,6.0234,6.0213,6.0213,6.0192,6.015,6.0087,5.9982,5.9835,5.9771,5.9877,6.0024,6.0066,6.0003,6.0024,6.0003,5.9602,8.1082,8.1082,8.1082,8.1082,8.1082,8.1082,8.1082,8.1061,8.0754,8.0562,8.037,7.9842,7.9541,7.9487,7.9452,7.9166,7.8843,7.8789,7.8789,7.8789,7.8789,7.8536,7.8154,7.7696,7.6919,7.6114,7.5393,7.5115,7.4711,7.4808,7.4788,7.4479,7.4432,7.4305,7.4013,7.3994,7.3955,7.374,7.326,7.2699,7.2461,7.2049,7.1615,7.1494,7.1494,7.1494,7.1494,7.1494,7.1494,7.1231,7.0744,7.0103,6.963,6.9222,6.8972,6.8868,6.8868,6.8785,6.8785,6.8785,6.8785,6.8785,6.8785,6.8785,6.8785,6.8785,6.8785,6.8785,6.8785,6.8785,6.8785,6.8785,6.845,6.7861,6.746,6.6839,6.6262,6.6133,6.6112,6.6112,6.6061,6.5818,6.5491,6.5213,6.4858,6.39,6.3188,6.2441,6.1494,6.105,6.0577,6.0625,6.0649,6.055,6.0414,6.0523,6.0451,6.0309,6.0213,6.0213,6.0213,6.0213,6.0192,6.0171,6.0087,5.9982,5.9813,5.9645,5.9729,5.9898,6.0087,6.0129,6.0108,5.9898,5.9476]}]]